Darstellungsparameter: Aktuell verwendete Einstellungen:
Skalierung der Graphiken ... ?
xyx+y,   Skalierungsfaktor:      Skalierung: Modus: x, Faktor: 1
Darstellungszeitraum ... ?
Vom - - bis: - -   Zeitraum: 09.03.2003 - 14.10.2010
Min/Max/Avg-Anzeige ... ?
Zeige MMA aktuell
Zeige MMA Monat
Zeige MMA alles
Zeige --A aktuell
Zeige --A Monat
Zeige --A alles
Keine MMA-Anzeige
MMA:
Minimum Maximum Average (ber die Originaldaten)
MMA-Basis: 09.03.2003 - 14.10.2010
Quicknavigation für Darstellung... ?
Tage:      1T, 2T, 3T, 5T -1T -2T -3T -5T +1T +2T +3T +5T
Wochen: 1W, 2W, 3W -1W -2W -3W +1W +2W +3W
Monate: 1M, 3M, 6M -1M -3M -6M +1M +3M +6M
Jahre:    1J, 3J, 5J, 10J -1J -3J -5J -10J +1J +3J +5J +10J
Nutze für die Darstellung ... ?
Originaldaten oder ...
Mittelwerte Minima Maxima auf...
Stundenbasis Tagesbasis Wochenbasis
Monatsbasis Jahresbasis      Datenbasis: Mittelwerte auf Tagesbasis
Darstellen als:
Statistik (Auto) Statistik J:M      Darstellung:
Zur Graphik,    zurück zur Übersicht aller Sensoren.
 
Tabellarische Datenbersicht: ?
 
Sensor: Nr:Datum:Temp:Abs-Feuchte:Windchill:Wind:
Aussen-T/F 1 09-03-2003 00:00:00 9.86698 C 5.31 g/m*3 9.87 C 0 km/h
2 10-03-2003 00:00:00 10.51917 C 6.01 g/m*3 10.52 C 0 km/h
3 11-03-2003 00:00:00 12.31167 C 6.94 g/m*3 12.31 C 0 km/h
4 12-03-2003 00:00:00 9.19725 C 5.93 g/m*3 9.2 C 0 km/h
5 13-03-2003 00:00:00 7.42917 C 4.31 g/m*3 7.43 C 0 km/h
6 14-03-2003 00:00:00 4.74417 C 3.48 g/m*3 4.74 C 0 km/h
7 15-03-2003 00:00:00 5.11261 C 3.79 g/m*3 5.11 C 0 km/h
8 16-03-2003 00:00:00 5.46583 C 4.01 g/m*3 5.47 C 0 km/h
9 17-03-2003 00:00:00 6.59389 C 4.25 g/m*3 6.59 C 0 km/h
10 18-03-2003 00:00:00 4.7831 C 4.36 g/m*3 4.78 C 0 km/h
11 19-03-2003 00:00:00 6.72437 C 4.61 g/m*3 6.72 C 0 km/h
12 20-03-2003 00:00:00 5.83083 C 4.68 g/m*3 5.83 C 0 km/h
13 21-03-2003 00:00:00 5.31271 C 4.09 g/m*3 5.31 C 0 km/h
14 22-03-2003 00:00:00 6.51 C 3.09 g/m*3 6.51 C 0 km/h
15 23-03-2003 00:00:00 7.7916 C 3.06 g/m*3 7.79 C 0 km/h
16 24-03-2003 00:00:00 9.90917 C 4.16 g/m*3 9.91 C 0 km/h
17 25-03-2003 00:00:00 12.45126 C 6.38 g/m*3 12.45 C 0 km/h
18 26-03-2003 00:00:00 12.51833 C 7.65 g/m*3 12.52 C 0 km/h
19 27-03-2003 00:00:00 12.4042 C 7.24 g/m*3 12.4 C 0 km/h
20 28-03-2003 00:00:00 13.62333 C 6.91 g/m*3 13.62 C 0 km/h
21 29-03-2003 00:00:00 15.55652 C 8.2 g/m*3 15.56 C 0 km/h
22 30-03-2003 00:00:00 13.94188 C 8.06 g/m*3 13.94 C 0 km/h
23 31-03-2003 00:00:00 10.48833 C 5.2 g/m*3 10.49 C 0 km/h
24 01-04-2003 00:00:00 9.86224 C 5.26 g/m*3 9.86 C 0 km/h
25 02-04-2003 00:00:00 5.81958 C 5.87 g/m*3 5.82 C 0 km/h
Sensor: Nr:Datum:Temp:Abs-Feuchte:Windchill:Wind:
Aussen-T/F 26 03-04-2003 00:00:00 5.28292 C 4.77 g/m*3 5.28 C 0 km/h
27 04-04-2003 00:00:00 6.50335 C 4.41 g/m*3 6.5 C 0 km/h
28 05-04-2003 00:00:00 8.93776 C 5.11 g/m*3 8.94 C 0 km/h
29 06-04-2003 00:00:00 8.6063 C 3.55 g/m*3 8.61 C 0 km/h
30 25-04-2003 00:00:00 26.39362 C 6.64 g/m*3 26.39 C 0 km/h
31 26-04-2003 00:00:00 15.08169 C 9.61 g/m*3 15.08 C 0 km/h
32 27-04-2003 00:00:00 12.72168 C 8.24 g/m*3 12.72 C 0 km/h
33 28-04-2003 00:00:00 17.06276 C 8.73 g/m*3 17.06 C 0 km/h
34 29-04-2003 00:00:00 17.9 C 8.79 g/m*3 17.9 C 0 km/h
35 30-04-2003 00:00:00 14.06319 C 10.01 g/m*3 14.06 C 0 km/h
36 01-05-2003 00:00:00 13.28944 C 7.35 g/m*3 13.29 C 0 km/h
37 02-05-2003 00:00:00 14.91042 C 7.56 g/m*3 14.91 C 0 km/h
38 03-05-2003 00:00:00 14.75944 C 5.98 g/m*3 14.76 C 0 km/h
39 04-05-2003 00:00:00 17.16901 C 7.25 g/m*3 17.17 C 0 km/h
40 05-05-2003 00:00:00 19.43681 C 8.95 g/m*3 19.44 C 0 km/h
41 06-05-2003 00:00:00 15.45874 C 9.46 g/m*3 15.46 C 0 km/h
42 07-05-2003 00:00:00 17.27569 C 8.9 g/m*3 17.28 C 0 km/h
43 08-05-2003 00:00:00 18.80278 C 9.79 g/m*3 18.8 C 0 km/h
44 09-05-2003 00:00:00 15.69375 C 10.2 g/m*3 15.69 C 0 km/h
45 10-05-2003 00:00:00 16.18112 C 8.23 g/m*3 16.18 C 0 km/h
46 11-05-2003 00:00:00 15.48322 C 6.96 g/m*3 15.48 C 0 km/h
47 12-05-2003 00:00:00 16.44028 C 7.63 g/m*3 16.44 C 0 km/h
48 13-05-2003 00:00:00 11.88042 C 6.89 g/m*3 11.88 C 0 km/h
49 14-05-2003 00:00:00 9.76224 C 6.27 g/m*3 9.76 C 0 km/h
50 15-05-2003 00:00:00 12.75944 C 6.15 g/m*3 12.76 C 0 km/h
Sensor: Nr:Datum:Temp:Abs-Feuchte:Windchill:Wind:
Aussen-T/F 51 16-05-2003 00:00:00 13.02917 C 6.2 g/m*3 13.03 C 0 km/h
52 17-05-2003 00:00:00 14.35594 C 7.59 g/m*3 14.36 C 0 km/h
53 18-05-2003 00:00:00 16.15714 C 9.6 g/m*3 16.16 C 0 km/h
54 19-05-2003 00:00:00 13.69172 C 10.42 g/m*3 13.69 C 0 km/h
55 20-05-2003 00:00:00 12.97431 C 7.17 g/m*3 12.97 C 0 km/h
56 21-05-2003 00:00:00 11.90559 C 8.02 g/m*3 11.91 C 0 km/h
57 22-05-2003 00:00:00 13.89792 C 10.1 g/m*3 13.9 C 0 km/h
58 23-05-2003 00:00:00 18.97762 C 9.14 g/m*3 18.98 C 0 km/h
59 24-05-2003 00:00:00 19.54577 C 9.98 g/m*3 19.55 C 0 km/h
60 25-05-2003 00:00:00 16.0137 C 8.9 g/m*3 16.01 C 0 km/h
61 26-05-2003 00:00:00 17.77413 C 8.37 g/m*3 17.77 C 0 km/h
62 27-05-2003 00:00:00 19.34444 C 9.55 g/m*3 19.34 C 0 km/h
63 28-05-2003 00:00:00 20.5951 C 9.97 g/m*3 20.6 C 0 km/h
64 29-05-2003 00:00:00 22.73056 C 10.02 g/m*3 22.73 C 0 km/h
65 30-05-2003 00:00:00 23.71367 C 11.58 g/m*3 23.71 C 0 km/h
66 31-05-2003 00:00:00 21.47902 C 13.38 g/m*3 21.48 C 0 km/h
67 01-06-2003 00:00:00 23.35175 C 13.24 g/m*3 23.35 C 0 km/h
68 02-06-2003 00:00:00 23.57394 C 12.51 g/m*3 23.57 C 0 km/h
69 03-06-2003 00:00:00 23.12153 C 13.79 g/m*3 23.12 C 0 km/h
70 04-06-2003 00:00:00 25.04755 C 13.87 g/m*3 25.05 C 0 km/h
71 05-06-2003 00:00:00 22.86621 C 12.83 g/m*3 22.87 C 0 km/h
72 06-06-2003 00:00:00 22.71608 C 12.29 g/m*3 22.72 C 0 km/h
73 07-06-2003 00:00:00 24.90694 C 13.21 g/m*3 24.91 C 0 km/h
74 08-06-2003 00:00:00 22.7993 C 13.98 g/m*3 22.8 C 0 km/h
75 09-06-2003 00:00:00 19.85139 C 8.47 g/m*3 19.85 C 0 km/h
Sensor: Nr:Datum:Temp:Abs-Feuchte:Windchill:Wind:
Aussen-T/F 76 10-06-2003 00:00:00 21.51389 C 12.3 g/m*3 21.51 C 0 km/h
77 11-06-2003 00:00:00 23.96899 C 13.08 g/m*3 23.97 C 0 km/h
78 12-06-2003 00:00:00 22.99412 C 13.7 g/m*3 22.99 C 0 km/h
79 13-06-2003 00:00:00 22.87647 C 11.72 g/m*3 22.88 C 0 km/h
80 14-06-2003 00:00:00 19.34812 C 11.47 g/m*3 19.35 C 0 km/h
81 15-06-2003 00:00:00 22.11274 C 11.31 g/m*3 22.11 C 0 km/h
82 16-06-2003 00:00:00 22.74242 C 9.22 g/m*3 22.74 C 0 km/h
83 17-06-2003 00:00:00 22.74154 C 10.64 g/m*3 22.74 C 0 km/h
84 18-06-2003 00:00:00 20.45909 C 12.13 g/m*3 20.46 C 0 km/h
85 19-06-2003 00:00:00 20.73846 C 11.16 g/m*3 20.74 C 0 km/h
86 20-06-2003 00:00:00 20.76769 C 8.96 g/m*3 20.77 C 0 km/h
87 21-06-2003 00:00:00 18.57692 C 7.61 g/m*3 18.58 C 0 km/h
88 22-06-2003 00:00:00 22.50152 C 9.54 g/m*3 22.5 C 0 km/h
89 23-06-2003 00:00:00 23.88438 C 11.21 g/m*3 23.88 C 0 km/h
90 24-06-2003 00:00:00 22.05758 C 10.02 g/m*3 22.06 C 0 km/h
91 25-06-2003 00:00:00 21.8 C 9.1 g/m*3 21.8 C 0 km/h
92 26-06-2003 00:00:00 23.58 C 9.35 g/m*3 23.58 C 0 km/h
93 27-06-2003 00:00:00 22.64923 C 9.95 g/m*3 22.65 C 0 km/h
94 28-06-2003 00:00:00 22.94308 C 12.05 g/m*3 22.94 C 0 km/h
95 29-06-2003 00:00:00 25.77699 C 10.4 g/m*3 25.78 C 0 km/h
96 30-06-2003 00:00:00 22.11883 C 12.24 g/m*3 22.12 C 0 km/h
97 01-07-2003 00:00:00 19.41218 C 10.7 g/m*3 19.41 C 0 km/h
98 02-07-2003 00:00:00 17.99791 C 9.76 g/m*3 18 C 0 km/h
99 03-07-2003 00:00:00 17.02667 C 10.35 g/m*3 17.03 C 0 km/h
100 04-07-2003 00:00:00 17.05607 C 10.28 g/m*3 17.06 C 0 km/h
Sensor: Nr:Datum:Temp:Abs-Feuchte:Windchill:Wind:
Aussen-T/F 101 05-07-2003 00:00:00 16.84059 C 10.64 g/m*3 16.84 C 0 km/h
102 06-07-2003 00:00:00 20.31743 C 9.59 g/m*3 20.32 C 0 km/h
103 07-07-2003 00:00:00 21.54861 C 9.65 g/m*3 21.55 C 0 km/h
104 08-07-2003 00:00:00 21.54825 C 9.54 g/m*3 21.55 C 0 km/h
105 09-07-2003 00:00:00 20.83077 C 10.49 g/m*3 20.83 C 0 km/h
106 10-07-2003 00:00:00 21.87972 C 10.1 g/m*3 21.88 C 0 km/h
107 11-07-2003 00:00:00 22.96875 C 10.61 g/m*3 22.97 C 0 km/h
108 12-07-2003 00:00:00 21.7951 C 8.51 g/m*3 21.8 C 0 km/h
109 13-07-2003 00:00:00 22.62708 C 9.02 g/m*3 22.63 C 0 km/h
110 14-07-2003 00:00:00 24.49648 C 8.2 g/m*3 24.5 C 0 km/h
111 15-07-2003 00:00:00 25.82168 C 8.71 g/m*3 25.82 C 0 km/h
112 16-07-2003 00:00:00 26.9125 C 9.52 g/m*3 26.91 C 0 km/h
113 17-07-2003 00:00:00 21.73147 C 9.97 g/m*3 21.73 C 0 km/h
114 18-07-2003 00:00:00 23.17361 C 9.24 g/m*3 23.17 C 0 km/h
115 19-07-2003 00:00:00 25.16783 C 9.49 g/m*3 25.17 C 0 km/h
116 20-07-2003 00:00:00 25.17292 C 10.49 g/m*3 25.17 C 0 km/h
117 21-07-2003 00:00:00 24.85804 C 13.44 g/m*3 24.86 C 0 km/h
118 22-07-2003 00:00:00 23.93147 C 13.41 g/m*3 23.93 C 0 km/h
119 23-07-2003 00:00:00 23.35208 C 11.09 g/m*3 23.35 C 0 km/h
120 24-07-2003 00:00:00 21.31549 C 11.76 g/m*3 21.32 C 0 km/h
121 25-07-2003 00:00:00 21.11064 C 11.64 g/m*3 21.11 C 0 km/h
122 26-07-2003 00:00:00 21.33333 C 12.47 g/m*3 21.33 C 0 km/h
123 27-07-2003 00:00:00 20.99861 C 14.27 g/m*3 21 C 0 km/h
124 28-07-2003 00:00:00 20.96667 C 9.78 g/m*3 20.97 C 0 km/h
125 29-07-2003 00:00:00 21.55556 C 8.86 g/m*3 21.56 C 0 km/h
Sensor: Nr:Datum:Temp:Abs-Feuchte:Windchill:Wind:
Aussen-T/F 126 30-07-2003 00:00:00 19.87292 C 11.23 g/m*3 19.87 C 0 km/h
127 31-07-2003 00:00:00 22.51319 C 13.35 g/m*3 22.51 C 0 km/h
128 01-08-2003 00:00:00 24.69658 C 11.82 g/m*3 24.7 C 0 km/h
129 02-08-2003 00:00:00 26.31181 C 11.89 g/m*3 26.31 C 0 km/h
130 03-08-2003 00:00:00 26.94236 C 12.66 g/m*3 26.94 C 0 km/h
131 04-08-2003 00:00:00 27.77133 C 12.6 g/m*3 27.77 C 0 km/h
132 05-08-2003 00:00:00 27.84375 C 11.54 g/m*3 27.84 C 0 km/h
133 06-08-2003 00:00:00 27.87292 C 11.76 g/m*3 27.87 C 0 km/h
134 07-08-2003 00:00:00 28.54167 C 10.88 g/m*3 28.54 C 0 km/h
135 08-08-2003 00:00:00 28.9625 C 11.22 g/m*3 28.96 C 0 km/h
136 09-08-2003 00:00:00 28.56528 C 12.44 g/m*3 28.57 C 0 km/h
137 10-08-2003 00:00:00 27.40347 C 10.21 g/m*3 27.4 C 0 km/h
138 11-08-2003 00:00:00 26.68333 C 9.8 g/m*3 26.68 C 0 km/h
139 12-08-2003 00:00:00 28.33655 C 10.48 g/m*3 28.34 C 0 km/h
140 13-08-2003 00:00:00 27.60694 C 10.9 g/m*3 27.61 C 0 km/h
141 14-08-2003 00:00:00 24.19301 C 10.36 g/m*3 24.19 C 0 km/h
142 15-08-2003 00:00:00 21.19583 C 8.05 g/m*3 21.2 C 0 km/h
143 16-08-2003 00:00:00 20.93819 C 8.03 g/m*3 20.94 C 0 km/h
144 17-08-2003 00:00:00 21.95417 C 8.71 g/m*3 21.95 C 0 km/h
145 18-08-2003 00:00:00 19.58194 C 13.98 g/m*3 19.58 C 0 km/h
146 19-08-2003 00:00:00 21.01528 C 12.66 g/m*3 21.02 C 0 km/h
147 20-08-2003 00:00:00 20.52164 C 9.87 g/m*3 20.52 C 0 km/h
148 21-08-2003 00:00:00 20.59583 C 9.54 g/m*3 20.6 C 0 km/h
149 22-08-2003 00:00:00 20.25 C 9.6 g/m*3 20.25 C 0 km/h
150 23-08-2003 00:00:00 21.61417 C 11.02 g/m*3 21.61 C 0 km/h
Sensor: Nr:Datum:Temp:Abs-Feuchte:Windchill:Wind:
Aussen-T/F 151 24-08-2003 00:00:00 20.755 C 9.76 g/m*3 20.76 C 0 km/h
152 25-08-2003 00:00:00 20.085 C 8.94 g/m*3 20.09 C 0 km/h
153 26-08-2003 00:00:00 20.6475 C 9.1 g/m*3 20.65 C 0 km/h
154 27-08-2003 00:00:00 18.16083 C 9.11 g/m*3 18.16 C 0 km/h
155 28-08-2003 00:00:00 18.705 C 10.16 g/m*3 18.7 C 0 km/h
156 29-08-2003 00:00:00 17.34333 C 12.45 g/m*3 17.34 C 0 km/h
157 30-08-2003 00:00:00 14.92583 C 10.45 g/m*3 14.93 C 0 km/h
158 31-08-2003 00:00:00 14.155 C 8.69 g/m*3 14.16 C 0 km/h
159 01-09-2003 00:00:00 13.11417 C 8.14 g/m*3 13.11 C 0 km/h
160 02-09-2003 00:00:00 14.14167 C 8.13 g/m*3 14.14 C 0 km/h
161 03-09-2003 00:00:00 14.39 C 7.38 g/m*3 14.39 C 0 km/h
162 04-09-2003 00:00:00 16.6175 C 8.24 g/m*3 16.62 C 0 km/h
163 05-09-2003 00:00:00 17.74833 C 8.41 g/m*3 17.75 C 0 km/h
164 06-09-2003 00:00:00 19.795 C 10.64 g/m*3 19.8 C 0 km/h
165 07-09-2003 00:00:00 18.97417 C 10.92 g/m*3 18.97 C 0 km/h
166 08-09-2003 00:00:00 16.28824 C 10.4 g/m*3 16.29 C 0 km/h
167 09-09-2003 00:00:00 15.21417 C 9.12 g/m*3 15.21 C 0 km/h
168 10-09-2003 00:00:00 14.80667 C 9.88 g/m*3 14.81 C 0 km/h
169 11-09-2003 00:00:00 14.8625 C 8.4 g/m*3 14.86 C 0 km/h
170 12-09-2003 00:00:00 16.89667 C 8.98 g/m*3 16.9 C 0 km/h
171 13-09-2003 00:00:00 17.87 C 8.81 g/m*3 17.87 C 0 km/h
172 14-09-2003 00:00:00 15.66083 C 8.48 g/m*3 15.66 C 0 km/h
173 15-09-2003 00:00:00 16.91818 C 9.43 g/m*3 16.92 C 0 km/h
174 16-09-2003 00:00:00 16.72397 C 9.58 g/m*3 16.72 C 0 km/h
175 17-09-2003 00:00:00 17.685 C 9.86 g/m*3 17.68 C 0 km/h
Sensor: Nr:Datum:Temp:Abs-Feuchte:Windchill:Wind:
Aussen-T/F 176 18-09-2003 00:00:00 18.04583 C 9.06 g/m*3 18.05 C 0 km/h
177 19-09-2003 00:00:00 19.47083 C 9.69 g/m*3 19.47 C 0 km/h
178 20-09-2003 00:00:00 20.25882 C 10.57 g/m*3 20.26 C 0 km/h
179 21-09-2003 00:00:00 20.695 C 9.57 g/m*3 20.7 C 0 km/h
180 22-09-2003 00:00:00 18.3225 C 10.88 g/m*3 18.32 C 0 km/h
181 23-09-2003 00:00:00 13.95333 C 8.5 g/m*3 13.95 C 0 km/h
182 24-09-2003 00:00:00 10.7375 C 6.94 g/m*3 10.74 C 0 km/h
183 25-09-2003 00:00:00 11.6925 C 6.73 g/m*3 11.69 C 0 km/h
184 26-09-2003 00:00:00 12.8025 C 7.07 g/m*3 12.8 C 0 km/h
185 27-09-2003 00:00:00 13.93417 C 8.15 g/m*3 13.93 C 0 km/h
186 28-09-2003 00:00:00 14.33554 C 9.53 g/m*3 14.34 C 0 km/h
187 29-09-2003 00:00:00 13.1625 C 7.49 g/m*3 13.16 C 0 km/h
188 30-09-2003 00:00:00 12.02083 C 7.43 g/m*3 12.02 C 0 km/h
189 01-10-2003 00:00:00 10.64793 C 7.98 g/m*3 10.65 C 0 km/h
190 02-10-2003 00:00:00 16.3025 C 11.21 g/m*3 16.3 C 0 km/h
191 03-10-2003 00:00:00 16.015 C 10.52 g/m*3 16.02 C 0 km/h
192 04-10-2003 00:00:00 12.51583 C 8.78 g/m*3 12.52 C 0 km/h
193 05-10-2003 00:00:00 9.27917 C 6.68 g/m*3 9.28 C 0 km/h
194 06-10-2003 00:00:00 7.6025 C 6.17 g/m*3 7.6 C 0 km/h
195 07-10-2003 00:00:00 8.125 C 6.67 g/m*3 8.13 C 0 km/h
196 08-10-2003 00:00:00 9.46694 C 6.93 g/m*3 9.47 C 0 km/h
197 09-10-2003 00:00:00 12.52833 C 8.38 g/m*3 12.53 C 0 km/h
198 10-10-2003 00:00:00 13.88667 C 8.8 g/m*3 13.89 C 0 km/h
199 11-10-2003 00:00:00 13.46833 C 8.93 g/m*3 13.47 C 0 km/h
200 12-10-2003 00:00:00 10.71157 C 6.94 g/m*3 10.71 C 0 km/h
Sensor: Nr:Datum:Temp:Abs-Feuchte:Windchill:Wind:
Aussen-T/F 201 13-10-2003 00:00:00 8.84417 C 6.18 g/m*3 8.84 C 0 km/h
202 14-10-2003 00:00:00 8.61774 C 5.57 g/m*3 8.62 C 0 km/h
203 15-10-2003 00:00:00 6.7392 C 5.15 g/m*3 6.74 C 0 km/h
204 16-10-2003 00:00:00 7.11532 C 5.35 g/m*3 7.12 C 0 km/h
205 17-10-2003 00:00:00 6.33417 C 4.84 g/m*3 6.33 C 0 km/h
206 18-10-2003 00:00:00 4.57667 C 4.79 g/m*3 4.58 C 0 km/h
207 19-10-2003 00:00:00 4.02333 C 4.99 g/m*3 4.02 C 0 km/h
208 20-10-2003 00:00:00 6.06833 C 5.39 g/m*3 6.07 C 0 km/h
209 21-10-2003 00:00:00 5.19853 C 5.43 g/m*3 5.2 C 0 km/h
210 22-10-2003 00:00:00 3.7873 C 5.48 g/m*3 3.79 C 0 km/h
211 23-10-2003 00:00:00 3.55476 C 3.96 g/m*3 3.55 C 0 km/h
212 24-10-2003 00:00:00 0.92869 C 3.4 g/m*3 0.93 C 0 km/h
213 25-10-2003 00:00:00 4.80331 C 4.49 g/m*3 4.8 C 0 km/h
214 26-10-2003 00:00:00 6.43361 C 5.2 g/m*3 6.43 C 0 km/h
215 27-10-2003 00:00:00 6.27667 C 5.5 g/m*3 6.28 C 0 km/h
216 28-10-2003 00:00:00 4.52667 C 4.92 g/m*3 4.53 C 0 km/h
217 29-10-2003 00:00:00 5.675 C 6.08 g/m*3 5.68 C 0 km/h
218 30-10-2003 00:00:00 5.9688 C 6.02 g/m*3 5.97 C 0 km/h
219 31-10-2003 00:00:00 7.1 C 6.8 g/m*3 7.1 C 0 km/h
220 01-11-2003 00:00:00 9.5144 C 6.99 g/m*3 9.51 C 0 km/h
221 02-11-2003 00:00:00 9.956 C 6.37 g/m*3 9.96 C 0 km/h
222 03-11-2003 00:00:00 12.28333 C 7.25 g/m*3 12.28 C 0 km/h
223 04-11-2003 00:00:00 9.815 C 6.84 g/m*3 9.82 C 0 km/h
224 05-11-2003 00:00:00 6.345 C 5.98 g/m*3 6.35 C 0 km/h
225 06-11-2003 00:00:00 4.63388 C 5.31 g/m*3 4.63 C 0 km/h
Sensor: Nr:Datum:Temp:Abs-Feuchte:Windchill:Wind:
Aussen-T/F 226 07-11-2003 00:00:00 5.57323 C 4.97 g/m*3 5.57 C 0 km/h
227 08-11-2003 00:00:00 6.66748 C 5.03 g/m*3 6.67 C 0 km/h
228 09-11-2003 00:00:00 5.94409 C 5.25 g/m*3 5.94 C 0 km/h
229 10-11-2003 00:00:00 6.52937 C 5.72 g/m*3 6.53 C 0 km/h
230 11-11-2003 00:00:00 5.2064 C 4.78 g/m*3 5.21 C 0 km/h
231 12-11-2003 00:00:00 5.06859 C 4.88 g/m*3 5.07 C 0 km/h
232 13-11-2003 00:00:00 7.195 C 5.99 g/m*3 7.2 C 0 km/h
233 14-11-2003 00:00:00 5.67167 C 5.63 g/m*3 5.67 C 0 km/h
234 15-11-2003 00:00:00 6.93719 C 5.98 g/m*3 6.94 C 0 km/h
235 16-11-2003 00:00:00 4.36532 C 5.7 g/m*3 4.37 C 0 km/h
236 17-11-2003 00:00:00 6.63361 C 5.71 g/m*3 6.63 C 0 km/h
237 18-11-2003 00:00:00 8.51967 C 7 g/m*3 8.52 C 0 km/h
238 19-11-2003 00:00:00 11.89837 C 7.86 g/m*3 11.9 C 0 km/h
239 20-11-2003 00:00:00 10.56167 C 7.07 g/m*3 10.56 C 0 km/h
240 21-11-2003 00:00:00 9.79083 C 6.66 g/m*3 9.79 C 0 km/h
241 22-11-2003 00:00:00 9.85167 C 6.99 g/m*3 9.85 C 0 km/h
242 23-11-2003 00:00:00 13.305 C 6.83 g/m*3 13.31 C 0 km/h
243 24-11-2003 00:00:00 13.64667 C 7.3 g/m*3 13.65 C 0 km/h
244 25-11-2003 00:00:00 11.82683 C 7.35 g/m*3 11.83 C 0 km/h
245 26-11-2003 00:00:00 9.87317 C 6.37 g/m*3 9.87 C 0 km/h
246 27-11-2003 00:00:00 7.63871 C 7.01 g/m*3 7.64 C 0 km/h
247 28-11-2003 00:00:00 5.24797 C 5.9 g/m*3 5.25 C 0 km/h
248 29-11-2003 00:00:00 3.545 C 4.95 g/m*3 3.55 C 0 km/h
249 30-11-2003 00:00:00 5.35833 C 5.77 g/m*3 5.36 C 0 km/h
250 01-12-2003 00:00:00 7.79167 C 6.28 g/m*3 7.79 C 0 km/h
Sensor: Nr:Datum:Temp:Abs-Feuchte:Windchill:Wind:
Aussen-T/F 251 02-12-2003 00:00:00 5.15833 C 5.56 g/m*3 5.16 C 0 km/h
252 03-12-2003 00:00:00 3.17273 C 5.32 g/m*3 3.17 C 0 km/h
253 04-12-2003 00:00:00 4.92258 C 5.43 g/m*3 4.92 C 0 km/h
254 05-12-2003 00:00:00 5.37787 C 5.04 g/m*3 5.38 C 0 km/h
255 06-12-2003 00:00:00 3.05124 C 4.26 g/m*3 3.05 C 0 km/h
256 07-12-2003 00:00:00 -2.40492 C 2.91 g/m*3 -2.4 C 0 km/h
257 08-12-2003 00:00:00 -4.28 C 2.82 g/m*3 -4.28 C 0 km/h
258 09-12-2003 00:00:00 -4.81083 C 2.64 g/m*3 -4.81 C 0 km/h
259 10-12-2003 00:00:00 -3.95583 C 2.85 g/m*3 -3.96 C 0 km/h
260 11-12-2003 00:00:00 1.15083 C 3.9 g/m*3 1.15 C 0 km/h
261 12-12-2003 00:00:00 4.94758 C 5.36 g/m*3 4.95 C 0 km/h
262 13-12-2003 00:00:00 10.35 C 7.53 g/m*3 10.35 C 0 km/h
263 14-12-2003 00:00:00 7.74758 C 5.35 g/m*3 7.75 C 0 km/h
264 15-12-2003 00:00:00 3.0314 C 4.11 g/m*3 3.03 C 0 km/h
265 16-12-2003 00:00:00 3.83333 C 4.46 g/m*3 3.83 C 0 km/h
266 17-12-2003 00:00:00 3.71417 C 4.71 g/m*3 3.71 C 0 km/h
267 18-12-2003 00:00:00 -0.60917 C 3.92 g/m*3 -0.61 C 0 km/h
268 19-12-2003 00:00:00 2.1325 C 4.51 g/m*3 2.13 C 0 km/h
269 20-12-2003 00:00:00 8.76446 C 6.39 g/m*3 8.76 C 0 km/h
270 21-12-2003 00:00:00 6.09262 C 5.24 g/m*3 6.09 C 0 km/h
271 22-12-2003 00:00:00 1.6822 C 3.9 g/m*3 1.68 C 0 km/h
272 23-12-2003 00:00:00 -0.1781 C 3.56 g/m*3 -0.18 C 0 km/h
273 24-12-2003 00:00:00 1.48333 C 3.74 g/m*3 1.48 C 0 km/h
274 25-12-2003 00:00:00 3.60256 C 4.32 g/m*3 3.6 C 0 km/h
275 26-12-2003 00:00:00 5.71008 C 5.12 g/m*3 5.71 C 0 km/h
Sensor: Nr:Datum:Temp:Abs-Feuchte:Windchill:Wind:
Aussen-T/F 276 27-12-2003 00:00:00 7.0438 C 5.41 g/m*3 7.04 C 0 km/h
277 28-12-2003 00:00:00 7.02333 C 5.58 g/m*3 7.02 C 0 km/h
278 29-12-2003 00:00:00 1.82917 C 3.79 g/m*3 1.83 C 0 km/h
279 30-12-2003 00:00:00 -1.70333 C 3.6 g/m*3 -1.7 C 0 km/h
280 31-12-2003 00:00:00 -1.04017 C 3.54 g/m*3 -1.04 C 0 km/h
281 01-01-2004 00:00:00 -2.37115 C 3.12 g/m*3 -2.37 C 0 km/h
282 02-01-2004 00:00:00 -2.12212 C 2.04 g/m*3 -2.12 C 0 km/h
283 03-01-2004 00:00:00 -5.68621 C 2.3 g/m*3 -5.69 C 0 km/h
284 04-01-2004 00:00:00 -2.61969 C 2.92 g/m*3 -2.62 C 0 km/h
285 05-01-2004 00:00:00 1.15917 C 4.37 g/m*3 1.16 C 0 km/h
286 06-01-2004 00:00:00 2.9925 C 5.17 g/m*3 2.99 C 0 km/h
287 07-01-2004 00:00:00 5.665 C 5.73 g/m*3 5.67 C 0 km/h
288 08-01-2004 00:00:00 4.4437 C 5.17 g/m*3 4.44 C 0 km/h
289 09-01-2004 00:00:00 5.33898 C 5.6 g/m*3 5.34 C 0 km/h
290 10-01-2004 00:00:00 4.62667 C 4.95 g/m*3 4.63 C 0 km/h
291 11-01-2004 00:00:00 9.1975 C 6.62 g/m*3 9.2 C 0 km/h
292 12-01-2004 00:00:00 5.775 C 5.22 g/m*3 5.78 C 0 km/h
293 13-01-2004 00:00:00 7.80083 C 5.69 g/m*3 7.8 C 0 km/h
294 14-01-2004 00:00:00 5.86667 C 4.58 g/m*3 5.87 C 0 km/h
295 15-01-2004 00:00:00 4.12083 C 4.51 g/m*3 4.12 C 0 km/h
296 16-01-2004 00:00:00 5.9575 C 4.71 g/m*3 5.96 C 0 km/h
297 17-01-2004 00:00:00 4.54333 C 4.53 g/m*3 4.54 C 0 km/h
298 18-01-2004 00:00:00 2.49583 C 3.96 g/m*3 2.5 C 0 km/h
299 19-01-2004 00:00:00 0.56471 C 3.91 g/m*3 0.56 C 0 km/h
300 20-01-2004 00:00:00 4.19833 C 4.81 g/m*3 4.2 C 0 km/h
Sensor: Nr:Datum:Temp:Abs-Feuchte:Windchill:Wind:
Aussen-T/F 301 21-01-2004 00:00:00 0.6125 C 3.15 g/m*3 0.61 C 0 km/h
302 22-01-2004 00:00:00 -0.92333 C 3.11 g/m*3 -0.92 C 0 km/h
303 23-01-2004 00:00:00 -0.45583 C 3 g/m*3 -0.46 C 0 km/h
304 24-01-2004 00:00:00 -0.8575 C 3.11 g/m*3 -0.86 C 0 km/h
305 25-01-2004 00:00:00 2.03167 C 4.55 g/m*3 2.03 C 0 km/h
306 26-01-2004 00:00:00 1.7325 C 3.9 g/m*3 1.73 C 0 km/h
307 27-01-2004 00:00:00 0.47583 C 3.24 g/m*3 0.48 C 0 km/h
308 28-01-2004 00:00:00 0.665 C 3.39 g/m*3 0.67 C 0 km/h
309 29-01-2004 00:00:00 0.295 C 3.5 g/m*3 0.3 C 0 km/h
310 30-01-2004 00:00:00 0.67083 C 3 g/m*3 0.67 C 0 km/h
311 31-01-2004 00:00:00 6.21597 C 4.37 g/m*3 6.22 C 0 km/h
312 01-02-2004 00:00:00 11.11083 C 5.85 g/m*3 11.11 C 0 km/h
313 02-02-2004 00:00:00 11.24083 C 6.81 g/m*3 11.24 C 0 km/h
314 03-02-2004 00:00:00 11.46 C 6.4 g/m*3 11.46 C 0 km/h
315 04-02-2004 00:00:00 12.275 C 5.56 g/m*3 12.28 C 0 km/h
316 05-02-2004 00:00:00 12.8325 C 5.77 g/m*3 12.83 C 0 km/h
317 06-02-2004 00:00:00 13.52417 C 5.92 g/m*3 13.52 C 0 km/h
318 07-02-2004 00:00:00 9.05417 C 4.41 g/m*3 9.05 C 0 km/h
319 08-02-2004 00:00:00 4.03583 C 4.28 g/m*3 4.04 C 0 km/h
320 09-02-2004 00:00:00 3.1225 C 3.69 g/m*3 3.12 C 0 km/h
321 10-02-2004 00:00:00 2.2525 C 3.66 g/m*3 2.25 C 0 km/h
322 11-02-2004 00:00:00 5.42417 C 5.62 g/m*3 5.42 C 0 km/h
323 12-02-2004 00:00:00 3.90932 C 4.01 g/m*3 3.91 C 0 km/h
324 13-02-2004 00:00:00 5.5876 C 5.33 g/m*3 5.59 C 0 km/h
325 14-02-2004 00:00:00 6.88083 C 5.67 g/m*3 6.88 C 0 km/h
Sensor: Nr:Datum:Temp:Abs-Feuchte:Windchill:Wind:
Aussen-T/F 326 15-02-2004 00:00:00 6.2625 C 5.4 g/m*3 6.26 C 0 km/h
327 16-02-2004 00:00:00 5.3425 C 4.83 g/m*3 5.34 C 0 km/h
328 17-02-2004 00:00:00 3.33417 C 4.18 g/m*3 3.33 C 0 km/h
329 18-02-2004 00:00:00 4.05167 C 4.09 g/m*3 4.05 C 0 km/h
330 19-02-2004 00:00:00 1.21833 C 3.08 g/m*3 1.22 C 0 km/h
331 20-02-2004 00:00:00 2.01417 C 2.7 g/m*3 2.01 C 0 km/h
332 21-02-2004 00:00:00 1.18 C 2.9 g/m*3 1.18 C 0 km/h
333 22-02-2004 00:00:00 1.965 C 3.3 g/m*3 1.97 C 0 km/h
334 23-02-2004 00:00:00 0.45868 C 3 g/m*3 0.46 C 0 km/h
335 24-02-2004 00:00:00 -0.95167 C 2.8 g/m*3 -0.95 C 0 km/h
336 25-02-2004 00:00:00 1.34583 C 3.91 g/m*3 1.35 C 0 km/h
337 26-02-2004 00:00:00 -0.21417 C 3.08 g/m*3 -0.21 C 0 km/h
338 27-02-2004 00:00:00 -1.6575 C 2.58 g/m*3 -1.66 C 0 km/h
339 28-02-2004 00:00:00 0.15508 C 2.64 g/m*3 0.16 C 0 km/h
340 29-02-2004 00:00:00 -1.085 C 2.65 g/m*3 -1.09 C 0 km/h
341 01-03-2004 00:00:00 -0.13417 C 2.61 g/m*3 -0.13 C 0 km/h
342 02-03-2004 00:00:00 3.0575 C 3.76 g/m*3 3.06 C 0 km/h
343 03-03-2004 00:00:00 3.86667 C 3.33 g/m*3 3.87 C 0 km/h
344 04-03-2004 00:00:00 3.09 C 3.39 g/m*3 3.09 C 0 km/h
345 05-03-2004 00:00:00 3.3075 C 2.85 g/m*3 3.31 C 0 km/h
346 06-03-2004 00:00:00 1.425 C 4.24 g/m*3 1.43 C 0 km/h
347 07-03-2004 00:00:00 3.68583 C 4.59 g/m*3 3.69 C 0 km/h
348 08-03-2004 00:00:00 4.06167 C 3.66 g/m*3 4.06 C 0 km/h
349 09-03-2004 00:00:00 1.66333 C 3.41 g/m*3 1.66 C 0 km/h
350 10-03-2004 00:00:00 0.88 C 3.88 g/m*3 0.88 C 0 km/h
Sensor: Nr:Datum:Temp:Abs-Feuchte:Windchill:Wind:
Aussen-T/F 351 11-03-2004 00:00:00 1.12857 C 4.05 g/m*3 1.13 C 0 km/h
352 12-03-2004 00:00:00 3.4975 C 3.96 g/m*3 3.5 C 0 km/h
353 13-03-2004 00:00:00 9.25417 C 5.28 g/m*3 9.25 C 0 km/h
354 14-03-2004 00:00:00 9.66417 C 4.9 g/m*3 9.66 C 0 km/h
355 15-03-2004 00:00:00 11.64167 C 5.22 g/m*3 11.64 C 0 km/h
356 16-03-2004 00:00:00 12.85583 C 6.54 g/m*3 12.86 C 0 km/h
357 17-03-2004 00:00:00 12.58333 C 6.62 g/m*3 12.58 C 0 km/h
358 18-03-2004 00:00:00 14.18 C 7.14 g/m*3 14.18 C 0 km/h
359 19-03-2004 00:00:00 12.33333 C 6.93 g/m*3 12.33 C 0 km/h
360 20-03-2004 00:00:00 12.1875 C 7.53 g/m*3 12.19 C 0 km/h
361 21-03-2004 00:00:00 9.85583 C 5.92 g/m*3 9.86 C 0 km/h
362 22-03-2004 00:00:00 6.47917 C 5.54 g/m*3 6.48 C 0 km/h
363 23-03-2004 00:00:00 5.15966 C 5.49 g/m*3 5.16 C 0 km/h
364 24-03-2004 00:00:00 5.735 C 4.8 g/m*3 5.74 C 0 km/h
365 25-03-2004 00:00:00 4.39083 C 4.22 g/m*3 4.39 C 0 km/h
366 26-03-2004 00:00:00 2.8575 C 3.77 g/m*3 2.86 C 0 km/h
367 27-03-2004 00:00:00 2.76167 C 3.42 g/m*3 2.76 C 0 km/h
368 28-03-2004 00:00:00 4.98174 C 3.63 g/m*3 4.98 C 0 km/h
369 29-03-2004 00:00:00 7.27 C 4.13 g/m*3 7.27 C 0 km/h
370 30-03-2004 00:00:00 11.1075 C 4.45 g/m*3 11.11 C 0 km/h
371 31-03-2004 00:00:00 11.83 C 5.02 g/m*3 11.83 C 0 km/h
372 01-04-2004 00:00:00 14.11083 C 5.67 g/m*3 14.11 C 0 km/h
373 02-04-2004 00:00:00 13.71083 C 6.01 g/m*3 13.71 C 0 km/h
374 03-04-2004 00:00:00 12.5275 C 7.01 g/m*3 12.53 C 0 km/h
375 04-04-2004 00:00:00 12.14333 C 5.94 g/m*3 12.14 C 0 km/h
Sensor: Nr:Datum:Temp:Abs-Feuchte:Windchill:Wind:
Aussen-T/F 376 05-04-2004 00:00:00 8.31176 C 5.82 g/m*3 8.31 C 0 km/h
377 06-04-2004 00:00:00 6.33333 C 5.48 g/m*3 6.33 C 0 km/h
378 07-04-2004 00:00:00 5.33417 C 5.38 g/m*3 5.33 C 0 km/h
379 08-04-2004 00:00:00 6.565 C 5.43 g/m*3 6.57 C 0 km/h
380 09-04-2004 00:00:00 7.14583 C 5.29 g/m*3 7.15 C 0 km/h
381 10-04-2004 00:00:00 7.875 C 5.71 g/m*3 7.88 C 0 km/h
382 11-04-2004 00:00:00 7.40667 C 5.06 g/m*3 7.41 C 0 km/h
383 12-04-2004 00:00:00 8.5875 C 4.97 g/m*3 8.59 C 0 km/h
384 13-04-2004 00:00:00 10.13917 C 5.92 g/m*3 10.14 C 0 km/h
385 14-04-2004 00:00:00 11.98667 C 5.46 g/m*3 11.99 C 0 km/h
386 15-04-2004 00:00:00 11.55833 C 5.32 g/m*3 11.56 C 0 km/h
387 16-04-2004 00:00:00 14.20083 C 6.04 g/m*3 14.2 C 0 km/h
388 17-04-2004 00:00:00 14.72521 C 6.1 g/m*3 14.73 C 0 km/h
389 18-04-2004 00:00:00 12.97583 C 6.27 g/m*3 12.98 C 0 km/h
390 19-04-2004 00:00:00 10.14917 C 4.68 g/m*3 10.15 C 0 km/h
391 20-04-2004 00:00:00 10.01083 C 6.42 g/m*3 10.01 C 0 km/h
392 21-04-2004 00:00:00 14.15667 C 7.93 g/m*3 14.16 C 0 km/h
393 22-04-2004 00:00:00 16.29917 C 8.77 g/m*3 16.3 C 0 km/h
394 23-04-2004 00:00:00 13.10417 C 8.1 g/m*3 13.1 C 0 km/h
395 24-04-2004 00:00:00 12.5125 C 6.29 g/m*3 12.51 C 0 km/h
396 25-04-2004 00:00:00 12.58083 C 6.49 g/m*3 12.58 C 0 km/h
397 26-04-2004 00:00:00 14.825 C 6.6 g/m*3 14.83 C 0 km/h
398 27-04-2004 00:00:00 16.15917 C 7.23 g/m*3 16.16 C 0 km/h
399 28-04-2004 00:00:00 16.0125 C 8.73 g/m*3 16.01 C 0 km/h
400 29-04-2004 00:00:00 16.4958 C 9.99 g/m*3 16.5 C 0 km/h
Sensor: Nr:Datum:Temp:Abs-Feuchte:Windchill:Wind:
Aussen-T/F 401 30-04-2004 00:00:00 18.50167 C 9.7 g/m*3 18.5 C 0 km/h
402 01-05-2004 00:00:00 14.56639 C 10 g/m*3 14.57 C 0 km/h
403 02-05-2004 00:00:00 15.70083 C 8.35 g/m*3 15.7 C 0 km/h
404 03-05-2004 00:00:00 14.50667 C 7.67 g/m*3 14.51 C 0 km/h
405 04-05-2004 00:00:00 14.02167 C 7.33 g/m*3 14.02 C 0 km/h
406 05-05-2004 00:00:00 12.41083 C 5.81 g/m*3 12.41 C 0 km/h
407 06-05-2004 00:00:00 10.04167 C 6.93 g/m*3 10.04 C 0 km/h
408 07-05-2004 00:00:00 8.415 C 7.62 g/m*3 8.41 C 0 km/h
409 08-05-2004 00:00:00 7.58083 C 6.96 g/m*3 7.58 C 0 km/h
410 09-05-2004 00:00:00 10.3025 C 7.31 g/m*3 10.3 C 0 km/h
411 10-05-2004 00:00:00 12.86 C 8.86 g/m*3 12.86 C 0 km/h
412 11-05-2004 00:00:00 14.43866 C 8.64 g/m*3 14.44 C 0 km/h
413 12-05-2004 00:00:00 12.22583 C 6.55 g/m*3 12.23 C 0 km/h
414 13-05-2004 00:00:00 11.9225 C 6.73 g/m*3 11.92 C 0 km/h
415 14-05-2004 00:00:00 15.3875 C 7.71 g/m*3 15.39 C 0 km/h
416 15-05-2004 00:00:00 14.34333 C 7.71 g/m*3 14.34 C 0 km/h
417 16-05-2004 00:00:00 16.78167 C 8.21 g/m*3 16.78 C 0 km/h
418 17-05-2004 00:00:00 17.8875 C 8.72 g/m*3 17.89 C 0 km/h
419 18-05-2004 00:00:00 18.75917 C 8.84 g/m*3 18.76 C 0 km/h
420 19-05-2004 00:00:00 19.56 C 9.24 g/m*3 19.56 C 0 km/h
421 20-05-2004 00:00:00 19.53 C 8.61 g/m*3 19.53 C 0 km/h
422 21-05-2004 00:00:00 13.19833 C 8 g/m*3 13.2 C 0 km/h
423 22-05-2004 00:00:00 10.73083 C 5.07 g/m*3 10.73 C 0 km/h
424 23-05-2004 00:00:00 11.5479 C 5.05 g/m*3 11.55 C 0 km/h
425 24-05-2004 00:00:00 11.78 C 5.65 g/m*3 11.78 C 0 km/h
Sensor: Nr:Datum:Temp:Abs-Feuchte:Windchill:Wind:
Aussen-T/F 426 25-05-2004 00:00:00 14.72583 C 6.62 g/m*3 14.73 C 0 km/h
427 26-05-2004 00:00:00 14.9725 C 6.13 g/m*3 14.97 C 0 km/h
428 27-05-2004 00:00:00 12.81083 C 5.6 g/m*3 12.81 C 0 km/h
429 28-05-2004 00:00:00 13.97333 C 6.32 g/m*3 13.97 C 0 km/h
430 29-05-2004 00:00:00 17.0438 C 6.95 g/m*3 17.04 C 0 km/h
431 30-05-2004 00:00:00 18.69077 C 7.26 g/m*3 18.69 C 0 km/h
432 31-05-2004 00:00:00 15.58167 C 10.4 g/m*3 15.58 C 0 km/h
433 01-06-2004 00:00:00 16.40168 C 9.4 g/m*3 16.4 C 0 km/h
434 02-06-2004 00:00:00 14.86303 C 9.85 g/m*3 14.86 C 0 km/h
435 03-06-2004 00:00:00 16.36167 C 10.23 g/m*3 16.36 C 0 km/h
436 04-06-2004 00:00:00 13.82583 C 10.17 g/m*3 13.83 C 0 km/h
437 05-06-2004 00:00:00 14.33583 C 9.13 g/m*3 14.34 C 0 km/h
438 06-06-2004 00:00:00 16.84667 C 9.18 g/m*3 16.85 C 0 km/h
439 07-06-2004 00:00:00 20.69333 C 9.87 g/m*3 20.69 C 0 km/h
440 08-06-2004 00:00:00 23.6575 C 11.14 g/m*3 23.66 C 0 km/h
441 09-06-2004 00:00:00 24.735 C 13.13 g/m*3 24.74 C 0 km/h
442 10-06-2004 00:00:00 21.21417 C 14.55 g/m*3 21.21 C 0 km/h
443 11-06-2004 00:00:00 18.8725 C 12.84 g/m*3 18.87 C 0 km/h
444 12-06-2004 00:00:00 15.64417 C 9.74 g/m*3 15.64 C 0 km/h
445 13-06-2004 00:00:00 15.35042 C 9.24 g/m*3 15.35 C 0 km/h
446 14-06-2004 00:00:00 17.5175 C 9.03 g/m*3 17.52 C 0 km/h
447 15-06-2004 00:00:00 20.5725 C 10.96 g/m*3 20.57 C 0 km/h
448 16-06-2004 00:00:00 17.205 C 7.51 g/m*3 17.2 C 0 km/h
449 17-06-2004 00:00:00 18.3025 C 8.69 g/m*3 18.3 C 0 km/h
450 18-06-2004 00:00:00 15.54 C 9.61 g/m*3 15.54 C 0 km/h
Sensor: Nr:Datum:Temp:Abs-Feuchte:Windchill:Wind:
Aussen-T/F 451 19-06-2004 00:00:00 14.39167 C 8.28 g/m*3 14.39 C 0 km/h
452 20-06-2004 00:00:00 14.56583 C 7.37 g/m*3 14.57 C 0 km/h
453 21-06-2004 00:00:00 14.90333 C 8.02 g/m*3 14.9 C 0 km/h
454 22-06-2004 00:00:00 15.64583 C 10.33 g/m*3 15.65 C 0 km/h
455 23-06-2004 00:00:00 19.17083 C 10.61 g/m*3 19.17 C 0 km/h
456 24-06-2004 00:00:00 16.3775 C 7.16 g/m*3 16.38 C 0 km/h
457 25-06-2004 00:00:00 14.59167 C 7.8 g/m*3 14.59 C 0 km/h
458 26-06-2004 00:00:00 16.39328 C 8.74 g/m*3 16.39 C 0 km/h
459 27-06-2004 00:00:00 20.93475 C 11.55 g/m*3 20.93 C 0 km/h
460 28-06-2004 00:00:00 19.74667 C 7.96 g/m*3 19.75 C 0 km/h
461 29-06-2004 00:00:00 18.54833 C 8.3 g/m*3 18.55 C 0 km/h
462 30-06-2004 00:00:00 20.9875 C 9.12 g/m*3 20.99 C 0 km/h
463 01-07-2004 00:00:00 18.20084 C 8.16 g/m*3 18.2 C 0 km/h
464 02-07-2004 00:00:00 15.81417 C 9.1 g/m*3 15.81 C 0 km/h
465 03-07-2004 00:00:00 15.91333 C 8.88 g/m*3 15.91 C 0 km/h
466 04-07-2004 00:00:00 15.28 C 9.43 g/m*3 15.28 C 0 km/h
467 05-07-2004 00:00:00 18.50083 C 10.14 g/m*3 18.5 C 0 km/h
468 06-07-2004 00:00:00 19.60833 C 8.72 g/m*3 19.61 C 0 km/h
469 07-07-2004 00:00:00 18.90167 C 10.22 g/m*3 18.9 C 0 km/h
470 08-07-2004 00:00:00 18.76833 C 11.9 g/m*3 18.77 C 0 km/h
471 09-07-2004 00:00:00 15.12333 C 10.24 g/m*3 15.12 C 0 km/h
472 10-07-2004 00:00:00 14.9525 C 8.82 g/m*3 14.95 C 0 km/h
473 11-07-2004 00:00:00 14.95417 C 8.32 g/m*3 14.95 C 0 km/h
474 12-07-2004 00:00:00 14.17 C 9.42 g/m*3 14.17 C 0 km/h
475 13-07-2004 00:00:00 14.57815 C 8.55 g/m*3 14.58 C 0 km/h
Sensor: Nr:Datum:Temp:Abs-Feuchte:Windchill:Wind:
Aussen-T/F 476 14-07-2004 00:00:00 16.24083 C 9.35 g/m*3 16.24 C 0 km/h
477 15-07-2004 00:00:00 19.03167 C 12.77 g/m*3 19.03 C 0 km/h
478 16-07-2004 00:00:00 22.7475 C 12.5 g/m*3 22.75 C 0 km/h
479 17-07-2004 00:00:00 21.68 C 13.47 g/m*3 21.68 C 0 km/h
480 18-07-2004 00:00:00 19.98843 C 13.88 g/m*3 19.99 C 0 km/h
481 19-07-2004 00:00:00 21.74667 C 12.55 g/m*3 21.75 C 0 km/h
482 20-07-2004 00:00:00 19.855 C 12.88 g/m*3 19.86 C 0 km/h
483 21-07-2004 00:00:00 22.40083 C 13.38 g/m*3 22.4 C 0 km/h
484 22-07-2004 00:00:00 24.60504 C 14.07 g/m*3 24.61 C 0 km/h
485 23-07-2004 00:00:00 23.33 C 14.72 g/m*3 23.33 C 0 km/h
486 24-07-2004 00:00:00 22.0075 C 10.74 g/m*3 22.01 C 0 km/h
487 25-07-2004 00:00:00 18.13833 C 10.05 g/m*3 18.14 C 0 km/h
488 26-07-2004 00:00:00 16.53583 C 10.88 g/m*3 16.54 C 0 km/h
489 27-07-2004 00:00:00 18.31092 C 10.02 g/m*3 18.31 C 0 km/h
490 28-07-2004 00:00:00 20.28583 C 9.5 g/m*3 20.29 C 0 km/h
491 29-07-2004 00:00:00 21.75917 C 9.6 g/m*3 21.76 C 0 km/h
492 30-07-2004 00:00:00 22.845 C 10.59 g/m*3 22.85 C 0 km/h
493 31-07-2004 00:00:00 23.185 C 12.07 g/m*3 23.19 C 0 km/h
494 01-08-2004 00:00:00 23.30333 C 12.07 g/m*3 23.3 C 0 km/h
495 02-08-2004 00:00:00 23.80917 C 11.1 g/m*3 23.81 C 0 km/h
496 03-08-2004 00:00:00 24.1975 C 10.83 g/m*3 24.2 C 0 km/h
497 04-08-2004 00:00:00 23.40756 C 13.04 g/m*3 23.41 C 0 km/h
498 05-08-2004 00:00:00 25.28167 C 12.69 g/m*3 25.28 C 0 km/h
499 06-08-2004 00:00:00 25.0625 C 12.09 g/m*3 25.06 C 0 km/h
500 07-08-2004 00:00:00 24.03167 C 14.41 g/m*3 24.03 C 0 km/h
Sensor: Nr:Datum:Temp:Abs-Feuchte:Windchill:Wind:
Aussen-T/F 501 08-08-2004 00:00:00 24.36 C 13.84 g/m*3 24.36 C 0 km/h
502 09-08-2004 00:00:00 25.4775 C 10.89 g/m*3 25.48 C 0 km/h
503 10-08-2004 00:00:00 22.66333 C 11.69 g/m*3 22.66 C 0 km/h
504 11-08-2004 00:00:00 22.42804 C 14.99 g/m*3 22.43 C 0 km/h
505 12-08-2004 00:00:00 20.15417 C 13.25 g/m*3 20.15 C 0 km/h
506 13-08-2004 00:00:00 17.9625 C 11.42 g/m*3 17.96 C 0 km/h
507 14-08-2004 00:00:00 18.08333 C 12.27 g/m*3 18.08 C 0 km/h
508 15-08-2004 00:00:00 21.52708 C 11.93 g/m*3 21.53 C 0 km/h
509 16-08-2004 00:00:00 20.10625 C 12.61 g/m*3 20.11 C 0 km/h
510 17-08-2004 00:00:00 20.58958 C 13.87 g/m*3 20.59 C 0 km/h
511 18-08-2004 00:00:00 22.67292 C 13.2 g/m*3 22.67 C 0 km/h
512 19-08-2004 00:00:00 21.05417 C 11.68 g/m*3 21.05 C 0 km/h
513 20-08-2004 00:00:00 18.89583 C 10.4 g/m*3 18.9 C 0 km/h
514 21-08-2004 00:00:00 15.52708 C 10.53 g/m*3 15.53 C 0 km/h
515 22-08-2004 00:00:00 16.41042 C 9.01 g/m*3 16.41 C 0 km/h
516 23-08-2004 00:00:00 16.42708 C 10.17 g/m*3 16.43 C 0 km/h
517 24-08-2004 00:00:00 17.42083 C 11.51 g/m*3 17.42 C 0 km/h
518 25-08-2004 00:00:00 16.20847 C 10.15 g/m*3 16.21 C 0 km/h
519 26-08-2004 00:00:00 16.76083 C 9.98 g/m*3 16.76 C 0 km/h
520 27-08-2004 00:00:00 15.82269 C 9.42 g/m*3 15.82 C 0 km/h
521 28-08-2004 00:00:00 17.58 C 12.34 g/m*3 17.58 C 0 km/h
522 29-08-2004 00:00:00 18.84917 C 11.59 g/m*3 18.85 C 0 km/h
523 30-08-2004 00:00:00 15.81333 C 10.43 g/m*3 15.81 C 0 km/h
524 31-08-2004 00:00:00 14.84333 C 8.88 g/m*3 14.84 C 0 km/h
525 01-09-2004 00:00:00 15.91667 C 9.07 g/m*3 15.92 C 0 km/h
Sensor: Nr:Datum:Temp:Abs-Feuchte:Windchill:Wind:
Aussen-T/F 526 02-09-2004 00:00:00 17.21429 C 9.62 g/m*3 17.21 C 0 km/h
527 03-09-2004 00:00:00 20.0275 C 11.76 g/m*3 20.03 C 0 km/h
528 04-09-2004 00:00:00 21.15083 C 12.63 g/m*3 21.15 C 0 km/h
529 05-09-2004 00:00:00 21.63833 C 12.6 g/m*3 21.64 C 0 km/h
530 06-09-2004 00:00:00 20.35 C 10.92 g/m*3 20.35 C 0 km/h
531 07-09-2004 00:00:00 21.00167 C 11.07 g/m*3 21 C 0 km/h
532 08-09-2004 00:00:00 20.15294 C 10.46 g/m*3 20.15 C 0 km/h
533 09-09-2004 00:00:00 18.48167 C 8.08 g/m*3 18.48 C 0 km/h
534 10-09-2004 00:00:00 17.9825 C 8.26 g/m*3 17.98 C 0 km/h
535 11-09-2004 00:00:00 20.54583 C 12.35 g/m*3 20.55 C 0 km/h
536 12-09-2004 00:00:00 17.1475 C 9.04 g/m*3 17.15 C 0 km/h
537 13-09-2004 00:00:00 17.07 C 8.88 g/m*3 17.07 C 0 km/h
538 14-09-2004 00:00:00 17.45462 C 8.44 g/m*3 17.45 C 0 km/h
539 15-09-2004 00:00:00 14.54333 C 8.16 g/m*3 14.54 C 0 km/h
540 16-09-2004 00:00:00 12.64 C 7.27 g/m*3 12.64 C 0 km/h
541 17-09-2004 00:00:00 13.2175 C 7.39 g/m*3 13.22 C 0 km/h
542 18-09-2004 00:00:00 15.71667 C 8.66 g/m*3 15.72 C 0 km/h
543 19-09-2004 00:00:00 16.38 C 10.18 g/m*3 16.38 C 0 km/h
544 20-09-2004 00:00:00 13.69833 C 7.61 g/m*3 13.7 C 0 km/h
545 21-09-2004 00:00:00 15.01167 C 6.9 g/m*3 15.01 C 0 km/h
546 22-09-2004 00:00:00 12.50168 C 7.63 g/m*3 12.5 C 0 km/h
547 23-09-2004 00:00:00 13.44917 C 10.41 g/m*3 13.45 C 0 km/h
548 24-09-2004 00:00:00 12.08833 C 7.68 g/m*3 12.09 C 0 km/h
549 25-09-2004 00:00:00 12.41167 C 7.54 g/m*3 12.41 C 0 km/h
550 26-09-2004 00:00:00 12.71667 C 8.34 g/m*3 12.72 C 0 km/h
Sensor: Nr:Datum:Temp:Abs-Feuchte:Windchill:Wind:
Aussen-T/F 551 27-09-2004 00:00:00 13.985 C 9.75 g/m*3 13.99 C 0 km/h
552 28-09-2004 00:00:00 15.85833 C 10.38 g/m*3 15.86 C 0 km/h
553 29-09-2004 00:00:00 15.4525 C 8.97 g/m*3 15.45 C 0 km/h
554 30-09-2004 00:00:00 13.13583 C 8.54 g/m*3 13.14 C 0 km/h
555 01-10-2004 00:00:00 15.1775 C 9.42 g/m*3 15.18 C 0 km/h
556 02-10-2004 00:00:00 14.82333 C 9.08 g/m*3 14.82 C 0 km/h
557 03-10-2004 00:00:00 13.56417 C 8.33 g/m*3 13.56 C 0 km/h
558 04-10-2004 00:00:00 16.06303 C 9.8 g/m*3 16.06 C 0 km/h
559 05-10-2004 00:00:00 19.11667 C 11.19 g/m*3 19.12 C 0 km/h
560 06-10-2004 00:00:00 14.425 C 9.96 g/m*3 14.43 C 0 km/h
561 07-10-2004 00:00:00 11.63417 C 7.67 g/m*3 11.63 C 0 km/h
562 08-10-2004 00:00:00 9.55667 C 7.63 g/m*3 9.56 C 0 km/h
563 09-10-2004 00:00:00 10.71833 C 7.51 g/m*3 10.72 C 0 km/h
564 10-10-2004 00:00:00 9.49167 C 6.16 g/m*3 9.49 C 0 km/h
565 11-10-2004 00:00:00 8.54167 C 5.21 g/m*3 8.54 C 0 km/h
566 12-10-2004 00:00:00 8.30333 C 5.07 g/m*3 8.3 C 0 km/h
567 13-10-2004 00:00:00 9.11167 C 6.86 g/m*3 9.11 C 0 km/h
568 14-10-2004 00:00:00 11.28417 C 8.04 g/m*3 11.28 C 0 km/h
569 15-10-2004 00:00:00 10.13917 C 7.5 g/m*3 10.14 C 0 km/h
570 16-10-2004 00:00:00 7.7475 C 6.95 g/m*3 7.75 C 0 km/h
571 17-10-2004 00:00:00 8.67143 C 6.95 g/m*3 8.67 C 0 km/h
572 18-10-2004 00:00:00 9.92417 C 6.91 g/m*3 9.92 C 0 km/h
573 19-10-2004 00:00:00 8.205 C 7.02 g/m*3 8.21 C 0 km/h
574 20-10-2004 00:00:00 12.1075 C 9.58 g/m*3 12.11 C 0 km/h
575 21-10-2004 00:00:00 14.14083 C 8.35 g/m*3 14.14 C 0 km/h
Sensor: Nr:Datum:Temp:Abs-Feuchte:Windchill:Wind:
Aussen-T/F 576 22-10-2004 00:00:00 10.405 C 7.51 g/m*3 10.41 C 0 km/h
577 23-10-2004 00:00:00 14.51083 C 8.98 g/m*3 14.51 C 0 km/h
578 24-10-2004 00:00:00 15.26 C 10.21 g/m*3 15.26 C 0 km/h
579 25-10-2004 00:00:00 14.77917 C 8.83 g/m*3 14.78 C 0 km/h
580 26-10-2004 00:00:00 10.89917 C 7.87 g/m*3 10.9 C 0 km/h
581 27-10-2004 00:00:00 9.63083 C 7.31 g/m*3 9.63 C 0 km/h
582 28-10-2004 00:00:00 12.44833 C 8.74 g/m*3 12.45 C 0 km/h
583 29-10-2004 00:00:00 12.78908 C 9.56 g/m*3 12.79 C 0 km/h
584 30-10-2004 00:00:00 10.50417 C 8.76 g/m*3 10.5 C 0 km/h
585 31-10-2004 00:00:00 10.9848 C 8.21 g/m*3 10.98 C 0 km/h
586 01-11-2004 00:00:00 9.905 C 7.35 g/m*3 9.9 C 0 km/h
587 02-11-2004 00:00:00 10.325 C 7.68 g/m*3 10.33 C 0 km/h
588 03-11-2004 00:00:00 10.58917 C 8.6 g/m*3 10.59 C 0 km/h
589 04-11-2004 00:00:00 10.43417 C 9.03 g/m*3 10.43 C 0 km/h
590 05-11-2004 00:00:00 8.9725 C 6.72 g/m*3 8.97 C 0 km/h
591 06-11-2004 00:00:00 7.45417 C 6.76 g/m*3 7.45 C 0 km/h
592 07-11-2004 00:00:00 5.835 C 6.43 g/m*3 5.84 C 0 km/h
593 08-11-2004 00:00:00 3.9825 C 5.85 g/m*3 3.98 C 0 km/h
594 09-11-2004 00:00:00 2.1375 C 4.89 g/m*3 2.14 C 0 km/h
595 10-11-2004 00:00:00 1.37667 C 4.98 g/m*3 1.38 C 0 km/h
596 11-11-2004 00:00:00 3.1563 C 5.18 g/m*3 3.16 C 0 km/h
597 12-11-2004 00:00:00 4.21333 C 5.29 g/m*3 4.21 C 0 km/h
598 13-11-2004 00:00:00 4.75583 C 5.38 g/m*3 4.76 C 0 km/h
599 14-11-2004 00:00:00 3.52333 C 4.99 g/m*3 3.52 C 0 km/h
600 15-11-2004 00:00:00 2.90583 C 4.99 g/m*3 2.91 C 0 km/h
Sensor: Nr:Datum:Temp:Abs-Feuchte:Windchill:Wind:
Aussen-T/F 601 16-11-2004 00:00:00 6.5475 C 5.87 g/m*3 6.55 C 0 km/h
602 17-11-2004 00:00:00 9.91917 C 7.05 g/m*3 9.92 C 0 km/h
603 18-11-2004 00:00:00 9.40583 C 7.16 g/m*3 9.41 C 0 km/h
604 19-11-2004 00:00:00 3.91083 C 4.5 g/m*3 3.91 C 0 km/h
605 20-11-2004 00:00:00 2.23583 C 3.44 g/m*3 2.24 C 0 km/h
606 21-11-2004 00:00:00 0.33333 C 3.81 g/m*3 0.33 C 0 km/h
607 22-11-2004 00:00:00 8.65583 C 6.81 g/m*3 8.66 C 0 km/h
608 23-11-2004 00:00:00 7.97563 C 6.86 g/m*3 7.98 C 0 km/h
609 24-11-2004 00:00:00 1.78417 C 4.76 g/m*3 1.78 C 0 km/h
610 25-11-2004 00:00:00 -0.49667 C 4 g/m*3 -0.5 C 0 km/h
611 26-11-2004 00:00:00 3.6775 C 4.77 g/m*3 3.68 C 0 km/h
612 27-11-2004 00:00:00 7.69167 C 6.37 g/m*3 7.69 C 0 km/h
613 28-11-2004 00:00:00 8.34417 C 6.1 g/m*3 8.34 C 0 km/h
614 29-11-2004 00:00:00 5.86583 C 5.62 g/m*3 5.87 C 0 km/h
615 30-11-2004 00:00:00 2.81167 C 4.91 g/m*3 2.81 C 0 km/h
616 01-12-2004 00:00:00 4.71167 C 5.16 g/m*3 4.71 C 0 km/h
617 02-12-2004 00:00:00 4.24333 C 4.84 g/m*3 4.24 C 0 km/h
618 03-12-2004 00:00:00 3.0975 C 5.28 g/m*3 3.1 C 0 km/h
619 04-12-2004 00:00:00 1.99667 C 4.6 g/m*3 2 C 0 km/h
620 05-12-2004 00:00:00 1.255 C 4.17 g/m*3 1.25 C 0 km/h
621 06-12-2004 00:00:00 4.54622 C 5.31 g/m*3 4.55 C 0 km/h
622 07-12-2004 00:00:00 4.37667 C 4.85 g/m*3 4.38 C 0 km/h
623 08-12-2004 00:00:00 5.02833 C 5.01 g/m*3 5.03 C 0 km/h
624 09-12-2004 00:00:00 -0.1025 C 3.89 g/m*3 -0.1 C 0 km/h
625 10-12-2004 00:00:00 -3.5675 C 3.26 g/m*3 -3.57 C 0 km/h
Sensor: Nr:Datum:Temp:Abs-Feuchte:Windchill:Wind:
Aussen-T/F 626 11-12-2004 00:00:00 -2.575 C 3.5 g/m*3 -2.58 C 0 km/h
627 12-12-2004 00:00:00 -1.58833 C 3.25 g/m*3 -1.59 C 0 km/h
628 13-12-2004 00:00:00 -1.33917 C 3.22 g/m*3 -1.34 C 0 km/h
629 14-12-2004 00:00:00 -2.87083 C 3.12 g/m*3 -2.87 C 0 km/h
630 15-12-2004 00:00:00 -3.50917 C 3.26 g/m*3 -3.51 C 0 km/h
631 16-12-2004 00:00:00 -0.65333 C 4.04 g/m*3 -0.65 C 0 km/h
632 17-12-2004 00:00:00 5.17667 C 5.6 g/m*3 5.18 C 0 km/h
633 18-12-2004 00:00:00 3.6479 C 4.61 g/m*3 3.65 C 0 km/h
634 19-12-2004 00:00:00 1.25083 C 4.26 g/m*3 1.25 C 0 km/h
635 20-12-2004 00:00:00 -2.95667 C 3.26 g/m*3 -2.96 C 0 km/h
636 21-12-2004 00:00:00 -6.37167 C 2.46 g/m*3 -6.37 C 0 km/h
637 22-12-2004 00:00:00 -1.36667 C 3.44 g/m*3 -1.37 C 0 km/h
638 23-12-2004 00:00:00 5.19667 C 5.57 g/m*3 5.2 C 0 km/h
639 24-12-2004 00:00:00 8.21833 C 6.45 g/m*3 8.22 C 0 km/h
640 25-12-2004 00:00:00 6.31333 C 5.5 g/m*3 6.31 C 0 km/h
641 26-12-2004 00:00:00 1.5975 C 4.62 g/m*3 1.6 C 0 km/h
642 27-12-2004 00:00:00 1.34167 C 3.71 g/m*3 1.34 C 0 km/h
643 28-12-2004 00:00:00 0.25917 C 3.75 g/m*3 0.26 C 0 km/h
644 29-12-2004 00:00:00 2.37333 C 4.75 g/m*3 2.37 C 0 km/h
645 30-12-2004 00:00:00 3.3325 C 4.63 g/m*3 3.33 C 0 km/h
646 31-12-2004 00:00:00 6.41333 C 5.98 g/m*3 6.41 C 0 km/h
647 01-01-2005 00:00:00 7.80171 C 6.26 g/m*3 7.8 C 0 km/h
648 02-01-2005 00:00:00 5.9225 C 4.43 g/m*3 5.92 C 0 km/h
649 03-01-2005 00:00:00 4.92521 C 4.64 g/m*3 4.93 C 0 km/h
650 04-01-2005 00:00:00 5.78083 C 4.93 g/m*3 5.78 C 0 km/h
Sensor: Nr:Datum:Temp:Abs-Feuchte:Windchill:Wind:
Aussen-T/F 651 05-01-2005 00:00:00 4.83917 C 5.25 g/m*3 4.84 C 0 km/h
652 06-01-2005 00:00:00 6.5425 C 5.77 g/m*3 6.54 C 0 km/h
653 07-01-2005 00:00:00 10.02917 C 6.15 g/m*3 10.03 C 0 km/h
654 08-01-2005 00:00:00 9.30079 C 5.2 g/m*3 9.3 C 0 km/h
655 09-01-2005 00:00:00 6.9625 C 4.94 g/m*3 6.96 C 0 km/h
656 10-01-2005 00:00:00 10.83083 C 6.2 g/m*3 10.83 C 0 km/h
657 11-01-2005 00:00:00 9.06807 C 5.92 g/m*3 9.07 C 0 km/h
658 12-01-2005 00:00:00 8.70833 C 6.17 g/m*3 8.71 C 0 km/h
659 13-01-2005 00:00:00 4.19917 C 4.35 g/m*3 4.2 C 0 km/h
660 14-01-2005 00:00:00 1.69333 C 4.21 g/m*3 1.69 C 0 km/h
661 15-01-2005 00:00:00 -0.22583 C 3.87 g/m*3 -0.23 C 0 km/h
662 16-01-2005 00:00:00 -2.78333 C 3.26 g/m*3 -2.78 C 0 km/h
663 17-01-2005 00:00:00 2.64583 C 4.56 g/m*3 2.65 C 0 km/h
664 18-01-2005 00:00:00 4.8275 C 5.2 g/m*3 4.83 C 0 km/h
665 19-01-2005 00:00:00 3.46917 C 4.51 g/m*3 3.47 C 0 km/h
666 20-01-2005 00:00:00 8.7 C 6.22 g/m*3 8.7 C 0 km/h
667 21-01-2005 00:00:00 6.0475 C 4.06 g/m*3 6.05 C 0 km/h
668 22-01-2005 00:00:00 3.84167 C 4.3 g/m*3 3.84 C 0 km/h
669 23-01-2005 00:00:00 2.245 C 4.32 g/m*3 2.25 C 0 km/h
670 24-01-2005 00:00:00 -0.1275 C 3.31 g/m*3 -0.13 C 0 km/h
671 25-01-2005 00:00:00 -1.08333 C 2.78 g/m*3 -1.08 C 0 km/h
672 26-01-2005 00:00:00 -0.69496 C 2.53 g/m*3 -0.69 C 0 km/h
673 27-01-2005 00:00:00 -2.94167 C 2.65 g/m*3 -2.94 C 0 km/h
674 28-01-2005 00:00:00 -0.65417 C 3.36 g/m*3 -0.65 C 0 km/h
675 29-01-2005 00:00:00 -3.79333 C 2.57 g/m*3 -3.79 C 0 km/h
Sensor: Nr:Datum:Temp:Abs-Feuchte:Windchill:Wind:
Aussen-T/F 676 30-01-2005 00:00:00 -1.29083 C 3.07 g/m*3 -1.29 C 0 km/h
677 31-01-2005 00:00:00 3.05083 C 4.91 g/m*3 3.05 C 0 km/h
678 01-02-2005 00:00:00 3.62917 C 4.63 g/m*3 3.63 C 0 km/h
679 02-02-2005 00:00:00 4.28417 C 5.35 g/m*3 4.28 C 0 km/h
680 03-02-2005 00:00:00 5.17 C 5.38 g/m*3 5.17 C 0 km/h
681 04-02-2005 00:00:00 2.60917 C 4.59 g/m*3 2.61 C 0 km/h
682 05-02-2005 00:00:00 -0.30583 C 3.2 g/m*3 -0.31 C 0 km/h
683 06-02-2005 00:00:00 0.64333 C 2.99 g/m*3 0.64 C 0 km/h
684 07-02-2005 00:00:00 -0.38034 C 3.12 g/m*3 -0.38 C 0 km/h
685 08-02-2005 00:00:00 -0.04333 C 3.84 g/m*3 -0.04 C 0 km/h
686 09-02-2005 00:00:00 1.38333 C 4.21 g/m*3 1.38 C 0 km/h
687 10-02-2005 00:00:00 5.81917 C 5.24 g/m*3 5.82 C 0 km/h
688 11-02-2005 00:00:00 8.145 C 6.61 g/m*3 8.15 C 0 km/h
689 12-02-2005 00:00:00 9.7825 C 6.9 g/m*3 9.78 C 0 km/h
690 13-02-2005 00:00:00 3.3175 C 4.21 g/m*3 3.32 C 0 km/h
691 14-02-2005 00:00:00 1.97917 C 4.46 g/m*3 1.98 C 0 km/h
692 15-02-2005 00:00:00 0.3958 C 3.67 g/m*3 0.4 C 0 km/h
693 16-02-2005 00:00:00 -0.49083 C 3.08 g/m*3 -0.49 C 0 km/h
694 17-02-2005 00:00:00 -0.4075 C 2.88 g/m*3 -0.41 C 0 km/h
695 18-02-2005 00:00:00 -0.81333 C 2.67 g/m*3 -0.81 C 0 km/h
696 19-02-2005 00:00:00 0.64583 C 4.03 g/m*3 0.65 C 0 km/h
697 20-02-2005 00:00:00 1.39083 C 4.24 g/m*3 1.39 C 0 km/h
698 21-02-2005 00:00:00 1.055 C 4.1 g/m*3 1.06 C 0 km/h
699 22-02-2005 00:00:00 -0.25196 C 3.03 g/m*3 -0.25 C 0 km/h
700 23-02-2005 00:00:00 -1.68333 C 2.99 g/m*3 -1.68 C 0 km/h
Sensor: Nr:Datum:Temp:Abs-Feuchte:Windchill:Wind:
Aussen-T/F 701 24-02-2005 00:00:00 -1.31111 C 2.9 g/m*3 -1.31 C 0 km/h
702 25-02-2005 00:00:00 -2.17778 C 2.74 g/m*3 -2.18 C 0 km/h
703 26-02-2005 00:00:00 -0.5 C 3.46 g/m*3 -0.5 C 0 km/h
704 27-02-2005 00:00:00 -3.63472 C 2.28 g/m*3 -3.63 C 0 km/h
705 28-02-2005 00:00:00 -6.9625 C 1.63 g/m*3 -6.96 C 0 km/h
706 01-03-2005 00:00:00 -5.96528 C 1.39 g/m*3 -5.97 C 0 km/h
707 02-03-2005 00:00:00 -1.48056 C 1.75 g/m*3 -1.48 C 0 km/h
708 03-03-2005 00:00:00 -0.1375 C 2.18 g/m*3 -0.14 C 0 km/h
709 04-03-2005 00:00:00 -0.27982 C 2.64 g/m*3 -0.28 C 0 km/h
710 05-03-2005 00:00:00 -0.07014 C 3.18 g/m*3 -0.07 C 0 km/h
711 06-03-2005 00:00:00 -1.81042 C 2.3 g/m*3 -1.81 C 0 km/h
712 07-03-2005 00:00:00 1.11888 C 3.56 g/m*3 1.12 C 0 km/h
713 08-03-2005 00:00:00 3.91111 C 4.71 g/m*3 3.91 C 0 km/h
714 09-03-2005 00:00:00 3.77708 C 4.91 g/m*3 3.78 C 0 km/h
715 10-03-2005 00:00:00 4.05347 C 4.05 g/m*3 4.05 C 0 km/h
716 11-03-2005 00:00:00 2.94028 C 3.93 g/m*3 2.94 C 0 km/h
717 12-03-2005 00:00:00 2.99514 C 4.05 g/m*3 3 C 0 km/h
718 13-03-2005 00:00:00 4.81528 C 3.58 g/m*3 4.82 C 0 km/h
719 14-03-2005 00:00:00 5.70208 C 3.52 g/m*3 5.7 C 0 km/h
720 15-03-2005 00:00:00 7.14306 C 4.06 g/m*3 7.14 C 0 km/h
721 16-03-2005 00:00:00 12.97083 C 5.83 g/m*3 12.97 C 0 km/h
722 17-03-2005 00:00:00 14.52308 C 6.69 g/m*3 14.52 C 0 km/h
723 18-03-2005 00:00:00 14.71528 C 7.56 g/m*3 14.72 C 0 km/h
724 19-03-2005 00:00:00 13.49931 C 8.38 g/m*3 13.5 C 0 km/h
725 20-03-2005 00:00:00 11.45278 C 5.64 g/m*3 11.45 C 0 km/h
Sensor: Nr:Datum:Temp:Abs-Feuchte:Windchill:Wind:
Aussen-T/F 726 21-03-2005 00:00:00 9.87917 C 4.56 g/m*3 9.88 C 0 km/h
727 22-03-2005 00:00:00 11.33056 C 5.18 g/m*3 11.33 C 0 km/h
728 23-03-2005 00:00:00 14.70556 C 8.23 g/m*3 14.71 C 0 km/h
729 24-03-2005 00:00:00 12.16597 C 7.78 g/m*3 12.17 C 0 km/h
730 25-03-2005 00:00:00 13.2875 C 8.38 g/m*3 13.29 C 0 km/h
731 26-03-2005 00:00:00 12.16515 C 7.66 g/m*3 12.17 C 0 km/h
732 27-03-2005 00:00:00 12.68783 C 9.33 g/m*3 12.69 C 0 km/h
733 28-03-2005 00:00:00 12.38833 C 8.64 g/m*3 12.39 C 0 km/h
734 29-03-2005 00:00:00 13.05 C 8.2 g/m*3 13.05 C 0 km/h
735 30-03-2005 00:00:00 11.45917 C 8.8 g/m*3 11.46 C 0 km/h
736 31-03-2005 00:00:00 11.39 C 7.06 g/m*3 11.39 C 0 km/h
737 01-04-2005 00:00:00 10.41583 C 4.49 g/m*3 10.42 C 0 km/h
738 02-04-2005 00:00:00 10.82167 C 4.65 g/m*3 10.82 C 0 km/h
739 03-04-2005 00:00:00 12.61333 C 5.29 g/m*3 12.61 C 0 km/h
740 04-04-2005 00:00:00 13.35333 C 5.78 g/m*3 13.35 C 0 km/h
741 05-04-2005 00:00:00 11.55833 C 6.43 g/m*3 11.56 C 0 km/h
742 06-04-2005 00:00:00 10.38083 C 6.15 g/m*3 10.38 C 0 km/h
743 07-04-2005 00:00:00 12.06833 C 6.36 g/m*3 12.07 C 0 km/h
744 08-04-2005 00:00:00 7.8825 C 6.35 g/m*3 7.88 C 0 km/h
745 09-04-2005 00:00:00 5.93277 C 4.24 g/m*3 5.93 C 0 km/h
746 10-04-2005 00:00:00 7.76583 C 5.49 g/m*3 7.77 C 0 km/h
747 11-04-2005 00:00:00 10.6825 C 6.5 g/m*3 10.68 C 0 km/h
748 12-04-2005 00:00:00 11.34333 C 6.78 g/m*3 11.34 C 0 km/h
749 13-04-2005 00:00:00 12.79833 C 6.79 g/m*3 12.8 C 0 km/h
750 14-04-2005 00:00:00 13.26 C 6.74 g/m*3 13.26 C 0 km/h
Sensor: Nr:Datum:Temp:Abs-Feuchte:Windchill:Wind:
Aussen-T/F 751 15-04-2005 00:00:00 12.42583 C 7.07 g/m*3 12.43 C 0 km/h
752 16-04-2005 00:00:00 10.05167 C 7.71 g/m*3 10.05 C 0 km/h
753 17-04-2005 00:00:00 11.35583 C 8.37 g/m*3 11.36 C 0 km/h
754 18-04-2005 00:00:00 14.87083 C 7.91 g/m*3 14.87 C 0 km/h
755 19-04-2005 00:00:00 9.63167 C 8.13 g/m*3 9.63 C 0 km/h
756 20-04-2005 00:00:00 9.0325 C 7.01 g/m*3 9.03 C 0 km/h
757 21-04-2005 00:00:00 8.66134 C 4.72 g/m*3 8.66 C 0 km/h
758 22-04-2005 00:00:00 10.07 C 4.67 g/m*3 10.07 C 0 km/h
759 23-04-2005 00:00:00 10.6975 C 6 g/m*3 10.7 C 0 km/h
760 24-04-2005 00:00:00 14.47 C 8.87 g/m*3 14.47 C 0 km/h
761 25-04-2005 00:00:00 13.27583 C 9.86 g/m*3 13.28 C 0 km/h
762 26-04-2005 00:00:00 13.5575 C 8.22 g/m*3 13.56 C 0 km/h
763 27-04-2005 00:00:00 13.41667 C 7.37 g/m*3 13.42 C 0 km/h
764 28-04-2005 00:00:00 13.73417 C 6.84 g/m*3 13.73 C 0 km/h
765 29-04-2005 00:00:00 16.11 C 9.78 g/m*3 16.11 C 0 km/h
766 30-04-2005 00:00:00 20.35917 C 10.93 g/m*3 20.36 C 0 km/h
767 01-05-2005 00:00:00 21.73417 C 10.62 g/m*3 21.73 C 0 km/h
768 02-05-2005 00:00:00 20.5605 C 9.76 g/m*3 20.56 C 0 km/h
769 03-05-2005 00:00:00 17.2475 C 9.82 g/m*3 17.25 C 0 km/h
770 04-05-2005 00:00:00 12.76667 C 9.48 g/m*3 12.77 C 0 km/h
771 05-05-2005 00:00:00 12.50167 C 6.8 g/m*3 12.5 C 0 km/h
772 06-05-2005 00:00:00 11.26583 C 6.39 g/m*3 11.27 C 0 km/h
773 07-05-2005 00:00:00 8.97167 C 6.69 g/m*3 8.97 C 0 km/h
774 08-05-2005 00:00:00 7.88333 C 6.03 g/m*3 7.88 C 0 km/h
775 09-05-2005 00:00:00 8.5025 C 5.83 g/m*3 8.5 C 0 km/h
Sensor: Nr:Datum:Temp:Abs-Feuchte:Windchill:Wind:
Aussen-T/F 776 10-05-2005 00:00:00 9.0275 C 5.44 g/m*3 9.03 C 0 km/h
777 11-05-2005 00:00:00 10.67 C 5.6 g/m*3 10.67 C 0 km/h
778 12-05-2005 00:00:00 12.34917 C 5.9 g/m*3 12.35 C 0 km/h
779 13-05-2005 00:00:00 13.33583 C 5.67 g/m*3 13.34 C 0 km/h
780 14-05-2005 00:00:00 11.34917 C 8.9 g/m*3 11.35 C 0 km/h
781 15-05-2005 00:00:00 10.61176 C 7.06 g/m*3 10.61 C 0 km/h
782 16-05-2005 00:00:00 12.49 C 7.4 g/m*3 12.49 C 0 km/h
783 17-05-2005 00:00:00 10.19 C 6.48 g/m*3 10.19 C 0 km/h
784 18-05-2005 00:00:00 9.50333 C 5.38 g/m*3 9.5 C 0 km/h
785 19-05-2005 00:00:00 13.98667 C 6.1 g/m*3 13.99 C 0 km/h
786 20-05-2005 00:00:00 18.82 C 7.84 g/m*3 18.82 C 0 km/h
787 21-05-2005 00:00:00 17.09333 C 10.54 g/m*3 17.09 C 0 km/h
788 22-05-2005 00:00:00 16.69167 C 9.91 g/m*3 16.69 C 0 km/h
789 23-05-2005 00:00:00 15.47 C 8.81 g/m*3 15.47 C 0 km/h
790 24-05-2005 00:00:00 15.2125 C 7.47 g/m*3 15.21 C 0 km/h
791 25-05-2005 00:00:00 20.55083 C 9.07 g/m*3 20.55 C 0 km/h
792 26-05-2005 00:00:00 23.19417 C 10.55 g/m*3 23.19 C 0 km/h
793 27-05-2005 00:00:00 25.4563 C 11.26 g/m*3 25.46 C 0 km/h
794 28-05-2005 00:00:00 25.91333 C 11.84 g/m*3 25.91 C 0 km/h
795 29-05-2005 00:00:00 24.1375 C 9.98 g/m*3 24.14 C 0 km/h
796 30-05-2005 00:00:00 14.91167 C 10.28 g/m*3 14.91 C 0 km/h
797 31-05-2005 00:00:00 14.53333 C 7.22 g/m*3 14.53 C 0 km/h
798 01-06-2005 00:00:00 15.82667 C 7.19 g/m*3 15.83 C 0 km/h
799 02-06-2005 00:00:00 18.09167 C 8.27 g/m*3 18.09 C 0 km/h
800 03-06-2005 00:00:00 20.99667 C 10.8 g/m*3 21 C 0 km/h
Sensor: Nr:Datum:Temp:Abs-Feuchte:Windchill:Wind:
Aussen-T/F 801 04-06-2005 00:00:00 16.485 C 8.56 g/m*3 16.49 C 0 km/h
802 05-06-2005 00:00:00 14.8025 C 7.74 g/m*3 14.8 C 0 km/h
803 06-06-2005 00:00:00 15.25917 C 7.79 g/m*3 15.26 C 0 km/h
804 07-06-2005 00:00:00 12.26 C 5.02 g/m*3 12.26 C 0 km/h
805 08-06-2005 00:00:00 13.41429 C 6.24 g/m*3 13.41 C 0 km/h
806 09-06-2005 00:00:00 15.84167 C 6.69 g/m*3 15.84 C 0 km/h
807 10-06-2005 00:00:00 16.15833 C 7.12 g/m*3 16.16 C 0 km/h
808 11-06-2005 00:00:00 14.58 C 6.14 g/m*3 14.58 C 0 km/h
809 12-06-2005 00:00:00 14.0525 C 6.27 g/m*3 14.05 C 0 km/h
810 13-06-2005 00:00:00 17.27833 C 6.58 g/m*3 17.28 C 0 km/h
811 14-06-2005 00:00:00 16.55583 C 8.54 g/m*3 16.56 C 0 km/h
812 15-06-2005 00:00:00 20.05167 C 10.11 g/m*3 20.05 C 0 km/h
813 16-06-2005 00:00:00 21.46833 C 9.08 g/m*3 21.47 C 0 km/h
814 17-06-2005 00:00:00 21.405 C 12.17 g/m*3 21.41 C 0 km/h
815 18-06-2005 00:00:00 25.12583 C 10.68 g/m*3 25.13 C 0 km/h
816 19-06-2005 00:00:00 24.75417 C 8.2 g/m*3 24.75 C 0 km/h
817 20-06-2005 00:00:00 25.94538 C 10.02 g/m*3 25.95 C 0 km/h
818 21-06-2005 00:00:00 26.24583 C 10.89 g/m*3 26.25 C 0 km/h
819 22-06-2005 00:00:00 24.59333 C 9.45 g/m*3 24.59 C 0 km/h
820 23-06-2005 00:00:00 25.40417 C 9.9 g/m*3 25.4 C 0 km/h
821 24-06-2005 00:00:00 27.67167 C 10.61 g/m*3 27.67 C 0 km/h
822 25-06-2005 00:00:00 24.93083 C 12.35 g/m*3 24.93 C 0 km/h
823 26-06-2005 00:00:00 23.99833 C 11.73 g/m*3 24 C 0 km/h
824 27-06-2005 00:00:00 25.26083 C 10.77 g/m*3 25.26 C 0 km/h
825 28-06-2005 00:00:00 26.35917 C 9.96 g/m*3 26.36 C 0 km/h
Sensor: Nr:Datum:Temp:Abs-Feuchte:Windchill:Wind:
Aussen-T/F 826 29-06-2005 00:00:00 23.065 C 12.98 g/m*3 23.07 C 0 km/h
827 30-06-2005 00:00:00 20.43667 C 12.48 g/m*3 20.44 C 0 km/h
828 01-07-2005 00:00:00 18.08083 C 11.11 g/m*3 18.08 C 0 km/h
829 02-07-2005 00:00:00 19.26807 C 12.28 g/m*3 19.27 C 0 km/h
830 03-07-2005 00:00:00 24.03333 C 13.19 g/m*3 24.03 C 0 km/h
831 04-07-2005 00:00:00 21.58833 C 11.39 g/m*3 21.59 C 0 km/h
832 05-07-2005 00:00:00 17.17083 C 7.23 g/m*3 17.17 C 0 km/h
833 06-07-2005 00:00:00 16.24167 C 9.2 g/m*3 16.24 C 0 km/h
834 07-07-2005 00:00:00 14.92 C 9.47 g/m*3 14.92 C 0 km/h
835 08-07-2005 00:00:00 16.17583 C 9.49 g/m*3 16.18 C 0 km/h
836 09-07-2005 00:00:00 19.5375 C 9.84 g/m*3 19.54 C 0 km/h
837 10-07-2005 00:00:00 22.93917 C 10.79 g/m*3 22.94 C 0 km/h
838 11-07-2005 00:00:00 23.77333 C 10.84 g/m*3 23.77 C 0 km/h
839 12-07-2005 00:00:00 23.70667 C 11.85 g/m*3 23.71 C 0 km/h
840 13-07-2005 00:00:00 25.555 C 11.6 g/m*3 25.56 C 0 km/h
841 14-07-2005 00:00:00 25.76723 C 12.39 g/m*3 25.77 C 0 km/h
842 15-07-2005 00:00:00 25.0575 C 11.9 g/m*3 25.06 C 0 km/h
843 16-07-2005 00:00:00 23.73917 C 11.46 g/m*3 23.74 C 0 km/h
844 17-07-2005 00:00:00 23.48167 C 9.48 g/m*3 23.48 C 0 km/h
845 18-07-2005 00:00:00 22.98917 C 10.39 g/m*3 22.99 C 0 km/h
846 19-07-2005 00:00:00 19.165 C 10.11 g/m*3 19.17 C 0 km/h
847 20-07-2005 00:00:00 17.92333 C 9 g/m*3 17.92 C 0 km/h
848 21-07-2005 00:00:00 16.6875 C 8.29 g/m*3 16.69 C 0 km/h
849 22-07-2005 00:00:00 17.13833 C 8.74 g/m*3 17.14 C 0 km/h
850 23-07-2005 00:00:00 17.69 C 7.64 g/m*3 17.69 C 0 km/h
Sensor: Nr:Datum:Temp:Abs-Feuchte:Windchill:Wind:
Aussen-T/F 851 24-07-2005 00:00:00 17.87167 C 11.25 g/m*3 17.87 C 0 km/h
852 25-07-2005 00:00:00 20.895 C 11.75 g/m*3 20.9 C 0 km/h
853 26-07-2005 00:00:00 20.33361 C 10.75 g/m*3 20.33 C 0 km/h
854 27-07-2005 00:00:00 23.76 C 13.16 g/m*3 23.76 C 0 km/h
855 28-07-2005 00:00:00 25.00583 C 14.67 g/m*3 25.01 C 0 km/h
856 29-07-2005 00:00:00 23.18917 C 13.92 g/m*3 23.19 C 0 km/h
857 30-07-2005 00:00:00 20.03083 C 11.38 g/m*3 20.03 C 0 km/h
858 31-07-2005 00:00:00 17.3425 C 10.74 g/m*3 17.34 C 0 km/h
859 01-08-2005 00:00:00 19.36167 C 10.99 g/m*3 19.36 C 0 km/h
860 02-08-2005 00:00:00 19.71 C 9.16 g/m*3 19.71 C 0 km/h
861 03-08-2005 00:00:00 18.86917 C 8.93 g/m*3 18.87 C 0 km/h
862 04-08-2005 00:00:00 17.4025 C 8.67 g/m*3 17.4 C 0 km/h
863 05-08-2005 00:00:00 16.13083 C 9.86 g/m*3 16.13 C 0 km/h
864 06-08-2005 00:00:00 16.02 C 9 g/m*3 16.02 C 0 km/h
865 07-08-2005 00:00:00 13.69412 C 8.11 g/m*3 13.69 C 0 km/h
866 08-08-2005 00:00:00 14.66667 C 8.88 g/m*3 14.67 C 0 km/h
867 09-08-2005 00:00:00 16.6775 C 8.55 g/m*3 16.68 C 0 km/h
868 10-08-2005 00:00:00 16.66083 C 7.5 g/m*3 16.66 C 0 km/h
869 11-08-2005 00:00:00 17.4125 C 9.48 g/m*3 17.41 C 0 km/h
870 12-08-2005 00:00:00 18.20917 C 11.32 g/m*3 18.21 C 0 km/h
871 13-08-2005 00:00:00 18.01833 C 8.84 g/m*3 18.02 C 0 km/h
872 14-08-2005 00:00:00 15.59833 C 10.51 g/m*3 15.6 C 0 km/h
873 15-08-2005 00:00:00 14.56583 C 11.02 g/m*3 14.57 C 0 km/h
874 16-08-2005 00:00:00 19.1575 C 11.13 g/m*3 19.16 C 0 km/h
875 17-08-2005 00:00:00 20.12333 C 10.72 g/m*3 20.12 C 0 km/h
Sensor: Nr:Datum:Temp:Abs-Feuchte:Windchill:Wind:
Aussen-T/F 876 18-08-2005 00:00:00 22.1825 C 11.42 g/m*3 22.18 C 0 km/h
877 19-08-2005 00:00:00 21.06975 C 12.52 g/m*3 21.07 C 0 km/h
878 20-08-2005 00:00:00 19.5825 C 10.72 g/m*3 19.58 C 0 km/h
879 21-08-2005 00:00:00 17.13083 C 11.35 g/m*3 17.13 C 0 km/h
880 22-08-2005 00:00:00 18.24 C 11.79 g/m*3 18.24 C 0 km/h
881 23-08-2005 00:00:00 19.4425 C 11.39 g/m*3 19.44 C 0 km/h
882 24-08-2005 00:00:00 18.79417 C 10.31 g/m*3 18.79 C 0 km/h
883 25-08-2005 00:00:00 16.47333 C 10.06 g/m*3 16.47 C 0 km/h
884 26-08-2005 00:00:00 15.255 C 8.61 g/m*3 15.26 C 0 km/h
885 27-08-2005 00:00:00 16.45083 C 9.03 g/m*3 16.45 C 0 km/h
886 28-08-2005 00:00:00 17.84083 C 9.36 g/m*3 17.84 C 0 km/h
887 29-08-2005 00:00:00 19.6675 C 10.08 g/m*3 19.67 C 0 km/h
888 30-08-2005 00:00:00 21.65667 C 10.92 g/m*3 21.66 C 0 km/h
889 31-08-2005 00:00:00 23.08403 C 11.54 g/m*3 23.08 C 0 km/h
890 01-09-2005 00:00:00 22.76917 C 12.16 g/m*3 22.77 C 0 km/h
891 02-09-2005 00:00:00 21.29917 C 11.95 g/m*3 21.3 C 0 km/h
892 03-09-2005 00:00:00 22.07899 C 11.2 g/m*3 22.08 C 0 km/h
893 04-09-2005 00:00:00 21.90417 C 10.62 g/m*3 21.9 C 0 km/h
894 05-09-2005 00:00:00 21.3675 C 9.49 g/m*3 21.37 C 0 km/h
895 06-09-2005 00:00:00 20.89417 C 10.71 g/m*3 20.89 C 0 km/h
896 07-09-2005 00:00:00 22.66167 C 11.44 g/m*3 22.66 C 0 km/h
897 08-09-2005 00:00:00 23.19833 C 12.14 g/m*3 23.2 C 0 km/h
898 09-09-2005 00:00:00 21.58833 C 12.69 g/m*3 21.59 C 0 km/h
899 10-09-2005 00:00:00 21.80833 C 12.68 g/m*3 21.81 C 0 km/h
900 11-09-2005 00:00:00 18.13 C 13.92 g/m*3 18.13 C 0 km/h
Sensor: Nr:Datum:Temp:Abs-Feuchte:Windchill:Wind:
Aussen-T/F 901 12-09-2005 00:00:00 16.6975 C 13.04 g/m*3 16.7 C 0 km/h
902 13-09-2005 00:00:00 17.45833 C 10.62 g/m*3 17.46 C 0 km/h
903 14-09-2005 00:00:00 16.755 C 10.01 g/m*3 16.76 C 0 km/h
904 15-09-2005 00:00:00 20.13361 C 11.35 g/m*3 20.13 C 0 km/h
905 16-09-2005 00:00:00 15.17311 C 9.68 g/m*3 15.17 C 0 km/h
906 17-09-2005 00:00:00 11.81667 C 6.67 g/m*3 11.82 C 0 km/h
907 18-09-2005 00:00:00 11.7875 C 6.82 g/m*3 11.79 C 0 km/h
908 19-09-2005 00:00:00 12.0719 C 6.68 g/m*3 12.07 C 0 km/h
909 20-09-2005 00:00:00 12.19583 C 7.15 g/m*3 12.2 C 0 km/h
910 21-09-2005 00:00:00 13.40667 C 7.66 g/m*3 13.41 C 0 km/h
911 22-09-2005 00:00:00 13.94833 C 8.1 g/m*3 13.95 C 0 km/h
912 23-09-2005 00:00:00 14.84667 C 8.74 g/m*3 14.85 C 0 km/h
913 24-09-2005 00:00:00 15.92583 C 9.59 g/m*3 15.93 C 0 km/h
914 25-09-2005 00:00:00 17.7325 C 10.47 g/m*3 17.73 C 0 km/h
915 26-09-2005 00:00:00 16.44083 C 9.46 g/m*3 16.44 C 0 km/h
916 27-09-2005 00:00:00 17.605 C 8.57 g/m*3 17.61 C 0 km/h
917 28-09-2005 00:00:00 15.42917 C 8.89 g/m*3 15.43 C 0 km/h
918 29-09-2005 00:00:00 12.91254 C 7.94 g/m*3 12.91 C 0 km/h
919 30-09-2005 00:00:00 12.29549 C 7.03 g/m*3 12.3 C 0 km/h
920 01-10-2005 00:00:00 12.61701 C 9.71 g/m*3 12.62 C 0 km/h
921 02-10-2005 00:00:00 10.70833 C 8.46 g/m*3 10.71 C 0 km/h
922 03-10-2005 00:00:00 11.3875 C 8.55 g/m*3 11.39 C 0 km/h
923 04-10-2005 00:00:00 14.26864 C 9.15 g/m*3 14.27 C 0 km/h
924 05-10-2005 00:00:00 16.7441 C 10.35 g/m*3 16.74 C 0 km/h
925 06-10-2005 00:00:00 16.68194 C 10.26 g/m*3 16.68 C 0 km/h
Sensor: Nr:Datum:Temp:Abs-Feuchte:Windchill:Wind:
Aussen-T/F 926 07-10-2005 00:00:00 14.36563 C 9.48 g/m*3 14.37 C 0 km/h
927 08-10-2005 00:00:00 13.06285 C 9.3 g/m*3 13.06 C 0 km/h
928 09-10-2005 00:00:00 14.51049 C 9.74 g/m*3 14.51 C 0 km/h
929 10-10-2005 00:00:00 15.84132 C 9.84 g/m*3 15.84 C 0 km/h
930 11-10-2005 00:00:00 13.49444 C 9.21 g/m*3 13.49 C 0 km/h
931 12-10-2005 00:00:00 13.54549 C 9.11 g/m*3 13.55 C 0 km/h
932 13-10-2005 00:00:00 12.36181 C 8.52 g/m*3 12.36 C 0 km/h
933 14-10-2005 00:00:00 11.9951 C 8.33 g/m*3 12 C 0 km/h
934 15-10-2005 00:00:00 11.45174 C 8.2 g/m*3 11.45 C 0 km/h
935 16-10-2005 00:00:00 10.83472 C 7.4 g/m*3 10.83 C 0 km/h
936 17-10-2005 00:00:00 8.28194 C 5.72 g/m*3 8.28 C 0 km/h
937 18-10-2005 00:00:00 8.65749 C 5.37 g/m*3 8.66 C 0 km/h
938 19-10-2005 00:00:00 7.00417 C 6.38 g/m*3 7 C 0 km/h
939 20-10-2005 00:00:00 11.25382 C 9.08 g/m*3 11.25 C 0 km/h
940 21-10-2005 00:00:00 14.43681 C 10.35 g/m*3 14.44 C 0 km/h
941 22-10-2005 00:00:00 15.54896 C 10.18 g/m*3 15.55 C 0 km/h
942 23-10-2005 00:00:00 14.24321 C 9.16 g/m*3 14.24 C 0 km/h
943 24-10-2005 00:00:00 12.10545 C 8.42 g/m*3 12.11 C 0 km/h
944 25-10-2005 00:00:00 15.69143 C 8.79 g/m*3 15.69 C 0 km/h
945 26-10-2005 00:00:00 16.07417 C 9.59 g/m*3 16.07 C 0 km/h
946 27-10-2005 00:00:00 14.98583 C 10.01 g/m*3 14.99 C 0 km/h
947 28-10-2005 00:00:00 16.07721 C 9.93 g/m*3 16.08 C 0 km/h
948 29-10-2005 00:00:00 13.94583 C 9.13 g/m*3 13.95 C 0 km/h
949 30-10-2005 00:00:00 12.71467 C 8.73 g/m*3 12.71 C 0 km/h
950 31-10-2005 00:00:00 13.11667 C 8.12 g/m*3 13.12 C 0 km/h
Sensor: Nr:Datum:Temp:Abs-Feuchte:Windchill:Wind:
Aussen-T/F 951 01-11-2005 00:00:00 12.41319 C 8.54 g/m*3 12.41 C 0 km/h
952 02-11-2005 00:00:00 10.43819 C 8.46 g/m*3 10.44 C 0 km/h
953 03-11-2005 00:00:00 14.78403 C 9.99 g/m*3 14.78 C 0 km/h
954 04-11-2005 00:00:00 13.39444 C 9.98 g/m*3 13.39 C 0 km/h
955 05-11-2005 00:00:00 8.99792 C 7.03 g/m*3 9 C 0 km/h
956 06-11-2005 00:00:00 9.96224 C 7.32 g/m*3 9.96 C 0 km/h
957 07-11-2005 00:00:00 8.03611 C 7.17 g/m*3 8.04 C 0 km/h
958 08-11-2005 00:00:00 10.35903 C 7.4 g/m*3 10.36 C 0 km/h
959 09-11-2005 00:00:00 7.83194 C 7.09 g/m*3 7.83 C 0 km/h
960 10-11-2005 00:00:00 9.97639 C 7.21 g/m*3 9.98 C 0 km/h
961 11-11-2005 00:00:00 9.26736 C 7.4 g/m*3 9.27 C 0 km/h
962 12-11-2005 00:00:00 7.83611 C 5.99 g/m*3 7.84 C 0 km/h
963 13-11-2005 00:00:00 9.98542 C 7.43 g/m*3 9.99 C 0 km/h
964 14-11-2005 00:00:00 7.76458 C 6.52 g/m*3 7.76 C 0 km/h
965 15-11-2005 00:00:00 6.09931 C 5.92 g/m*3 6.1 C 0 km/h
966 16-11-2005 00:00:00 5.71806 C 5.83 g/m*3 5.72 C 0 km/h
967 17-11-2005 00:00:00 4.69231 C 4.87 g/m*3 4.69 C 0 km/h
968 18-11-2005 00:00:00 3.75903 C 4.75 g/m*3 3.76 C 0 km/h
969 19-11-2005 00:00:00 1.67431 C 4.45 g/m*3 1.67 C 0 km/h
970 20-11-2005 00:00:00 1.75625 C 4.65 g/m*3 1.76 C 0 km/h
971 21-11-2005 00:00:00 4.09236 C 5.57 g/m*3 4.09 C 0 km/h
972 22-11-2005 00:00:00 -0.87778 C 3.96 g/m*3 -0.88 C 0 km/h
973 23-11-2005 00:00:00 0.84861 C 4.11 g/m*3 0.85 C 0 km/h
974 24-11-2005 00:00:00 2.37778 C 4.63 g/m*3 2.38 C 0 km/h
975 25-11-2005 00:00:00 1.54167 C 3.59 g/m*3 1.54 C 0 km/h
Sensor: Nr:Datum:Temp:Abs-Feuchte:Windchill:Wind:
Aussen-T/F 976 26-11-2005 00:00:00 2.46111 C 3.28 g/m*3 2.46 C 0 km/h
977 27-11-2005 00:00:00 2.30979 C 4.39 g/m*3 2.31 C 0 km/h
978 28-11-2005 00:00:00 1.92847 C 4.78 g/m*3 1.93 C 0 km/h
979 29-11-2005 00:00:00 2.30694 C 4.43 g/m*3 2.31 C 0 km/h
980 30-11-2005 00:00:00 2.00069 C 4.01 g/m*3 2 C 0 km/h
981 01-12-2005 00:00:00 0.41875 C 3.53 g/m*3 0.42 C 0 km/h
982 02-12-2005 00:00:00 0.22153 C 3.38 g/m*3 0.22 C 0 km/h
983 03-12-2005 00:00:00 3.82708 C 5.01 g/m*3 3.83 C 0 km/h
984 04-12-2005 00:00:00 7.05417 C 6.74 g/m*3 7.05 C 0 km/h
985 05-12-2005 00:00:00 6.35208 C 5.78 g/m*3 6.35 C 0 km/h
986 06-12-2005 00:00:00 4.99583 C 5.15 g/m*3 5 C 0 km/h
987 07-12-2005 00:00:00 4.93706 C 5.56 g/m*3 4.94 C 0 km/h
988 08-12-2005 00:00:00 4.74653 C 5.18 g/m*3 4.75 C 0 km/h
989 09-12-2005 00:00:00 3.66458 C 5.09 g/m*3 3.66 C 0 km/h
990 10-12-2005 00:00:00 -0.92292 C 3.78 g/m*3 -0.92 C 0 km/h
991 11-12-2005 00:00:00 -2.30069 C 3.46 g/m*3 -2.3 C 0 km/h
992 12-12-2005 00:00:00 1.72847 C 4.76 g/m*3 1.73 C 0 km/h
993 13-12-2005 00:00:00 1.28472 C 4.91 g/m*3 1.28 C 0 km/h
994 14-12-2005 00:00:00 3.84028 C 5.78 g/m*3 3.84 C 0 km/h
995 15-12-2005 00:00:00 5.59167 C 5.53 g/m*3 5.59 C 0 km/h
996 16-12-2005 00:00:00 6.09861 C 5.31 g/m*3 6.1 C 0 km/h
997 17-12-2005 00:00:00 1.45035 C 3.8 g/m*3 1.45 C 0 km/h
998 18-12-2005 00:00:00 1.59861 C 3.96 g/m*3 1.6 C 0 km/h
999 19-12-2005 00:00:00 1.45417 C 4.2 g/m*3 1.45 C 0 km/h
1000 20-12-2005 00:00:00 2.75347 C 4.64 g/m*3 2.75 C 0 km/h
Sensor: Nr:Datum:Temp:Abs-Feuchte:Windchill:Wind:
Aussen-T/F 1001 21-12-2005 00:00:00 2.23194 C 4.34 g/m*3 2.23 C 0 km/h
1002 22-12-2005 00:00:00 2.96875 C 5.07 g/m*3 2.97 C 0 km/h
1003 23-12-2005 00:00:00 4.89653 C 5.59 g/m*3 4.9 C 0 km/h
1004 24-12-2005 00:00:00 5.93264 C 5.56 g/m*3 5.93 C 0 km/h
1005 25-12-2005 00:00:00 4.13958 C 5.2 g/m*3 4.14 C 0 km/h
1006 26-12-2005 00:00:00 1.48403 C 4.21 g/m*3 1.48 C 0 km/h
1007 27-12-2005 00:00:00 -1.47413 C 3.38 g/m*3 -1.47 C 0 km/h
1008 28-12-2005 00:00:00 -1.48681 C 3.38 g/m*3 -1.49 C 0 km/h
1009 29-12-2005 00:00:00 -2.85486 C 2.99 g/m*3 -2.85 C 0 km/h
1010 30-12-2005 00:00:00 -3.14514 C 2.78 g/m*3 -3.15 C 0 km/h
1011 31-12-2005 00:00:00 2.82361 C 4.93 g/m*3 2.82 C 0 km/h
1012 01-01-2006 00:00:00 3.86319 C 5.09 g/m*3 3.86 C 0 km/h
1013 02-01-2006 00:00:00 3.13125 C 4.93 g/m*3 3.13 C 0 km/h
1014 03-01-2006 00:00:00 2.31597 C 4.43 g/m*3 2.32 C 0 km/h
1015 04-01-2006 00:00:00 0.29583 C 3.73 g/m*3 0.3 C 0 km/h
1016 05-01-2006 00:00:00 1.24306 C 3.66 g/m*3 1.24 C 0 km/h
1017 06-01-2006 00:00:00 -0.25035 C 4 g/m*3 -0.25 C 0 km/h
1018 07-01-2006 00:00:00 2.66181 C 4.44 g/m*3 2.66 C 0 km/h
1019 08-01-2006 00:00:00 2.09653 C 3.9 g/m*3 2.1 C 0 km/h
1020 09-01-2006 00:00:00 -2.41736 C 3.27 g/m*3 -2.42 C 0 km/h
1021 10-01-2006 00:00:00 -1.51736 C 3.25 g/m*3 -1.52 C 0 km/h
1022 11-01-2006 00:00:00 -1.95903 C 3.55 g/m*3 -1.96 C 0 km/h
1023 12-01-2006 00:00:00 1.79583 C 5.01 g/m*3 1.8 C 0 km/h
1024 13-01-2006 00:00:00 0.35972 C 3.83 g/m*3 0.36 C 0 km/h
1025 14-01-2006 00:00:00 -3.27639 C 3.12 g/m*3 -3.28 C 0 km/h
Sensor: Nr:Datum:Temp:Abs-Feuchte:Windchill:Wind:
Aussen-T/F 1026 15-01-2006 00:00:00 -4.27153 C 2.57 g/m*3 -4.27 C 0 km/h
1027 16-01-2006 00:00:00 -4.78951 C 2.59 g/m*3 -4.79 C 0 km/h
1028 17-01-2006 00:00:00 1.90278 C 4.54 g/m*3 1.9 C 0 km/h
1029 18-01-2006 00:00:00 3.8125 C 5.08 g/m*3 3.81 C 0 km/h
1030 19-01-2006 00:00:00 1.43403 C 4.72 g/m*3 1.43 C 0 km/h
1031 20-01-2006 00:00:00 6.2375 C 6 g/m*3 6.24 C 0 km/h
1032 21-01-2006 00:00:00 4.58889 C 5.24 g/m*3 4.59 C 0 km/h
1033 22-01-2006 00:00:00 1.08125 C 3.94 g/m*3 1.08 C 0 km/h
1034 23-01-2006 00:00:00 -5.20417 C 1.94 g/m*3 -5.2 C 0 km/h
1035 24-01-2006 00:00:00 -5.83542 C 1.92 g/m*3 -5.84 C 0 km/h
1036 25-01-2006 00:00:00 -3.80833 C 2.61 g/m*3 -3.81 C 0 km/h
1037 26-01-2006 00:00:00 -2.11818 C 3.16 g/m*3 -2.12 C 0 km/h
1038 27-01-2006 00:00:00 -5.44236 C 2.23 g/m*3 -5.44 C 0 km/h
1039 28-01-2006 00:00:00 -6.67986 C 2.22 g/m*3 -6.68 C 0 km/h
1040 29-01-2006 00:00:00 -6.29792 C 2.35 g/m*3 -6.3 C 0 km/h
1041 30-01-2006 00:00:00 -5.95139 C 2.43 g/m*3 -5.95 C 0 km/h
1042 31-01-2006 00:00:00 -3.30486 C 3.12 g/m*3 -3.3 C 0 km/h
1043 01-02-2006 00:00:00 -5.48333 C 2.52 g/m*3 -5.48 C 0 km/h
1044 02-02-2006 00:00:00 -6.16667 C 2.42 g/m*3 -6.17 C 0 km/h
1045 03-02-2006 00:00:00 -3.79931 C 2.72 g/m*3 -3.8 C 0 km/h
1046 04-02-2006 00:00:00 -0.85208 C 3.61 g/m*3 -0.85 C 0 km/h
1047 05-02-2006 00:00:00 -0.32867 C 3.81 g/m*3 -0.33 C 0 km/h
1048 06-02-2006 00:00:00 1.50903 C 4.7 g/m*3 1.51 C 0 km/h
1049 07-02-2006 00:00:00 3.74861 C 4.89 g/m*3 3.75 C 0 km/h
1050 08-02-2006 00:00:00 3.70208 C 4.95 g/m*3 3.7 C 0 km/h
Sensor: Nr:Datum:Temp:Abs-Feuchte:Windchill:Wind:
Aussen-T/F 1051 09-02-2006 00:00:00 2.29722 C 4.03 g/m*3 2.3 C 0 km/h
1052 10-02-2006 00:00:00 2.10979 C 4.24 g/m*3 2.11 C 0 km/h
1053 11-02-2006 00:00:00 1.21458 C 4.02 g/m*3 1.21 C 0 km/h
1054 12-02-2006 00:00:00 1.60694 C 3.21 g/m*3 1.61 C 0 km/h
1055 13-02-2006 00:00:00 2.60764 C 2.97 g/m*3 2.61 C 0 km/h
1056 14-02-2006 00:00:00 4.21597 C 4.26 g/m*3 4.22 C 0 km/h
1057 15-02-2006 00:00:00 6.17832 C 5.78 g/m*3 6.18 C 0 km/h
1058 16-02-2006 00:00:00 7.31736 C 6.23 g/m*3 7.32 C 0 km/h
1059 17-02-2006 00:00:00 6.0625 C 5.09 g/m*3 6.06 C 0 km/h
1060 18-02-2006 00:00:00 5.81389 C 5.1 g/m*3 5.81 C 0 km/h
1061 19-02-2006 00:00:00 7.08472 C 4.96 g/m*3 7.08 C 0 km/h
1062 20-02-2006 00:00:00 4.17917 C 5.28 g/m*3 4.18 C 0 km/h
1063 21-02-2006 00:00:00 3.04444 C 5.09 g/m*3 3.04 C 0 km/h
1064 22-02-2006 00:00:00 2.47639 C 3.64 g/m*3 2.48 C 0 km/h
1065 23-02-2006 00:00:00 1.36736 C 2.72 g/m*3 1.37 C 0 km/h
1066 24-02-2006 00:00:00 2.05972 C 2.88 g/m*3 2.06 C 0 km/h
1067 25-02-2006 00:00:00 0.46364 C 2.5 g/m*3 0.46 C 0 km/h
1068 26-02-2006 00:00:00 -1.08472 C 2.46 g/m*3 -1.08 C 0 km/h
1069 27-02-2006 00:00:00 -1.57569 C 3.19 g/m*3 -1.58 C 0 km/h
1070 28-02-2006 00:00:00 1.56806 C 4.03 g/m*3 1.57 C 0 km/h
1071 01-03-2006 00:00:00 0.10556 C 3.05 g/m*3 0.11 C 0 km/h
1072 02-03-2006 00:00:00 -0.25347 C 2.76 g/m*3 -0.25 C 0 km/h
1073 03-03-2006 00:00:00 -0.44722 C 3.59 g/m*3 -0.45 C 0 km/h
1074 04-03-2006 00:00:00 -0.87361 C 3.51 g/m*3 -0.87 C 0 km/h
1075 05-03-2006 00:00:00 -1.41944 C 3.13 g/m*3 -1.42 C 0 km/h
Sensor: Nr:Datum:Temp:Abs-Feuchte:Windchill:Wind:
Aussen-T/F 1076 06-03-2006 00:00:00 1.2125 C 3.34 g/m*3 1.21 C 0 km/h
1077 07-03-2006 00:00:00 2.11748 C 3.25 g/m*3 2.12 C 0 km/h
1078 08-03-2006 00:00:00 0.99722 C 3.99 g/m*3 1 C 0 km/h
1079 09-03-2006 00:00:00 8.02431 C 6.63 g/m*3 8.02 C 0 km/h
1080 10-03-2006 00:00:00 5.79931 C 4.67 g/m*3 5.8 C 0 km/h
1081 11-03-2006 00:00:00 1.7 C 4.29 g/m*3 1.7 C 0 km/h
1082 12-03-2006 00:00:00 -2.45556 C 1.99 g/m*3 -2.46 C 0 km/h
1083 13-03-2006 00:00:00 -1.82553 C 2.07 g/m*3 -1.83 C 0 km/h
1084 14-03-2006 00:00:00 -0.25972 C 2.33 g/m*3 -0.26 C 0 km/h
1085 15-03-2006 00:00:00 1.33333 C 2.81 g/m*3 1.33 C 0 km/h
1086 16-03-2006 00:00:00 2.07292 C 2.65 g/m*3 2.07 C 0 km/h
1087 17-03-2006 00:00:00 2.75175 C 3.25 g/m*3 2.75 C 0 km/h
1088 18-03-2006 00:00:00 3.75069 C 3.43 g/m*3 3.75 C 0 km/h
1089 19-03-2006 00:00:00 4.88056 C 3.93 g/m*3 4.88 C 0 km/h
1090 20-03-2006 00:00:00 4.13542 C 4.32 g/m*3 4.14 C 0 km/h
1091 21-03-2006 00:00:00 3.42222 C 5.01 g/m*3 3.42 C 0 km/h
1092 22-03-2006 00:00:00 4.52708 C 3.53 g/m*3 4.53 C 0 km/h
1093 23-03-2006 00:00:00 4.85694 C 2.84 g/m*3 4.86 C 0 km/h
1094 24-03-2006 00:00:00 5.28125 C 5.03 g/m*3 5.28 C 0 km/h
1095 25-03-2006 00:00:00 12.04861 C 7.85 g/m*3 12.05 C 0 km/h
1096 26-03-2006 00:00:00 15.02826 C 9.07 g/m*3 15.03 C 0 km/h
1097 27-03-2006 00:00:00 14.96319 C 8.44 g/m*3 14.96 C 0 km/h
1098 28-03-2006 00:00:00 11.67273 C 6.09 g/m*3 11.67 C 0 km/h
1099 29-03-2006 00:00:00 9.22222 C 5.78 g/m*3 9.22 C 0 km/h
1100 30-03-2006 00:00:00 11.31181 C 7.59 g/m*3 11.31 C 0 km/h
Sensor: Nr:Datum:Temp:Abs-Feuchte:Windchill:Wind:
Aussen-T/F 1101 31-03-2006 00:00:00 12.225 C 7.78 g/m*3 12.23 C 0 km/h
1102 01-04-2006 00:00:00 10.95 C 7.33 g/m*3 10.95 C 0 km/h
1103 02-04-2006 00:00:00 10.30347 C 6.71 g/m*3 10.3 C 0 km/h
1104 03-04-2006 00:00:00 9.04444 C 5.27 g/m*3 9.04 C 0 km/h
1105 04-04-2006 00:00:00 7.89306 C 4.31 g/m*3 7.89 C 0 km/h
1106 05-04-2006 00:00:00 5.38542 C 3.69 g/m*3 5.39 C 0 km/h
1107 06-04-2006 00:00:00 5.62847 C 3.78 g/m*3 5.63 C 0 km/h
1108 07-04-2006 00:00:00 7.78112 C 3.69 g/m*3 7.78 C 0 km/h
1109 08-04-2006 00:00:00 8.88681 C 3.81 g/m*3 8.89 C 0 km/h
1110 09-04-2006 00:00:00 9.54931 C 4.04 g/m*3 9.55 C 0 km/h
1111 10-04-2006 00:00:00 7.99444 C 3.73 g/m*3 7.99 C 0 km/h
1112 11-04-2006 00:00:00 6.56528 C 3.66 g/m*3 6.57 C 0 km/h
1113 12-04-2006 00:00:00 7.39167 C 5.46 g/m*3 7.39 C 0 km/h
1114 13-04-2006 00:00:00 7.97014 C 5.79 g/m*3 7.97 C 0 km/h
1115 14-04-2006 00:00:00 11.28681 C 7.12 g/m*3 11.29 C 0 km/h
1116 15-04-2006 00:00:00 12.20486 C 7.42 g/m*3 12.2 C 0 km/h
1117 16-04-2006 00:00:00 12.37986 C 7.33 g/m*3 12.38 C 0 km/h
1118 17-04-2006 00:00:00 11.4 C 7.54 g/m*3 11.4 C 0 km/h
1119 18-04-2006 00:00:00 10.37986 C 6.23 g/m*3 10.38 C 0 km/h
1120 19-04-2006 00:00:00 11.18264 C 5.43 g/m*3 11.18 C 0 km/h
1121 20-04-2006 00:00:00 12.16528 C 5.8 g/m*3 12.17 C 0 km/h
1122 21-04-2006 00:00:00 14.47622 C 6.36 g/m*3 14.48 C 0 km/h
1123 22-04-2006 00:00:00 13.62014 C 7.04 g/m*3 13.62 C 0 km/h
1124 23-04-2006 00:00:00 10.87639 C 6.01 g/m*3 10.88 C 0 km/h
1125 24-04-2006 00:00:00 15.40833 C 6.53 g/m*3 15.41 C 0 km/h
Sensor: Nr:Datum:Temp:Abs-Feuchte:Windchill:Wind:
Aussen-T/F 1126 25-04-2006 00:00:00 17.60972 C 7.26 g/m*3 17.61 C 0 km/h
1127 26-04-2006 00:00:00 15.22778 C 10.04 g/m*3 15.23 C 0 km/h
1128 27-04-2006 00:00:00 12.53611 C 8.58 g/m*3 12.54 C 0 km/h
1129 28-04-2006 00:00:00 10.85 C 5.75 g/m*3 10.85 C 0 km/h
1130 29-04-2006 00:00:00 7.53194 C 4.57 g/m*3 7.53 C 0 km/h
1131 30-04-2006 00:00:00 6.51389 C 5.5 g/m*3 6.51 C 0 km/h
1132 01-05-2006 00:00:00 8.32727 C 6.64 g/m*3 8.33 C 0 km/h
1133 02-05-2006 00:00:00 15.08819 C 7.52 g/m*3 15.09 C 0 km/h
1134 03-05-2006 00:00:00 18.44931 C 8.16 g/m*3 18.45 C 0 km/h
1135 04-05-2006 00:00:00 19.40278 C 8.14 g/m*3 19.4 C 0 km/h
1136 05-05-2006 00:00:00 20.21389 C 7.05 g/m*3 20.21 C 0 km/h
1137 06-05-2006 00:00:00 18.90069 C 6.51 g/m*3 18.9 C 0 km/h
1138 07-05-2006 00:00:00 19.45486 C 5.48 g/m*3 19.45 C 0 km/h
1139 08-05-2006 00:00:00 18.61667 C 6.18 g/m*3 18.62 C 0 km/h
1140 09-05-2006 00:00:00 18.27431 C 6.73 g/m*3 18.27 C 0 km/h
1141 10-05-2006 00:00:00 18.83194 C 8.46 g/m*3 18.83 C 0 km/h
1142 11-05-2006 00:00:00 19.10629 C 6.83 g/m*3 19.11 C 0 km/h
1143 12-05-2006 00:00:00 18.74583 C 6.68 g/m*3 18.75 C 0 km/h
1144 13-05-2006 00:00:00 16.36944 C 9.54 g/m*3 16.37 C 0 km/h
1145 14-05-2006 00:00:00 15.00278 C 8.64 g/m*3 15 C 0 km/h
1146 15-05-2006 00:00:00 16.62986 C 8.78 g/m*3 16.63 C 0 km/h
1147 16-05-2006 00:00:00 19.50347 C 9.69 g/m*3 19.5 C 0 km/h
1148 17-05-2006 00:00:00 17.91736 C 9.73 g/m*3 17.92 C 0 km/h
1149 18-05-2006 00:00:00 18.00347 C 10.26 g/m*3 18 C 0 km/h
1150 19-05-2006 00:00:00 14.40347 C 8.4 g/m*3 14.4 C 0 km/h
Sensor: Nr:Datum:Temp:Abs-Feuchte:Windchill:Wind:
Aussen-T/F 1151 20-05-2006 00:00:00 12.56853 C 7.83 g/m*3 12.57 C 0 km/h
1152 21-05-2006 00:00:00 15.07431 C 7.61 g/m*3 15.07 C 0 km/h
1153 22-05-2006 00:00:00 15.73472 C 8.94 g/m*3 15.73 C 0 km/h
1154 23-05-2006 00:00:00 12.35556 C 6.68 g/m*3 12.36 C 0 km/h
1155 24-05-2006 00:00:00 10.91667 C 6.68 g/m*3 10.92 C 0 km/h
1156 25-05-2006 00:00:00 11.81736 C 8.3 g/m*3 11.82 C 0 km/h
1157 26-05-2006 00:00:00 13.58681 C 10.19 g/m*3 13.59 C 0 km/h
1158 27-05-2006 00:00:00 16.75972 C 10.96 g/m*3 16.76 C 0 km/h
1159 28-05-2006 00:00:00 16.35 C 8.5 g/m*3 16.35 C 0 km/h
1160 29-05-2006 00:00:00 12.47431 C 7.16 g/m*3 12.47 C 0 km/h
1161 30-05-2006 00:00:00 9.24792 C 6.53 g/m*3 9.25 C 0 km/h
1162 31-05-2006 00:00:00 9.13776 C 6.51 g/m*3 9.14 C 0 km/h
1163 01-06-2006 00:00:00 9.43819 C 6.58 g/m*3 9.44 C 0 km/h
1164 02-06-2006 00:00:00 13.68056 C 6.85 g/m*3 13.68 C 0 km/h
1165 03-06-2006 00:00:00 13.95278 C 7.53 g/m*3 13.95 C 0 km/h
1166 04-06-2006 00:00:00 14.34514 C 6.93 g/m*3 14.35 C 0 km/h
1167 05-06-2006 00:00:00 14.45764 C 6.07 g/m*3 14.46 C 0 km/h
1168 06-06-2006 00:00:00 14.33472 C 6.42 g/m*3 14.33 C 0 km/h
1169 07-06-2006 00:00:00 16.37431 C 7.03 g/m*3 16.37 C 0 km/h
1170 08-06-2006 00:00:00 19.21736 C 7.78 g/m*3 19.22 C 0 km/h
1171 09-06-2006 00:00:00 21.24306 C 8.18 g/m*3 21.24 C 0 km/h
1172 10-06-2006 00:00:00 22.62098 C 8.87 g/m*3 22.62 C 0 km/h
1173 11-06-2006 00:00:00 23.39653 C 8.75 g/m*3 23.4 C 0 km/h
1174 12-06-2006 00:00:00 23.62431 C 8.32 g/m*3 23.62 C 0 km/h
1175 13-06-2006 00:00:00 25.05625 C 9.6 g/m*3 25.06 C 0 km/h
Sensor: Nr:Datum:Temp:Abs-Feuchte:Windchill:Wind:
Aussen-T/F 1176 14-06-2006 00:00:00 25.71667 C 10.84 g/m*3 25.72 C 0 km/h
1177 15-06-2006 00:00:00 22.39653 C 13.02 g/m*3 22.4 C 0 km/h
1178 16-06-2006 00:00:00 19.19792 C 9.2 g/m*3 19.2 C 0 km/h
1179 17-06-2006 00:00:00 19.55139 C 8.62 g/m*3 19.55 C 0 km/h
1180 18-06-2006 00:00:00 22.94931 C 11.05 g/m*3 22.95 C 0 km/h
1181 19-06-2006 00:00:00 22.18819 C 13.64 g/m*3 22.19 C 0 km/h
1182 20-06-2006 00:00:00 22.95524 C 12.6 g/m*3 22.96 C 0 km/h
1183 21-06-2006 00:00:00 22.61597 C 10.2 g/m*3 22.62 C 0 km/h
1184 22-06-2006 00:00:00 18.87222 C 7.76 g/m*3 18.87 C 0 km/h
1185 23-06-2006 00:00:00 18.88681 C 7.57 g/m*3 18.89 C 0 km/h
1186 24-06-2006 00:00:00 22.39792 C 8.91 g/m*3 22.4 C 0 km/h
1187 25-06-2006 00:00:00 23.4375 C 12.58 g/m*3 23.44 C 0 km/h
1188 26-06-2006 00:00:00 21.99097 C 12.21 g/m*3 21.99 C 0 km/h
1189 27-06-2006 00:00:00 19.64028 C 11.66 g/m*3 19.64 C 0 km/h
1190 28-06-2006 00:00:00 21.16111 C 10.45 g/m*3 21.16 C 0 km/h
1191 29-06-2006 00:00:00 21.06319 C 11.36 g/m*3 21.06 C 0 km/h
1192 30-06-2006 00:00:00 23.44545 C 11.46 g/m*3 23.45 C 0 km/h
1193 01-07-2006 00:00:00 24.6875 C 10.22 g/m*3 24.69 C 0 km/h
1194 02-07-2006 00:00:00 25.27986 C 9.46 g/m*3 25.28 C 0 km/h
1195 03-07-2006 00:00:00 25.22083 C 8.68 g/m*3 25.22 C 0 km/h
1196 04-07-2006 00:00:00 26.70278 C 10.21 g/m*3 26.7 C 0 km/h
1197 05-07-2006 00:00:00 26.28681 C 12.37 g/m*3 26.29 C 0 km/h
1198 06-07-2006 00:00:00 24.85278 C 12.2 g/m*3 24.85 C 0 km/h
1199 07-07-2006 00:00:00 22.81528 C 12.32 g/m*3 22.82 C 0 km/h
1200 08-07-2006 00:00:00 22.68958 C 13.01 g/m*3 22.69 C 0 km/h
Sensor: Nr:Datum:Temp:Abs-Feuchte:Windchill:Wind:
Aussen-T/F 1201 09-07-2006 00:00:00 23.57778 C 11.52 g/m*3 23.58 C 0 km/h
1202 10-07-2006 00:00:00 25.03147 C 10.68 g/m*3 25.03 C 0 km/h
1203 11-07-2006 00:00:00 23.91181 C 13.08 g/m*3 23.91 C 0 km/h
1204 12-07-2006 00:00:00 25.55625 C 13.47 g/m*3 25.56 C 0 km/h
1205 13-07-2006 00:00:00 26.02986 C 13.12 g/m*3 26.03 C 0 km/h
1206 14-07-2006 00:00:00 24.71389 C 8.97 g/m*3 24.71 C 0 km/h
1207 15-07-2006 00:00:00 23.42431 C 7.65 g/m*3 23.42 C 0 km/h
1208 16-07-2006 00:00:00 24.37639 C 8.1 g/m*3 24.38 C 0 km/h
1209 17-07-2006 00:00:00 25.54792 C 7.82 g/m*3 25.55 C 0 km/h
1210 18-07-2006 00:00:00 26.24722 C 8.99 g/m*3 26.25 C 0 km/h
1211 19-07-2006 00:00:00 27.43125 C 9.1 g/m*3 27.43 C 0 km/h
1212 20-07-2006 00:00:00 28.02797 C 9.35 g/m*3 28.03 C 0 km/h
1213 21-07-2006 00:00:00 28.09306 C 11.49 g/m*3 28.09 C 0 km/h
1214 22-07-2006 00:00:00 24.58125 C 12.7 g/m*3 24.58 C 0 km/h
1215 23-07-2006 00:00:00 26.09375 C 13.17 g/m*3 26.09 C 0 km/h
1216 24-07-2006 00:00:00 27.19236 C 11.15 g/m*3 27.19 C 0 km/h
1217 25-07-2006 00:00:00 28.08194 C 10.78 g/m*3 28.08 C 0 km/h
1218 26-07-2006 00:00:00 28.25208 C 11.87 g/m*3 28.25 C 0 km/h
1219 27-07-2006 00:00:00 25.83403 C 14.1 g/m*3 25.83 C 0 km/h
1220 28-07-2006 00:00:00 22.68264 C 14.34 g/m*3 22.68 C 0 km/h
1221 29-07-2006 00:00:00 24.07431 C 13.52 g/m*3 24.07 C 0 km/h
1222 30-07-2006 00:00:00 24.48392 C 12.14 g/m*3 24.48 C 0 km/h
1223 31-07-2006 00:00:00 23.2375 C 10.23 g/m*3 23.24 C 0 km/h
1224 01-08-2006 00:00:00 20.05625 C 10.27 g/m*3 20.06 C 0 km/h
1225 02-08-2006 00:00:00 16.51667 C 9.93 g/m*3 16.52 C 0 km/h
Sensor: Nr:Datum:Temp:Abs-Feuchte:Windchill:Wind:
Aussen-T/F 1226 03-08-2006 00:00:00 15.56111 C 9.83 g/m*3 15.56 C 0 km/h
1227 04-08-2006 00:00:00 19.03056 C 10.44 g/m*3 19.03 C 0 km/h
1228 05-08-2006 00:00:00 20.59514 C 10.71 g/m*3 20.6 C 0 km/h
1229 06-08-2006 00:00:00 21.40694 C 10.86 g/m*3 21.41 C 0 km/h
1230 07-08-2006 00:00:00 21.93056 C 10.07 g/m*3 21.93 C 0 km/h
1231 08-08-2006 00:00:00 19.79583 C 9.89 g/m*3 19.8 C 0 km/h
1232 09-08-2006 00:00:00 19.08322 C 9.32 g/m*3 19.08 C 0 km/h
1233 10-08-2006 00:00:00 15.04792 C 9.68 g/m*3 15.05 C 0 km/h
1234 11-08-2006 00:00:00 14.23611 C 9.74 g/m*3 14.24 C 0 km/h
1235 12-08-2006 00:00:00 15.08958 C 8.69 g/m*3 15.09 C 0 km/h
1236 13-08-2006 00:00:00 14.64514 C 9.18 g/m*3 14.65 C 0 km/h
1237 14-08-2006 00:00:00 14.16319 C 9.66 g/m*3 14.16 C 0 km/h
1238 15-08-2006 00:00:00 17.63333 C 10.27 g/m*3 17.63 C 0 km/h
1239 16-08-2006 00:00:00 17.65 C 10.87 g/m*3 17.65 C 0 km/h
1240 17-08-2006 00:00:00 20.9 C 11.79 g/m*3 20.9 C 0 km/h
1241 18-08-2006 00:00:00 19.10208 C 11.74 g/m*3 19.1 C 0 km/h
1242 19-08-2006 00:00:00 18.77343 C 11.44 g/m*3 18.77 C 0 km/h
1243 20-08-2006 00:00:00 18.10972 C 10.83 g/m*3 18.11 C 0 km/h
1244 21-08-2006 00:00:00 16.97292 C 10.27 g/m*3 16.97 C 0 km/h
1245 22-08-2006 00:00:00 16.96389 C 10.28 g/m*3 16.96 C 0 km/h
1246 23-08-2006 00:00:00 17.71319 C 10.25 g/m*3 17.71 C 0 km/h
1247 24-08-2006 00:00:00 16.95139 C 10.55 g/m*3 16.95 C 0 km/h
1248 25-08-2006 00:00:00 16.57778 C 11 g/m*3 16.58 C 0 km/h
1249 26-08-2006 00:00:00 16.86528 C 10.55 g/m*3 16.87 C 0 km/h
1250 27-08-2006 00:00:00 15.83681 C 10.94 g/m*3 15.84 C 0 km/h
Sensor: Nr:Datum:Temp:Abs-Feuchte:Windchill:Wind:
Aussen-T/F 1251 28-08-2006 00:00:00 13.83264 C 9.97 g/m*3 13.83 C 0 km/h
1252 29-08-2006 00:00:00 12.56713 C 8.65 g/m*3 12.57 C 0 km/h
1253 30-08-2006 00:00:00 13.16111 C 9.07 g/m*3 13.16 C 0 km/h
1254 31-08-2006 00:00:00 15.10417 C 8.8 g/m*3 15.1 C 0 km/h
1255 01-09-2006 00:00:00 20.10139 C 9.87 g/m*3 20.1 C 0 km/h
1256 02-09-2006 00:00:00 20.75 C 11 g/m*3 20.75 C 0 km/h
1257 03-09-2006 00:00:00 21.75069 C 12.12 g/m*3 21.75 C 0 km/h
1258 04-09-2006 00:00:00 22.06389 C 10.38 g/m*3 22.06 C 0 km/h
1259 05-09-2006 00:00:00 19.96458 C 11.3 g/m*3 19.96 C 0 km/h
1260 06-09-2006 00:00:00 21.68819 C 12.31 g/m*3 21.69 C 0 km/h
1261 07-09-2006 00:00:00 19.05694 C 11.44 g/m*3 19.06 C 0 km/h
1262 08-09-2006 00:00:00 16.55874 C 8.04 g/m*3 16.56 C 0 km/h
1263 09-09-2006 00:00:00 16.56458 C 8.18 g/m*3 16.56 C 0 km/h
1264 10-09-2006 00:00:00 18.675 C 9.16 g/m*3 18.68 C 0 km/h
1265 11-09-2006 00:00:00 20.64722 C 11.18 g/m*3 20.65 C 0 km/h
1266 12-09-2006 00:00:00 22.28889 C 12.16 g/m*3 22.29 C 0 km/h
1267 13-09-2006 00:00:00 22.18819 C 11.95 g/m*3 22.19 C 0 km/h
1268 14-09-2006 00:00:00 21.21806 C 11.23 g/m*3 21.22 C 0 km/h
1269 15-09-2006 00:00:00 21.27273 C 10.28 g/m*3 21.27 C 0 km/h
1270 16-09-2006 00:00:00 21.06759 C 11.67 g/m*3 21.07 C 0 km/h
1271 17-09-2006 00:00:00 18.62986 C 12.65 g/m*3 18.63 C 0 km/h
1272 18-09-2006 00:00:00 17.15903 C 12.29 g/m*3 17.16 C 0 km/h
1273 19-09-2006 00:00:00 16.75278 C 10.65 g/m*3 16.75 C 0 km/h
1274 20-09-2006 00:00:00 16.65139 C 9.61 g/m*3 16.65 C 0 km/h
1275 21-09-2006 00:00:00 18.26806 C 10.43 g/m*3 18.27 C 0 km/h
Sensor: Nr:Datum:Temp:Abs-Feuchte:Windchill:Wind:
Aussen-T/F 1276 22-09-2006 00:00:00 20.87413 C 10.57 g/m*3 20.87 C 0 km/h
1277 23-09-2006 00:00:00 20.17361 C 11.42 g/m*3 20.17 C 0 km/h
1278 24-09-2006 00:00:00 21.00903 C 11.38 g/m*3 21.01 C 0 km/h
1279 25-09-2006 00:00:00 18.50486 C 11.18 g/m*3 18.5 C 0 km/h
1280 26-09-2006 00:00:00 17.03056 C 11.32 g/m*3 17.03 C 0 km/h
1281 27-09-2006 00:00:00 17.04444 C 10.2 g/m*3 17.04 C 0 km/h
1282 28-09-2006 00:00:00 16.01042 C 9.81 g/m*3 16.01 C 0 km/h
1283 29-09-2006 00:00:00 17.325 C 10.7 g/m*3 17.33 C 0 km/h
1284 30-09-2006 00:00:00 17.09583 C 10.68 g/m*3 17.1 C 0 km/h
1285 01-10-2006 00:00:00 17.24406 C 11.46 g/m*3 17.24 C 0 km/h
1286 02-10-2006 00:00:00 15.91042 C 9.59 g/m*3 15.91 C 0 km/h
1287 03-10-2006 00:00:00 13.2126 C 10.47 g/m*3 13.21 C 0 km/h
1288 04-10-2006 00:00:00 13.01961 C 8.62 g/m*3 13.02 C 0 km/h
1289 05-10-2006 00:00:00 12.97647 C 7.92 g/m*3 12.98 C 0 km/h
1290 06-10-2006 00:00:00 15.82353 C 9.57 g/m*3 15.82 C 0 km/h
1291 07-10-2006 00:00:00 14.25769 C 8.26 g/m*3 14.26 C 0 km/h
1292 08-10-2006 00:00:00 11.08235 C 7.49 g/m*3 11.08 C 0 km/h
1293 09-10-2006 00:00:00 12.00192 C 8.16 g/m*3 12 C 0 km/h
1294 10-10-2006 00:00:00 15.38824 C 9.83 g/m*3 15.39 C 0 km/h
1295 11-10-2006 00:00:00 14.37885 C 9.66 g/m*3 14.38 C 0 km/h
1296 12-10-2006 00:00:00 15.54118 C 10.53 g/m*3 15.54 C 0 km/h
1297 13-10-2006 00:00:00 16.11765 C 11.21 g/m*3 16.12 C 0 km/h
1298 14-10-2006 00:00:00 14.12115 C 9.1 g/m*3 14.12 C 0 km/h
1299 15-10-2006 00:00:00 12.41569 C 8.17 g/m*3 12.42 C 0 km/h
1300 16-10-2006 00:00:00 9.56154 C 7.1 g/m*3 9.56 C 0 km/h
Sensor: Nr:Datum:Temp:Abs-Feuchte:Windchill:Wind:
Aussen-T/F 1301 17-10-2006 00:00:00 9.22745 C 7.11 g/m*3 9.23 C 0 km/h
1302 18-10-2006 00:00:00 11.90769 C 8.05 g/m*3 11.91 C 0 km/h
1303 19-10-2006 00:00:00 13.41961 C 9.54 g/m*3 13.42 C 0 km/h
1304 20-10-2006 00:00:00 15.83725 C 9.91 g/m*3 15.84 C 0 km/h
1305 21-10-2006 00:00:00 14.08553 C 10.16 g/m*3 14.09 C 0 km/h
1306 22-10-2006 00:00:00 15.405 C 9.54 g/m*3 15.41 C 0 km/h
1307 23-10-2006 00:00:00 17.22 C 11.01 g/m*3 17.22 C 0 km/h
1308 24-10-2006 00:00:00 14.19167 C 9.57 g/m*3 14.19 C 0 km/h
1309 25-10-2006 00:00:00 12.59167 C 8.45 g/m*3 12.59 C 0 km/h
1310 26-10-2006 00:00:00 16.50583 C 9.43 g/m*3 16.51 C 0 km/h
1311 27-10-2006 00:00:00 17.075 C 10.44 g/m*3 17.08 C 0 km/h
1312 28-10-2006 00:00:00 15.02083 C 10.11 g/m*3 15.02 C 0 km/h
1313 29-10-2006 00:00:00 15.9896 C 8.79 g/m*3 15.99 C 0 km/h
1314 30-10-2006 00:00:00 12.1575 C 7.78 g/m*3 12.16 C 0 km/h
1315 31-10-2006 00:00:00 10.23529 C 7.15 g/m*3 10.24 C 0 km/h
1316 01-11-2006 00:00:00 7.77167 C 4.9 g/m*3 7.77 C 0 km/h
1317 02-11-2006 00:00:00 3.03 C 5.06 g/m*3 3.03 C 0 km/h
1318 03-11-2006 00:00:00 5.84333 C 5.93 g/m*3 5.84 C 0 km/h
1319 04-11-2006 00:00:00 8.15833 C 6.41 g/m*3 8.16 C 0 km/h
1320 05-11-2006 00:00:00 9.14833 C 6.17 g/m*3 9.15 C 0 km/h
1321 06-11-2006 00:00:00 9.06833 C 6.39 g/m*3 9.07 C 0 km/h
1322 07-11-2006 00:00:00 7.04083 C 6.11 g/m*3 7.04 C 0 km/h
1323 08-11-2006 00:00:00 7.96417 C 6.49 g/m*3 7.96 C 0 km/h
1324 09-11-2006 00:00:00 9.81917 C 6.62 g/m*3 9.82 C 0 km/h
1325 10-11-2006 00:00:00 5.04917 C 5.59 g/m*3 5.05 C 0 km/h
Sensor: Nr:Datum:Temp:Abs-Feuchte:Windchill:Wind:
Aussen-T/F 1326 11-11-2006 00:00:00 6.26667 C 6.03 g/m*3 6.27 C 0 km/h
1327 12-11-2006 00:00:00 7.62353 C 5.75 g/m*3 7.62 C 0 km/h
1328 13-11-2006 00:00:00 8.9025 C 7.09 g/m*3 8.9 C 0 km/h
1329 14-11-2006 00:00:00 12.84083 C 9.06 g/m*3 12.84 C 0 km/h
1330 15-11-2006 00:00:00 12.90167 C 8.11 g/m*3 12.9 C 0 km/h
1331 16-11-2006 00:00:00 13.12 C 7.88 g/m*3 13.12 C 0 km/h
1332 17-11-2006 00:00:00 12.54333 C 8.13 g/m*3 12.54 C 0 km/h
1333 18-11-2006 00:00:00 9.73917 C 6.92 g/m*3 9.74 C 0 km/h
1334 19-11-2006 00:00:00 7.74083 C 7.39 g/m*3 7.74 C 0 km/h
1335 20-11-2006 00:00:00 6.5725 C 5.52 g/m*3 6.57 C 0 km/h
1336 21-11-2006 00:00:00 8.63583 C 6.49 g/m*3 8.64 C 0 km/h
1337 22-11-2006 00:00:00 6.01833 C 5.31 g/m*3 6.02 C 0 km/h
1338 23-11-2006 00:00:00 9.36083 C 7.72 g/m*3 9.36 C 0 km/h
1339 24-11-2006 00:00:00 10.1775 C 8.17 g/m*3 10.18 C 0 km/h
1340 25-11-2006 00:00:00 14.79583 C 7.59 g/m*3 14.8 C 0 km/h
1341 26-11-2006 00:00:00 10.72917 C 7.46 g/m*3 10.73 C 0 km/h
1342 27-11-2006 00:00:00 8.08083 C 7.39 g/m*3 8.08 C 0 km/h
1343 28-11-2006 00:00:00 7.2775 C 6.92 g/m*3 7.28 C 0 km/h
1344 29-11-2006 00:00:00 7.40583 C 7.46 g/m*3 7.41 C 0 km/h
1345 30-11-2006 00:00:00 6.29167 C 6.41 g/m*3 6.29 C 0 km/h
1346 01-12-2006 00:00:00 5.935 C 6.4 g/m*3 5.94 C 0 km/h
1347 02-12-2006 00:00:00 4.37083 C 6.16 g/m*3 4.37 C 0 km/h
1348 03-12-2006 00:00:00 10.00583 C 6.96 g/m*3 10.01 C 0 km/h
1349 04-12-2006 00:00:00 10.05042 C 6.32 g/m*3 10.05 C 0 km/h
1350 05-12-2006 00:00:00 14.25917 C 7.5 g/m*3 14.26 C 0 km/h
Sensor: Nr:Datum:Temp:Abs-Feuchte:Windchill:Wind:
Aussen-T/F 1351 06-12-2006 00:00:00 10.42667 C 6.11 g/m*3 10.43 C 0 km/h
1352 07-12-2006 00:00:00 8.7025 C 5.3 g/m*3 8.7 C 0 km/h
1353 08-12-2006 00:00:00 10.0975 C 6.14 g/m*3 10.1 C 0 km/h
1354 09-12-2006 00:00:00 7.6075 C 4.91 g/m*3 7.61 C 0 km/h
1355 10-12-2006 00:00:00 5.27833 C 4.83 g/m*3 5.28 C 0 km/h
1356 11-12-2006 00:00:00 5.05583 C 4.74 g/m*3 5.06 C 0 km/h
1357 12-12-2006 00:00:00 6.37333 C 5.29 g/m*3 6.37 C 0 km/h
1358 13-12-2006 00:00:00 6.9775 C 5.44 g/m*3 6.98 C 0 km/h
1359 14-12-2006 00:00:00 7.83083 C 5.4 g/m*3 7.83 C 0 km/h
1360 15-12-2006 00:00:00 3.2075 C 4.68 g/m*3 3.21 C 0 km/h
1361 16-12-2006 00:00:00 4.14333 C 5.23 g/m*3 4.14 C 0 km/h
1362 17-12-2006 00:00:00 3.69333 C 5.01 g/m*3 3.69 C 0 km/h
1363 18-12-2006 00:00:00 3.37917 C 5.38 g/m*3 3.38 C 0 km/h
1364 19-12-2006 00:00:00 3.70083 C 4.15 g/m*3 3.7 C 0 km/h
1365 20-12-2006 00:00:00 2.3425 C 4.1 g/m*3 2.34 C 0 km/h
1366 21-12-2006 00:00:00 4.7375 C 5.27 g/m*3 4.74 C 0 km/h
1367 22-12-2006 00:00:00 1.65 C 4.63 g/m*3 1.65 C 0 km/h
1368 23-12-2006 00:00:00 3.19244 C 4.47 g/m*3 3.19 C 0 km/h
1369 24-12-2006 00:00:00 0.1725 C 4.3 g/m*3 0.17 C 0 km/h
1370 25-12-2006 00:00:00 0.51583 C 4.15 g/m*3 0.52 C 0 km/h
1371 26-12-2006 00:00:00 0.8425 C 3.93 g/m*3 0.84 C 0 km/h
1372 27-12-2006 00:00:00 -1.28667 C 3.48 g/m*3 -1.29 C 0 km/h
1373 28-12-2006 00:00:00 0.405 C 3.88 g/m*3 0.41 C 0 km/h
1374 29-12-2006 00:00:00 1.22333 C 4.59 g/m*3 1.22 C 0 km/h
1375 30-12-2006 00:00:00 3.5575 C 5.12 g/m*3 3.56 C 0 km/h
Sensor: Nr:Datum:Temp:Abs-Feuchte:Windchill:Wind:
Aussen-T/F 1376 31-12-2006 00:00:00 10.37107 C 5.17 g/m*3 10.37 C 0 km/h
1377 01-01-2007 00:00:00 7.99664 C 5.44 g/m*3 8 C 0 km/h
1378 02-01-2007 00:00:00 4.33083 C 4.79 g/m*3 4.33 C 0 km/h
1379 03-01-2007 00:00:00 5.63417 C 5.28 g/m*3 5.63 C 0 km/h
1380 04-01-2007 00:00:00 7.7525 C 5.33 g/m*3 7.75 C 0 km/h
1381 05-01-2007 00:00:00 8.08667 C 5.69 g/m*3 8.09 C 0 km/h
1382 06-01-2007 00:00:00 10.50333 C 7.18 g/m*3 10.5 C 0 km/h
1383 07-01-2007 00:00:00 8.5725 C 5.21 g/m*3 8.57 C 0 km/h
1384 08-01-2007 00:00:00 9.32667 C 5.75 g/m*3 9.33 C 0 km/h
1385 09-01-2007 00:00:00 13.04333 C 7.07 g/m*3 13.04 C 0 km/h
1386 10-01-2007 00:00:00 11.54333 C 5.64 g/m*3 11.54 C 0 km/h
1387 11-01-2007 00:00:00 7.61933 C 4.64 g/m*3 7.62 C 0 km/h
1388 12-01-2007 00:00:00 9.0325 C 4.92 g/m*3 9.03 C 0 km/h
1389 13-01-2007 00:00:00 11.8175 C 6.14 g/m*3 11.82 C 0 km/h
1390 14-01-2007 00:00:00 7.55833 C 4.65 g/m*3 7.56 C 0 km/h
1391 15-01-2007 00:00:00 0.8725 C 4.34 g/m*3 0.87 C 0 km/h
1392 16-01-2007 00:00:00 5.06583 C 4.9 g/m*3 5.07 C 0 km/h
1393 17-01-2007 00:00:00 10.18333 C 6.05 g/m*3 10.18 C 0 km/h
1394 18-01-2007 00:00:00 12.41833 C 7.26 g/m*3 12.42 C 0 km/h
1395 19-01-2007 00:00:00 10.36667 C 6.21 g/m*3 10.37 C 0 km/h
1396 20-01-2007 00:00:00 11.68917 C 6.43 g/m*3 11.69 C 0 km/h
1397 21-01-2007 00:00:00 6.88167 C 3.9 g/m*3 6.88 C 0 km/h
1398 22-01-2007 00:00:00 4.26167 C 3.78 g/m*3 4.26 C 0 km/h
1399 23-01-2007 00:00:00 -1.075 C 1.21 g/m*3 -1.08 C 0 km/h
1400 24-01-2007 00:00:00 -2.97 C 1.85 g/m*3 -2.97 C 0 km/h
Sensor: Nr:Datum:Temp:Abs-Feuchte:Windchill:Wind:
Aussen-T/F 1401 25-01-2007 00:00:00 -3.4825 C 2.25 g/m*3 -3.48 C 0 km/h
1402 26-01-2007 00:00:00 -3.23083 C 2.24 g/m*3 -3.23 C 0 km/h
1403 27-01-2007 00:00:00 2.77 C 3.92 g/m*3 2.77 C 0 km/h
1404 28-01-2007 00:00:00 4.49917 C 4.21 g/m*3 4.5 C 0 km/h
1405 29-01-2007 00:00:00 7.0175 C 5.25 g/m*3 7.02 C 0 km/h
1406 30-01-2007 00:00:00 6.84917 C 5.2 g/m*3 6.85 C 0 km/h
1407 31-01-2007 00:00:00 6.82583 C 4.18 g/m*3 6.83 C 0 km/h
1408 01-02-2007 00:00:00 7.76667 C 5.68 g/m*3 7.77 C 0 km/h
1409 02-02-2007 00:00:00 8.26583 C 6.84 g/m*3 8.27 C 0 km/h
1410 03-02-2007 00:00:00 6.285 C 4.67 g/m*3 6.29 C 0 km/h
1411 04-02-2007 00:00:00 5.90667 C 4.74 g/m*3 5.91 C 0 km/h
1412 05-02-2007 00:00:00 2.19664 C 4.27 g/m*3 2.2 C 0 km/h
1413 06-02-2007 00:00:00 3.33417 C 4.06 g/m*3 3.33 C 0 km/h
1414 07-02-2007 00:00:00 1.63417 C 4.12 g/m*3 1.63 C 0 km/h
1415 08-02-2007 00:00:00 2.62167 C 4.23 g/m*3 2.62 C 0 km/h
1416 09-02-2007 00:00:00 5.79167 C 3.84 g/m*3 5.79 C 0 km/h
1417 10-02-2007 00:00:00 5.48667 C 5.34 g/m*3 5.49 C 0 km/h
1418 11-02-2007 00:00:00 7.70667 C 5.71 g/m*3 7.71 C 0 km/h
1419 12-02-2007 00:00:00 8.33083 C 5.62 g/m*3 8.33 C 0 km/h
1420 13-02-2007 00:00:00 7.8175 C 4.79 g/m*3 7.82 C 0 km/h
1421 14-02-2007 00:00:00 5.82083 C 5.14 g/m*3 5.82 C 0 km/h
1422 15-02-2007 00:00:00 7.37917 C 4.4 g/m*3 7.38 C 0 km/h
1423 16-02-2007 00:00:00 4.61583 C 4.23 g/m*3 4.62 C 0 km/h
1424 17-02-2007 00:00:00 4.92083 C 3.9 g/m*3 4.92 C 0 km/h
1425 18-02-2007 00:00:00 3.4775 C 4.32 g/m*3 3.48 C 0 km/h
Sensor: Nr:Datum:Temp:Abs-Feuchte:Windchill:Wind:
Aussen-T/F 1426 19-02-2007 00:00:00 5.4675 C 4.34 g/m*3 5.47 C 0 km/h
1427 20-02-2007 00:00:00 7.09583 C 4.63 g/m*3 7.1 C 0 km/h
1428 21-02-2007 00:00:00 5.63083 C 4.98 g/m*3 5.63 C 0 km/h
1429 22-02-2007 00:00:00 7.10583 C 5.19 g/m*3 7.11 C 0 km/h
1430 23-02-2007 00:00:00 9.02333 C 5.53 g/m*3 9.02 C 0 km/h
1431 24-02-2007 00:00:00 8.47917 C 6.6 g/m*3 8.48 C 0 km/h
1432 25-02-2007 00:00:00 7.975 C 5.55 g/m*3 7.98 C 0 km/h
1433 26-02-2007 00:00:00 6.53667 C 5.43 g/m*3 6.54 C 0 km/h
1434 27-02-2007 00:00:00 6.38333 C 4.96 g/m*3 6.38 C 0 km/h
1435 28-02-2007 00:00:00 10.44667 C 5.35 g/m*3 10.45 C 0 km/h
1436 01-03-2007 00:00:00 9.04667 C 5.11 g/m*3 9.05 C 0 km/h
1437 02-03-2007 00:00:00 6.77917 C 3.71 g/m*3 6.78 C 0 km/h
1438 03-03-2007 00:00:00 6.66639 C 4.88 g/m*3 6.67 C 0 km/h
1439 04-03-2007 00:00:00 7.69833 C 4.83 g/m*3 7.7 C 0 km/h
1440 05-03-2007 00:00:00 10.24667 C 4.19 g/m*3 10.25 C 0 km/h
1441 06-03-2007 00:00:00 9.76083 C 4.14 g/m*3 9.76 C 0 km/h
1442 07-03-2007 00:00:00 9.16417 C 4.96 g/m*3 9.16 C 0 km/h
1443 08-03-2007 00:00:00 7.035 C 4.54 g/m*3 7.04 C 0 km/h
1444 09-03-2007 00:00:00 6.3175 C 4.84 g/m*3 6.32 C 0 km/h
1445 10-03-2007 00:00:00 7.155 C 4.37 g/m*3 7.16 C 0 km/h
1446 11-03-2007 00:00:00 7.3175 C 4.45 g/m*3 7.32 C 0 km/h
1447 12-03-2007 00:00:00 8.52833 C 4.75 g/m*3 8.53 C 0 km/h
1448 13-03-2007 00:00:00 9.0475 C 5.4 g/m*3 9.05 C 0 km/h
1449 14-03-2007 00:00:00 10.57395 C 5.78 g/m*3 10.57 C 0 km/h
1450 15-03-2007 00:00:00 8.44333 C 5.18 g/m*3 8.44 C 0 km/h
Sensor: Nr:Datum:Temp:Abs-Feuchte:Windchill:Wind:
Aussen-T/F 1451 16-03-2007 00:00:00 7.8175 C 5.18 g/m*3 7.82 C 0 km/h
1452 17-03-2007 00:00:00 8.70833 C 6.38 g/m*3 8.71 C 0 km/h
1453 18-03-2007 00:00:00 7.715 C 5.51 g/m*3 7.72 C 0 km/h
1454 19-03-2007 00:00:00 4.56333 C 4 g/m*3 4.56 C 0 km/h
1455 20-03-2007 00:00:00 4.1325 C 4.47 g/m*3 4.13 C 0 km/h
1456 21-03-2007 00:00:00 4.47417 C 4.53 g/m*3 4.47 C 0 km/h
1457 22-03-2007 00:00:00 2.25667 C 5.17 g/m*3 2.26 C 0 km/h
1458 23-03-2007 00:00:00 3.37333 C 5.31 g/m*3 3.37 C 0 km/h
1459 24-03-2007 00:00:00 5.37333 C 6.27 g/m*3 5.37 C 0 km/h
1460 25-03-2007 00:00:00 8.58101 C 5.72 g/m*3 8.58 C 0 km/h
1461 26-03-2007 00:00:00 14.9957 C 4.93 g/m*3 15 C 0 km/h
1462 27-03-2007 00:00:00 11.65 C 4.69 g/m*3 11.65 C 0 km/h
1463 28-03-2007 00:00:00 11.65313 C 4.21 g/m*3 11.65 C 0 km/h
1464 29-03-2007 00:00:00 9.75 C 5.52 g/m*3 9.75 C 0 km/h
1465 30-03-2007 00:00:00 10.73785 C 6.65 g/m*3 10.74 C 0 km/h
1466 31-03-2007 00:00:00 10.49618 C 6.1 g/m*3 10.5 C 0 km/h
1467 01-04-2007 00:00:00 13.71707 C 4.51 g/m*3 13.72 C 0 km/h
1468 02-04-2007 00:00:00 13.59583 C 4.59 g/m*3 13.6 C 0 km/h
1469 03-04-2007 00:00:00 8.94861 C 4.81 g/m*3 8.95 C 0 km/h
1470 04-04-2007 00:00:00 9.66076 C 3.85 g/m*3 9.66 C 0 km/h
1471 05-04-2007 00:00:00 8.81528 C 4.24 g/m*3 8.82 C 0 km/h
1472 06-04-2007 00:00:00 12.12431 C 6.2 g/m*3 12.12 C 0 km/h
1473 07-04-2007 00:00:00 9.61533 C 5.4 g/m*3 9.62 C 0 km/h
1474 08-04-2007 00:00:00 9.79306 C 5.37 g/m*3 9.79 C 0 km/h
1475 09-04-2007 00:00:00 11.52465 C 5.47 g/m*3 11.52 C 0 km/h
Sensor: Nr:Datum:Temp:Abs-Feuchte:Windchill:Wind:
Aussen-T/F 1476 10-04-2007 00:00:00 11.94688 C 6.26 g/m*3 11.95 C 0 km/h
1477 11-04-2007 00:00:00 10.93697 C 6.87 g/m*3 10.94 C 0 km/h
1478 12-04-2007 00:00:00 16.75 C 7.24 g/m*3 16.75 C 0 km/h
1479 13-04-2007 00:00:00 19.17708 C 8 g/m*3 19.18 C 0 km/h
1480 14-04-2007 00:00:00 21.16042 C 7.77 g/m*3 21.16 C 0 km/h
1481 15-04-2007 00:00:00 20.80833 C 7.27 g/m*3 20.81 C 0 km/h
1482 16-04-2007 00:00:00 19.4375 C 6.62 g/m*3 19.44 C 0 km/h
1483 17-04-2007 00:00:00 14.74271 C 6.57 g/m*3 14.74 C 0 km/h
1484 18-04-2007 00:00:00 11.07188 C 4.76 g/m*3 11.07 C 0 km/h
1485 19-04-2007 00:00:00 11.67188 C 5.25 g/m*3 11.67 C 0 km/h
1486 20-04-2007 00:00:00 12.26458 C 4.91 g/m*3 12.26 C 0 km/h
1487 21-04-2007 00:00:00 11.89271 C 4.5 g/m*3 11.89 C 0 km/h
1488 22-04-2007 00:00:00 15.65729 C 5.54 g/m*3 15.66 C 0 km/h
1489 23-04-2007 00:00:00 17.48021 C 6.48 g/m*3 17.48 C 0 km/h
1490 24-04-2007 00:00:00 20.85102 C 8.12 g/m*3 20.85 C 0 km/h
1491 25-04-2007 00:00:00 22.135 C 8.68 g/m*3 22.14 C 0 km/h
1492 26-04-2007 00:00:00 21.16 C 7.81 g/m*3 21.16 C 0 km/h
1493 27-04-2007 00:00:00 20.46303 C 7.42 g/m*3 20.46 C 0 km/h
1494 28-04-2007 00:00:00 20.92083 C 7.71 g/m*3 20.92 C 0 km/h
1495 29-04-2007 00:00:00 19.75583 C 7.1 g/m*3 19.76 C 0 km/h
1496 30-04-2007 00:00:00 16.78917 C 4.21 g/m*3 16.79 C 0 km/h
1497 01-05-2007 00:00:00 16.47083 C 4.66 g/m*3 16.47 C 0 km/h
1498 02-05-2007 00:00:00 16.09167 C 3.81 g/m*3 16.09 C 0 km/h
1499 03-05-2007 00:00:00 17.355 C 5.15 g/m*3 17.36 C 0 km/h
1500 04-05-2007 00:00:00 18.835 C 5.97 g/m*3 18.84 C 0 km/h
Sensor: Nr:Datum:Temp:Abs-Feuchte:Windchill:Wind:
Aussen-T/F 1501 05-05-2007 00:00:00 17.5975 C 6.18 g/m*3 17.6 C 0 km/h
1502 06-05-2007 00:00:00 16.51167 C 7.41 g/m*3 16.51 C 0 km/h
1503 07-05-2007 00:00:00 15.5625 C 8.64 g/m*3 15.56 C 0 km/h
1504 08-05-2007 00:00:00 14.1825 C 7.73 g/m*3 14.18 C 0 km/h
1505 09-05-2007 00:00:00 12.76917 C 8.87 g/m*3 12.77 C 0 km/h
1506 10-05-2007 00:00:00 17.70667 C 8.53 g/m*3 17.71 C 0 km/h
1507 11-05-2007 00:00:00 15.535 C 6.56 g/m*3 15.54 C 0 km/h
1508 12-05-2007 00:00:00 15.02689 C 7.96 g/m*3 15.03 C 0 km/h
1509 13-05-2007 00:00:00 17.04333 C 8.98 g/m*3 17.04 C 0 km/h
1510 14-05-2007 00:00:00 15.98917 C 7.81 g/m*3 15.99 C 0 km/h
1511 15-05-2007 00:00:00 13.36917 C 7.46 g/m*3 13.37 C 0 km/h
1512 16-05-2007 00:00:00 12.17917 C 7.6 g/m*3 12.18 C 0 km/h
1513 17-05-2007 00:00:00 10.8525 C 7.97 g/m*3 10.85 C 0 km/h
1514 18-05-2007 00:00:00 14.6325 C 8.23 g/m*3 14.63 C 0 km/h
1515 19-05-2007 00:00:00 18.53583 C 10.39 g/m*3 18.54 C 0 km/h
1516 20-05-2007 00:00:00 21.92667 C 9.73 g/m*3 21.93 C 0 km/h
1517 21-05-2007 00:00:00 22.61667 C 11.44 g/m*3 22.62 C 0 km/h
1518 22-05-2007 00:00:00 22.86667 C 11.78 g/m*3 22.87 C 0 km/h
1519 23-05-2007 00:00:00 20.8675 C 11.32 g/m*3 20.87 C 0 km/h
1520 24-05-2007 00:00:00 23.91417 C 11.42 g/m*3 23.91 C 0 km/h
1521 25-05-2007 00:00:00 24.57059 C 11.78 g/m*3 24.57 C 0 km/h
1522 26-05-2007 00:00:00 21.745 C 12.71 g/m*3 21.75 C 0 km/h
1523 27-05-2007 00:00:00 17.5125 C 9.85 g/m*3 17.51 C 0 km/h
1524 28-05-2007 00:00:00 12.24917 C 8.51 g/m*3 12.25 C 0 km/h
1525 29-05-2007 00:00:00 11.033 C 7.93 g/m*3 11.03 C 0 km/h
Sensor: Nr:Datum:Temp:Abs-Feuchte:Windchill:Wind:
Aussen-T/F 1526 30-05-2007 00:00:00 13.67465 C 6.29 g/m*3 13.67 C 0 km/h
1527 31-05-2007 00:00:00 16.05139 C 8.28 g/m*3 16.05 C 0 km/h
1528 01-06-2007 00:00:00 15.42361 C 9.57 g/m*3 15.42 C 0 km/h
1529 02-06-2007 00:00:00 18.53611 C 9.82 g/m*3 18.54 C 0 km/h
1530 03-06-2007 00:00:00 20.87083 C 10.1 g/m*3 20.87 C 0 km/h
1531 04-06-2007 00:00:00 22.02361 C 10.59 g/m*3 22.02 C 0 km/h
1532 05-06-2007 00:00:00 21.66389 C 10.23 g/m*3 21.66 C 0 km/h
1533 06-06-2007 00:00:00 22.53889 C 10.59 g/m*3 22.54 C 0 km/h
1534 07-06-2007 00:00:00 25.42222 C 11.36 g/m*3 25.42 C 0 km/h
1535 08-06-2007 00:00:00 26.47639 C 11.42 g/m*3 26.48 C 0 km/h
1536 09-06-2007 00:00:00 23.12917 C 12.28 g/m*3 23.13 C 0 km/h
1537 10-06-2007 00:00:00 21.28889 C 12.55 g/m*3 21.29 C 0 km/h
1538 11-06-2007 00:00:00 21.88068 C 11.9 g/m*3 21.88 C 0 km/h
1539 12-06-2007 00:00:00 20.17167 C 11.8 g/m*3 20.17 C 0 km/h
1540 13-06-2007 00:00:00 21.51176 C 10.38 g/m*3 21.51 C 0 km/h
1541 14-06-2007 00:00:00 22.15833 C 12.13 g/m*3 22.16 C 0 km/h
1542 15-06-2007 00:00:00 19.84667 C 11.6 g/m*3 19.85 C 0 km/h
1543 16-06-2007 00:00:00 18.0125 C 9.3 g/m*3 18.01 C 0 km/h
1544 17-06-2007 00:00:00 20.0125 C 9.63 g/m*3 20.01 C 0 km/h
1545 18-06-2007 00:00:00 20.92583 C 11.23 g/m*3 20.93 C 0 km/h
1546 19-06-2007 00:00:00 23.70833 C 11.18 g/m*3 23.71 C 0 km/h
1547 20-06-2007 00:00:00 23.68667 C 12.04 g/m*3 23.69 C 0 km/h
1548 21-06-2007 00:00:00 18.30167 C 12.42 g/m*3 18.3 C 0 km/h
1549 22-06-2007 00:00:00 16.06417 C 10.95 g/m*3 16.06 C 0 km/h
1550 23-06-2007 00:00:00 16.04167 C 10.56 g/m*3 16.04 C 0 km/h
Sensor: Nr:Datum:Temp:Abs-Feuchte:Windchill:Wind:
Aussen-T/F 1551 24-06-2007 00:00:00 19.31667 C 10.02 g/m*3 19.32 C 0 km/h
1552 25-06-2007 00:00:00 18.13667 C 10.86 g/m*3 18.14 C 0 km/h
1553 26-06-2007 00:00:00 13.90667 C 8.35 g/m*3 13.91 C 0 km/h
1554 27-06-2007 00:00:00 14.2225 C 6.63 g/m*3 14.22 C 0 km/h
1555 28-06-2007 00:00:00 15.82833 C 7.44 g/m*3 15.83 C 0 km/h
1556 29-06-2007 00:00:00 16.88417 C 8.32 g/m*3 16.88 C 0 km/h
1557 30-06-2007 00:00:00 18.675 C 9.69 g/m*3 18.68 C 0 km/h
1558 01-07-2007 00:00:00 20.8525 C 10.65 g/m*3 20.85 C 0 km/h
1559 02-07-2007 00:00:00 19.54917 C 10.43 g/m*3 19.55 C 0 km/h
1560 03-07-2007 00:00:00 15.42583 C 9.84 g/m*3 15.43 C 0 km/h
1561 04-07-2007 00:00:00 15.17417 C 8.93 g/m*3 15.17 C 0 km/h
1562 05-07-2007 00:00:00 15.1325 C 9.55 g/m*3 15.13 C 0 km/h
1563 06-07-2007 00:00:00 17.63613 C 8.26 g/m*3 17.64 C 0 km/h
1564 07-07-2007 00:00:00 18.55167 C 7.14 g/m*3 18.55 C 0 km/h
1565 08-07-2007 00:00:00 19.8175 C 8.32 g/m*3 19.82 C 0 km/h
1566 09-07-2007 00:00:00 17.15583 C 9.38 g/m*3 17.16 C 0 km/h
1567 10-07-2007 00:00:00 14.66583 C 9.37 g/m*3 14.67 C 0 km/h
1568 11-07-2007 00:00:00 14.37833 C 9.44 g/m*3 14.38 C 0 km/h
1569 12-07-2007 00:00:00 17.7 C 9.66 g/m*3 17.7 C 0 km/h
1570 13-07-2007 00:00:00 22.43167 C 11.88 g/m*3 22.43 C 0 km/h
1571 14-07-2007 00:00:00 25.05 C 11.69 g/m*3 25.05 C 0 km/h
1572 15-07-2007 00:00:00 27.2075 C 11.44 g/m*3 27.21 C 0 km/h
1573 16-07-2007 00:00:00 26.8025 C 8.93 g/m*3 26.8 C 0 km/h
1574 17-07-2007 00:00:00 25.11167 C 8.56 g/m*3 25.11 C 0 km/h
1575 18-07-2007 00:00:00 22.78 C 9.2 g/m*3 22.78 C 0 km/h
Sensor: Nr:Datum:Temp:Abs-Feuchte:Windchill:Wind:
Aussen-T/F 1576 19-07-2007 00:00:00 20.29333 C 11.02 g/m*3 20.29 C 0 km/h
1577 20-07-2007 00:00:00 22.04917 C 12.14 g/m*3 22.05 C 0 km/h
1578 21-07-2007 00:00:00 19.74917 C 9.69 g/m*3 19.75 C 0 km/h
1579 22-07-2007 00:00:00 19.89917 C 8.33 g/m*3 19.9 C 0 km/h
1580 23-07-2007 00:00:00 16.33333 C 10.14 g/m*3 16.33 C 0 km/h
1581 24-07-2007 00:00:00 16.72667 C 9.48 g/m*3 16.73 C 0 km/h
1582 25-07-2007 00:00:00 19.68571 C 8.82 g/m*3 19.69 C 0 km/h
1583 26-07-2007 00:00:00 21.75583 C 9.38 g/m*3 21.76 C 0 km/h
1584 27-07-2007 00:00:00 22.4675 C 8.25 g/m*3 22.47 C 0 km/h
1585 28-07-2007 00:00:00 21.095 C 10.2 g/m*3 21.1 C 0 km/h
1586 29-07-2007 00:00:00 17.3075 C 9.52 g/m*3 17.31 C 0 km/h
1587 30-07-2007 00:00:00 14.66167 C 6.94 g/m*3 14.66 C 0 km/h
1588 31-07-2007 00:00:00 15.68167 C 6.71 g/m*3 15.68 C 0 km/h
1589 01-08-2007 00:00:00 18.53833 C 7.48 g/m*3 18.54 C 0 km/h
1590 02-08-2007 00:00:00 18.3275 C 9.54 g/m*3 18.33 C 0 km/h
1591 03-08-2007 00:00:00 19.78083 C 8.92 g/m*3 19.78 C 0 km/h
1592 04-08-2007 00:00:00 21.05 C 8.85 g/m*3 21.05 C 0 km/h
1593 05-08-2007 00:00:00 23.69833 C 9.12 g/m*3 23.7 C 0 km/h
1594 06-08-2007 00:00:00 24.23417 C 9.32 g/m*3 24.23 C 0 km/h
1595 07-08-2007 00:00:00 18.36167 C 12.63 g/m*3 18.36 C 0 km/h
1596 08-08-2007 00:00:00 16.0175 C 11.01 g/m*3 16.02 C 0 km/h
1597 09-08-2007 00:00:00 14.26667 C 11.55 g/m*3 14.27 C 0 km/h
1598 10-08-2007 00:00:00 17.82833 C 13.5 g/m*3 17.83 C 0 km/h
1599 11-08-2007 00:00:00 19.64083 C 11.07 g/m*3 19.64 C 0 km/h
1600 12-08-2007 00:00:00 20.07417 C 10.09 g/m*3 20.07 C 0 km/h
Sensor: Nr:Datum:Temp:Abs-Feuchte:Windchill:Wind:
Aussen-T/F 1601 13-08-2007 00:00:00 20.9175 C 10.13 g/m*3 20.92 C 0 km/h
1602 14-08-2007 00:00:00 20.9275 C 9.64 g/m*3 20.93 C 0 km/h
1603 15-08-2007 00:00:00 23.49917 C 12.92 g/m*3 23.5 C 0 km/h
1604 16-08-2007 00:00:00 18.74667 C 10.51 g/m*3 18.75 C 0 km/h
1605 17-08-2007 00:00:00 17.27833 C 8.08 g/m*3 17.28 C 0 km/h
1606 18-08-2007 00:00:00 17.40917 C 8.03 g/m*3 17.41 C 0 km/h
1607 19-08-2007 00:00:00 17.24583 C 9.91 g/m*3 17.25 C 0 km/h
1608 20-08-2007 00:00:00 17.315 C 9.7 g/m*3 17.32 C 0 km/h
1609 21-08-2007 00:00:00 15.4225 C 10.31 g/m*3 15.42 C 0 km/h
1610 22-08-2007 00:00:00 15.95593 C 11.84 g/m*3 15.96 C 0 km/h
1611 23-08-2007 00:00:00 17.7575 C 11.98 g/m*3 17.76 C 0 km/h
1612 24-08-2007 00:00:00 19.43833 C 11.56 g/m*3 19.44 C 0 km/h
1613 25-08-2007 00:00:00 21.42 C 11.91 g/m*3 21.42 C 0 km/h
1614 26-08-2007 00:00:00 21.99167 C 12.1 g/m*3 21.99 C 0 km/h
1615 27-08-2007 00:00:00 19.53583 C 8.84 g/m*3 19.54 C 0 km/h
1616 28-08-2007 00:00:00 16.42167 C 8.1 g/m*3 16.42 C 0 km/h
1617 29-08-2007 00:00:00 17.285 C 6.71 g/m*3 17.29 C 0 km/h
1618 30-08-2007 00:00:00 15.3675 C 7.01 g/m*3 15.37 C 0 km/h
1619 31-08-2007 00:00:00 17.5825 C 9.89 g/m*3 17.58 C 0 km/h
1620 01-09-2007 00:00:00 17.1975 C 10.01 g/m*3 17.2 C 0 km/h
1621 02-09-2007 00:00:00 17.35583 C 9 g/m*3 17.36 C 0 km/h
1622 03-09-2007 00:00:00 15.74917 C 9.08 g/m*3 15.75 C 0 km/h
1623 04-09-2007 00:00:00 12.88417 C 7.04 g/m*3 12.88 C 0 km/h
1624 05-09-2007 00:00:00 12.6395 C 6.92 g/m*3 12.64 C 0 km/h
1625 06-09-2007 00:00:00 15.00917 C 9.43 g/m*3 15.01 C 0 km/h
Sensor: Nr:Datum:Temp:Abs-Feuchte:Windchill:Wind:
Aussen-T/F 1626 07-09-2007 00:00:00 15.9325 C 9.22 g/m*3 15.93 C 0 km/h
1627 08-09-2007 00:00:00 15.13667 C 10.05 g/m*3 15.14 C 0 km/h
1628 09-09-2007 00:00:00 15.125 C 9.17 g/m*3 15.13 C 0 km/h
1629 10-09-2007 00:00:00 12.4075 C 8.68 g/m*3 12.41 C 0 km/h
1630 11-09-2007 00:00:00 14.36833 C 8.61 g/m*3 14.37 C 0 km/h
1631 12-09-2007 00:00:00 14.94417 C 8.54 g/m*3 14.94 C 0 km/h
1632 13-09-2007 00:00:00 14.5175 C 8.49 g/m*3 14.52 C 0 km/h
1633 14-09-2007 00:00:00 15.68417 C 8.62 g/m*3 15.68 C 0 km/h
1634 15-09-2007 00:00:00 16.86917 C 8.24 g/m*3 16.87 C 0 km/h
1635 16-09-2007 00:00:00 15.27 C 8.22 g/m*3 15.27 C 0 km/h
1636 17-09-2007 00:00:00 16.68833 C 10.1 g/m*3 16.69 C 0 km/h
1637 18-09-2007 00:00:00 11.46833 C 8.27 g/m*3 11.47 C 0 km/h
1638 19-09-2007 00:00:00 10.3275 C 6.41 g/m*3 10.33 C 0 km/h
1639 20-09-2007 00:00:00 13.68083 C 7.03 g/m*3 13.68 C 0 km/h
1640 21-09-2007 00:00:00 14.35833 C 7.71 g/m*3 14.36 C 0 km/h
1641 22-09-2007 00:00:00 15.97583 C 8.74 g/m*3 15.98 C 0 km/h
1642 23-09-2007 00:00:00 17.80333 C 9.5 g/m*3 17.8 C 0 km/h
1643 24-09-2007 00:00:00 16.95833 C 9.49 g/m*3 16.96 C 0 km/h
1644 25-09-2007 00:00:00 12.91917 C 7.71 g/m*3 12.92 C 0 km/h
1645 26-09-2007 00:00:00 12.2675 C 7.86 g/m*3 12.27 C 0 km/h
1646 27-09-2007 00:00:00 10.19083 C 8.85 g/m*3 10.19 C 0 km/h
1647 28-09-2007 00:00:00 12.50168 C 8.71 g/m*3 12.5 C 0 km/h
1648 29-09-2007 00:00:00 13.54444 C 8.6 g/m*3 13.54 C 0 km/h
1649 30-09-2007 00:00:00 14.59687 C 9.12 g/m*3 14.6 C 0 km/h
1650 01-10-2007 00:00:00 14.70313 C 9.71 g/m*3 14.7 C 0 km/h
Sensor: Nr:Datum:Temp:Abs-Feuchte:Windchill:Wind:
Aussen-T/F 1651 02-10-2007 00:00:00 17.235 C 11.49 g/m*3 17.24 C 0 km/h
1652 03-10-2007 00:00:00 17.39188 C 11.47 g/m*3 17.39 C 0 km/h
1653 04-10-2007 00:00:00 17.33653 C 11.53 g/m*3 17.34 C 0 km/h
1654 05-10-2007 00:00:00 15.50646 C 8.72 g/m*3 15.51 C 0 km/h
1655 06-10-2007 00:00:00 12.34042 C 7.59 g/m*3 12.34 C 0 km/h
1656 07-10-2007 00:00:00 11.60813 C 7.69 g/m*3 11.61 C 0 km/h
1657 08-10-2007 00:00:00 10.74021 C 7.53 g/m*3 10.74 C 0 km/h
1658 09-10-2007 00:00:00 12.05052 C 8.1 g/m*3 12.05 C 0 km/h
1659 10-10-2007 00:00:00 14.53875 C 8.04 g/m*3 14.54 C 0 km/h
1660 11-10-2007 00:00:00 11.52958 C 7.34 g/m*3 11.53 C 0 km/h
1661 12-10-2007 00:00:00 12.23271 C 8.24 g/m*3 12.23 C 0 km/h
1662 13-10-2007 00:00:00 13.96146 C 7.82 g/m*3 13.96 C 0 km/h
1663 14-10-2007 00:00:00 9.94958 C 6.47 g/m*3 9.95 C 0 km/h
1664 15-10-2007 00:00:00 10.725 C 7.35 g/m*3 10.73 C 0 km/h
1665 16-10-2007 00:00:00 13.70417 C 8.35 g/m*3 13.7 C 0 km/h
1666 17-10-2007 00:00:00 11.78601 C 8.39 g/m*3 11.79 C 0 km/h
1667 18-10-2007 00:00:00 9.70042 C 6.45 g/m*3 9.7 C 0 km/h
1668 19-10-2007 00:00:00 7.65667 C 6.17 g/m*3 7.66 C 0 km/h
1669 20-10-2007 00:00:00 3.38583 C 5.54 g/m*3 3.39 C 0 km/h
1670 24-10-2007 00:00:00 7.63803 C 5.69 g/m*3 7.64 C 0 km/h
1671 25-10-2007 00:00:00 8.51042 C 6.26 g/m*3 8.51 C 0 km/h
1672 26-10-2007 00:00:00 8.8712 C 6.03 g/m*3 8.87 C 0 km/h
1673 27-10-2007 00:00:00 8.5725 C 5.85 g/m*3 8.57 C 0 km/h
1674 28-10-2007 00:00:00 9.1632 C 5.9 g/m*3 9.16 C 0 km/h
1675 29-10-2007 00:00:00 8.77833 C 7.07 g/m*3 8.78 C 0 km/h
Sensor: Nr:Datum:Temp:Abs-Feuchte:Windchill:Wind:
Aussen-T/F 1676 30-10-2007 00:00:00 8.70333 C 7.3 g/m*3 8.7 C 0 km/h
1677 31-10-2007 00:00:00 6.43333 C 6.44 g/m*3 6.43 C 0 km/h
1678 01-11-2007 00:00:00 5.77833 C 6.04 g/m*3 5.78 C 0 km/h
1679 02-11-2007 00:00:00 10.20333 C 8.52 g/m*3 10.2 C 0 km/h
1680 03-11-2007 00:00:00 11.76723 C 9.64 g/m*3 11.77 C 0 km/h
1681 04-11-2007 00:00:00 10.35 C 6.84 g/m*3 10.35 C 0 km/h
1682 05-11-2007 00:00:00 8.61333 C 5.38 g/m*3 8.61 C 0 km/h
1683 06-11-2007 00:00:00 8.1225 C 5.88 g/m*3 8.12 C 0 km/h
1684 07-11-2007 00:00:00 8.495 C 6.13 g/m*3 8.49 C 0 km/h
1685 08-11-2007 00:00:00 9.85667 C 7.21 g/m*3 9.86 C 0 km/h
1686 09-11-2007 00:00:00 5.16167 C 5.11 g/m*3 5.16 C 0 km/h
1687 10-11-2007 00:00:00 6.29083 C 5.92 g/m*3 6.29 C 0 km/h
1688 11-11-2007 00:00:00 7.75917 C 6.67 g/m*3 7.76 C 0 km/h
1689 12-11-2007 00:00:00 5.1475 C 4.79 g/m*3 5.15 C 0 km/h
1690 13-11-2007 00:00:00 3.98167 C 5.14 g/m*3 3.98 C 0 km/h
1691 14-11-2007 00:00:00 2.72417 C 4.37 g/m*3 2.72 C 0 km/h
1692 15-11-2007 00:00:00 1.3425 C 3.82 g/m*3 1.34 C 0 km/h
1693 16-11-2007 00:00:00 -0.59167 C 3.84 g/m*3 -0.59 C 0 km/h
1694 17-11-2007 00:00:00 3.35714 C 4.68 g/m*3 3.36 C 0 km/h
1695 18-11-2007 00:00:00 3.3825 C 4.91 g/m*3 3.38 C 0 km/h
1696 19-11-2007 00:00:00 2.57333 C 4.34 g/m*3 2.57 C 0 km/h
1697 20-11-2007 00:00:00 5.33 C 4.59 g/m*3 5.33 C 0 km/h
1698 21-11-2007 00:00:00 6.755 C 5.66 g/m*3 6.76 C 0 km/h
1699 22-11-2007 00:00:00 7.93917 C 6.65 g/m*3 7.94 C 0 km/h
1700 23-11-2007 00:00:00 6.7275 C 6.81 g/m*3 6.73 C 0 km/h
Sensor: Nr:Datum:Temp:Abs-Feuchte:Windchill:Wind:
Aussen-T/F 1701 24-11-2007 00:00:00 2.76833 C 4.82 g/m*3 2.77 C 0 km/h
1702 25-11-2007 00:00:00 4.25167 C 5.29 g/m*3 4.25 C 0 km/h
1703 26-11-2007 00:00:00 3.9725 C 4.66 g/m*3 3.97 C 0 km/h
1704 27-11-2007 00:00:00 4.23833 C 4.68 g/m*3 4.24 C 0 km/h
1705 28-11-2007 00:00:00 0.0625 C 4.32 g/m*3 0.06 C 0 km/h
1706 29-11-2007 00:00:00 1.3325 C 4.59 g/m*3 1.33 C 0 km/h
1707 30-11-2007 00:00:00 5.76 C 5.7 g/m*3 5.76 C 0 km/h
1708 01-12-2007 00:00:00 8.51345 C 5.82 g/m*3 8.51 C 0 km/h
1709 02-12-2007 00:00:00 9.13667 C 6.27 g/m*3 9.14 C 0 km/h
1710 03-12-2007 00:00:00 7.21167 C 4.97 g/m*3 7.21 C 0 km/h
1711 04-12-2007 00:00:00 5.77583 C 5.61 g/m*3 5.78 C 0 km/h
1712 05-12-2007 00:00:00 10.11667 C 7.2 g/m*3 10.12 C 0 km/h
1713 06-12-2007 00:00:00 9.85667 C 6.67 g/m*3 9.86 C 0 km/h
1714 07-12-2007 00:00:00 10.3625 C 6.09 g/m*3 10.36 C 0 km/h
1715 08-12-2007 00:00:00 5.77917 C 4.69 g/m*3 5.78 C 0 km/h
1716 09-12-2007 00:00:00 7.00333 C 5.75 g/m*3 7 C 0 km/h
1717 10-12-2007 00:00:00 6.24167 C 6.16 g/m*3 6.24 C 0 km/h
1718 11-12-2007 00:00:00 5.6775 C 5.39 g/m*3 5.68 C 0 km/h
1719 12-12-2007 00:00:00 4.92417 C 5 g/m*3 4.92 C 0 km/h
1720 13-12-2007 00:00:00 5.2125 C 4.36 g/m*3 5.21 C 0 km/h
1721 14-12-2007 00:00:00 2.35798 C 2.96 g/m*3 2.36 C 0 km/h
1722 15-12-2007 00:00:00 0.0325 C 2.86 g/m*3 0.03 C 0 km/h
1723 16-12-2007 00:00:00 -2.92417 C 2.98 g/m*3 -2.92 C 0 km/h
1724 17-12-2007 00:00:00 -1.06 C 2.85 g/m*3 -1.06 C 0 km/h
1725 18-12-2007 00:00:00 -2.50833 C 3.14 g/m*3 -2.51 C 0 km/h
Sensor: Nr:Datum:Temp:Abs-Feuchte:Windchill:Wind:
Aussen-T/F 1726 19-12-2007 00:00:00 -3.8675 C 3.09 g/m*3 -3.87 C 0 km/h
1727 20-12-2007 00:00:00 -5.26417 C 2.9 g/m*3 -5.26 C 0 km/h
1728 21-12-2007 00:00:00 -5.9625 C 2.72 g/m*3 -5.96 C 0 km/h
1729 22-12-2007 00:00:00 -7.21833 C 2.43 g/m*3 -7.22 C 0 km/h
1730 23-12-2007 00:00:00 -5.47333 C 2.81 g/m*3 -5.47 C 0 km/h
1731 24-12-2007 00:00:00 -1.28333 C 4.01 g/m*3 -1.28 C 0 km/h
1732 25-12-2007 00:00:00 -3.13917 C 3.2 g/m*3 -3.14 C 0 km/h
1733 26-12-2007 00:00:00 -1.31513 C 3.83 g/m*3 -1.32 C 0 km/h
1734 27-12-2007 00:00:00 2.63917 C 4.81 g/m*3 2.64 C 0 km/h
1735 28-12-2007 00:00:00 4.575 C 5.27 g/m*3 4.58 C 0 km/h
1736 29-12-2007 00:00:00 3.32667 C 4.84 g/m*3 3.33 C 0 km/h
1737 30-12-2007 00:00:00 4.99167 C 5.24 g/m*3 4.99 C 0 km/h
1738 31-12-2007 00:00:00 3.21667 C 5.19 g/m*3 3.22 C 0 km/h
1739 01-01-2008 00:00:00 1.85083 C 4.52 g/m*3 1.85 C 0 km/h
1740 02-01-2008 00:00:00 -1.72 C 3.21 g/m*3 -1.72 C 0 km/h
1741 03-01-2008 00:00:00 -0.05667 C 2.87 g/m*3 -0.06 C 0 km/h
1742 04-01-2008 00:00:00 0.27167 C 3.34 g/m*3 0.27 C 0 km/h
1743 05-01-2008 00:00:00 5.0775 C 5.63 g/m*3 5.08 C 0 km/h
1744 06-01-2008 00:00:00 3.95167 C 5.23 g/m*3 3.95 C 0 km/h
1745 07-01-2008 00:00:00 5.63583 C 5.3 g/m*3 5.64 C 0 km/h
1746 08-01-2008 00:00:00 4.45546 C 5.42 g/m*3 4.46 C 0 km/h
1747 09-01-2008 00:00:00 4.03167 C 5.39 g/m*3 4.03 C 0 km/h
1748 10-01-2008 00:00:00 6.32083 C 5.48 g/m*3 6.32 C 0 km/h
1749 11-01-2008 00:00:00 9.6175 C 5.87 g/m*3 9.62 C 0 km/h
1750 12-01-2008 00:00:00 6.39 C 5.01 g/m*3 6.39 C 0 km/h
Sensor: Nr:Datum:Temp:Abs-Feuchte:Windchill:Wind:
Aussen-T/F 1751 13-01-2008 00:00:00 0.58167 C 4.26 g/m*3 0.58 C 0 km/h
1752 14-01-2008 00:00:00 3.80833 C 4.9 g/m*3 3.81 C 0 km/h
1753 15-01-2008 00:00:00 8.28833 C 5.12 g/m*3 8.29 C 0 km/h
1754 16-01-2008 00:00:00 8.28667 C 5.35 g/m*3 8.29 C 0 km/h
1755 17-01-2008 00:00:00 7.21833 C 5.52 g/m*3 7.22 C 0 km/h
1756 18-01-2008 00:00:00 9.17667 C 6.31 g/m*3 9.18 C 0 km/h
1757 19-01-2008 00:00:00 12.72353 C 7.44 g/m*3 12.72 C 0 km/h
1758 20-01-2008 00:00:00 12.27333 C 6.9 g/m*3 12.27 C 0 km/h
1759 21-01-2008 00:00:00 10.17403 C 5.8 g/m*3 10.17 C 0 km/h
1760 22-01-2008 00:00:00 4.58605 C 4.01 g/m*3 4.59 C 0 km/h
1761 23-01-2008 00:00:00 2.9125 C 3.92 g/m*3 2.91 C 0 km/h
1762 24-01-2008 00:00:00 6.355 C 4.65 g/m*3 6.36 C 0 km/h
1763 25-01-2008 00:00:00 3.72583 C 4.34 g/m*3 3.73 C 0 km/h
1764 26-01-2008 00:00:00 5.43583 C 4.26 g/m*3 5.44 C 0 km/h
1765 27-01-2008 00:00:00 5.64333 C 4.29 g/m*3 5.64 C 0 km/h
1766 28-01-2008 00:00:00 7.44 C 5.19 g/m*3 7.44 C 0 km/h
1767 29-01-2008 00:00:00 5.72167 C 4.29 g/m*3 5.72 C 0 km/h
1768 30-01-2008 00:00:00 2.05833 C 4.71 g/m*3 2.06 C 0 km/h
1769 31-01-2008 00:00:00 2.0958 C 3.82 g/m*3 2.1 C 0 km/h
1770 01-02-2008 00:00:00 4.10167 C 4.83 g/m*3 4.1 C 0 km/h
1771 02-02-2008 00:00:00 2.155 C 3.64 g/m*3 2.15 C 0 km/h
1772 03-02-2008 00:00:00 0.64917 C 3.2 g/m*3 0.65 C 0 km/h
1773 04-02-2008 00:00:00 4.5125 C 4.25 g/m*3 4.51 C 0 km/h
1774 05-02-2008 00:00:00 6.43917 C 5.11 g/m*3 6.44 C 0 km/h
1775 06-02-2008 00:00:00 8.675 C 5.72 g/m*3 8.68 C 0 km/h
Sensor: Nr:Datum:Temp:Abs-Feuchte:Windchill:Wind:
Aussen-T/F 1776 07-02-2008 00:00:00 3.96333 C 4.24 g/m*3 3.96 C 0 km/h
1777 08-02-2008 00:00:00 2.41167 C 3.87 g/m*3 2.41 C 0 km/h
1778 09-02-2008 00:00:00 2.61833 C 3.61 g/m*3 2.62 C 0 km/h
1779 10-02-2008 00:00:00 2.41333 C 3.74 g/m*3 2.41 C 0 km/h
1780 11-02-2008 00:00:00 3.10083 C 4.4 g/m*3 3.1 C 0 km/h
1781 12-02-2008 00:00:00 2.92667 C 4.49 g/m*3 2.93 C 0 km/h
1782 13-02-2008 00:00:00 2.03193 C 4.33 g/m*3 2.03 C 0 km/h
1783 14-02-2008 00:00:00 0.96667 C 4.4 g/m*3 0.97 C 0 km/h
1784 15-02-2008 00:00:00 2.4125 C 3.13 g/m*3 2.41 C 0 km/h
1785 16-02-2008 00:00:00 -0.75333 C 2.03 g/m*3 -0.75 C 0 km/h
1786 17-02-2008 00:00:00 -1.21667 C 2.05 g/m*3 -1.22 C 0 km/h
1787 18-02-2008 00:00:00 -0.28333 C 2.13 g/m*3 -0.28 C 0 km/h
1788 19-02-2008 00:00:00 0.85417 C 2.54 g/m*3 0.85 C 0 km/h
1789 20-02-2008 00:00:00 1.65 C 4.49 g/m*3 1.65 C 0 km/h
1790 21-02-2008 00:00:00 6.5725 C 5.76 g/m*3 6.57 C 0 km/h
1791 22-02-2008 00:00:00 9.70667 C 5.88 g/m*3 9.71 C 0 km/h
1792 23-02-2008 00:00:00 9.48833 C 5.6 g/m*3 9.49 C 0 km/h
1793 24-02-2008 00:00:00 6.65583 C 5.66 g/m*3 6.66 C 0 km/h
1794 25-02-2008 00:00:00 9.93833 C 6.06 g/m*3 9.94 C 0 km/h
1795 26-02-2008 00:00:00 11.1075 C 6.49 g/m*3 11.11 C 0 km/h
1796 27-02-2008 00:00:00 7.70168 C 4.44 g/m*3 7.7 C 0 km/h
1797 28-02-2008 00:00:00 7.6125 C 4.89 g/m*3 7.61 C 0 km/h
1798 29-02-2008 00:00:00 8.7625 C 7.16 g/m*3 8.76 C 0 km/h
1799 01-03-2008 00:00:00 9.4675 C 4.85 g/m*3 9.47 C 0 km/h
1800 02-03-2008 00:00:00 11.1725 C 5.33 g/m*3 11.17 C 0 km/h
Sensor: Nr:Datum:Temp:Abs-Feuchte:Windchill:Wind:
Aussen-T/F 1801 03-03-2008 00:00:00 7.56583 C 4.08 g/m*3 7.57 C 0 km/h
1802 04-03-2008 00:00:00 2.7525 C 4.06 g/m*3 2.75 C 0 km/h
1803 05-03-2008 00:00:00 1.71 C 3.03 g/m*3 1.71 C 0 km/h
1804 06-03-2008 00:00:00 2.81917 C 2.99 g/m*3 2.82 C 0 km/h
1805 07-03-2008 00:00:00 6.93833 C 4.72 g/m*3 6.94 C 0 km/h
1806 08-03-2008 00:00:00 6.94667 C 4.5 g/m*3 6.95 C 0 km/h
1807 09-03-2008 00:00:00 8.06667 C 4.11 g/m*3 8.07 C 0 km/h
1808 10-03-2008 00:00:00 8.22941 C 4.32 g/m*3 8.23 C 0 km/h
1809 11-03-2008 00:00:00 8.355 C 5.31 g/m*3 8.36 C 0 km/h
1810 12-03-2008 00:00:00 9.11833 C 4.2 g/m*3 9.12 C 0 km/h
1811 13-03-2008 00:00:00 7.62667 C 4.06 g/m*3 7.63 C 0 km/h
1812 14-03-2008 00:00:00 9.14417 C 5.77 g/m*3 9.14 C 0 km/h
1813 15-03-2008 00:00:00 9.33 C 5.42 g/m*3 9.33 C 0 km/h
1814 16-03-2008 00:00:00 9.8675 C 6.68 g/m*3 9.87 C 0 km/h
1815 17-03-2008 00:00:00 5.94583 C 3.99 g/m*3 5.95 C 0 km/h
1816 18-03-2008 00:00:00 4.26083 C 3.07 g/m*3 4.26 C 0 km/h
1817 19-03-2008 00:00:00 3.37083 C 3.9 g/m*3 3.37 C 0 km/h
1818 20-03-2008 00:00:00 3.89083 C 4.07 g/m*3 3.89 C 0 km/h
1819 21-03-2008 00:00:00 3.9975 C 4.22 g/m*3 4 C 0 km/h
1820 22-03-2008 00:00:00 2.82917 C 4.71 g/m*3 2.83 C 0 km/h
1821 23-03-2008 00:00:00 1.56639 C 2.31 g/m*3 1.57 C 0 km/h
1822 24-03-2008 00:00:00 -0.00917 C 3.2 g/m*3 -0.01 C 0 km/h
1823 25-03-2008 00:00:00 1.51333 C 3.09 g/m*3 1.51 C 0 km/h
1824 26-03-2008 00:00:00 2.39667 C 4.29 g/m*3 2.4 C 0 km/h
1825 27-03-2008 00:00:00 5.29417 C 5.44 g/m*3 5.29 C 0 km/h
Sensor: Nr:Datum:Temp:Abs-Feuchte:Windchill:Wind:
Aussen-T/F 1826 28-03-2008 00:00:00 8.15333 C 4.14 g/m*3 8.15 C 0 km/h
1827 29-03-2008 00:00:00 9.55083 C 3.95 g/m*3 9.55 C 0 km/h
1828 30-03-2008 00:00:00 13.03217 C 4.01 g/m*3 13.03 C 0 km/h
1829 31-03-2008 00:00:00 11.98333 C 5.6 g/m*3 11.98 C 0 km/h
1830 01-04-2008 00:00:00 10.06833 C 5.37 g/m*3 10.07 C 0 km/h
1831 02-04-2008 00:00:00 9.77417 C 5.52 g/m*3 9.77 C 0 km/h
1832 03-04-2008 00:00:00 7.48 C 5.75 g/m*3 7.48 C 0 km/h
1833 04-04-2008 00:00:00 9.15583 C 5.79 g/m*3 9.16 C 0 km/h
1834 05-04-2008 00:00:00 7.49076 C 6.73 g/m*3 7.49 C 0 km/h
1835 06-04-2008 00:00:00 3.825 C 5.64 g/m*3 3.83 C 0 km/h
1836 07-04-2008 00:00:00 1.36917 C 4.88 g/m*3 1.37 C 0 km/h
1837 08-04-2008 00:00:00 3.57833 C 4.72 g/m*3 3.58 C 0 km/h
1838 09-04-2008 00:00:00 5.82833 C 5.5 g/m*3 5.83 C 0 km/h
1839 10-04-2008 00:00:00 8.76917 C 5.74 g/m*3 8.77 C 0 km/h
1840 11-04-2008 00:00:00 8.235 C 6.34 g/m*3 8.24 C 0 km/h
1841 12-04-2008 00:00:00 8.02 C 5.41 g/m*3 8.02 C 0 km/h
1842 13-04-2008 00:00:00 9.70833 C 6.56 g/m*3 9.71 C 0 km/h
1843 14-04-2008 00:00:00 7.63083 C 6.9 g/m*3 7.63 C 0 km/h
1844 15-04-2008 00:00:00 6.56083 C 5.99 g/m*3 6.56 C 0 km/h
1845 16-04-2008 00:00:00 6.30083 C 4.78 g/m*3 6.3 C 0 km/h
1846 17-04-2008 00:00:00 6.47227 C 4.04 g/m*3 6.47 C 0 km/h
1847 18-04-2008 00:00:00 9.94 C 4.58 g/m*3 9.94 C 0 km/h
1848 19-04-2008 00:00:00 8.41667 C 6.18 g/m*3 8.42 C 0 km/h
1849 20-04-2008 00:00:00 12.42417 C 7.14 g/m*3 12.42 C 0 km/h
1850 21-04-2008 00:00:00 12.98833 C 6.29 g/m*3 12.99 C 0 km/h
Sensor: Nr:Datum:Temp:Abs-Feuchte:Windchill:Wind:
Aussen-T/F 1851 22-04-2008 00:00:00 12.95917 C 5.98 g/m*3 12.96 C 0 km/h
1852 23-04-2008 00:00:00 13.95083 C 6.27 g/m*3 13.95 C 0 km/h
1853 24-04-2008 00:00:00 15.095 C 7.14 g/m*3 15.1 C 0 km/h
1854 25-04-2008 00:00:00 12.67583 C 6.12 g/m*3 12.68 C 0 km/h
1855 26-04-2008 00:00:00 14.51833 C 6.16 g/m*3 14.52 C 0 km/h
1856 27-04-2008 00:00:00 15.87667 C 5.79 g/m*3 15.88 C 0 km/h
1857 28-04-2008 00:00:00 13.4125 C 8.14 g/m*3 13.41 C 0 km/h
1858 29-04-2008 00:00:00 13.07667 C 6.39 g/m*3 13.08 C 0 km/h
1859 30-04-2008 00:00:00 13.76639 C 5.33 g/m*3 13.77 C 0 km/h
1860 01-05-2008 00:00:00 11.62583 C 5.8 g/m*3 11.63 C 0 km/h
1861 02-05-2008 00:00:00 12.97583 C 6.28 g/m*3 12.98 C 0 km/h
1862 03-05-2008 00:00:00 14.47667 C 6.5 g/m*3 14.48 C 0 km/h
1863 04-05-2008 00:00:00 17.15667 C 5.91 g/m*3 17.16 C 0 km/h
1864 05-05-2008 00:00:00 16.51 C 5.51 g/m*3 16.51 C 0 km/h
1865 06-05-2008 00:00:00 18.36833 C 7.67 g/m*3 18.37 C 0 km/h
1866 07-05-2008 00:00:00 19.48083 C 7 g/m*3 19.48 C 0 km/h
1867 08-05-2008 00:00:00 19.40583 C 6.98 g/m*3 19.41 C 0 km/h
1868 09-05-2008 00:00:00 20.20083 C 7.05 g/m*3 20.2 C 0 km/h
1869 10-05-2008 00:00:00 21.22917 C 7.16 g/m*3 21.23 C 0 km/h
1870 11-05-2008 00:00:00 21.15714 C 6.43 g/m*3 21.16 C 0 km/h
1871 12-05-2008 00:00:00 21.02017 C 6.74 g/m*3 21.02 C 0 km/h
1872 13-05-2008 00:00:00 21.3175 C 7.09 g/m*3 21.32 C 0 km/h
1873 14-05-2008 00:00:00 21.27167 C 7.79 g/m*3 21.27 C 0 km/h
1874 15-05-2008 00:00:00 18.93333 C 8.92 g/m*3 18.93 C 0 km/h
1875 16-05-2008 00:00:00 18.3725 C 9.69 g/m*3 18.37 C 0 km/h
Sensor: Nr:Datum:Temp:Abs-Feuchte:Windchill:Wind:
Aussen-T/F 1876 17-05-2008 00:00:00 17.11167 C 10.03 g/m*3 17.11 C 0 km/h
1877 18-05-2008 00:00:00 14.09583 C 8.38 g/m*3 14.1 C 0 km/h
1878 19-05-2008 00:00:00 14.61833 C 5.61 g/m*3 14.62 C 0 km/h
1879 20-05-2008 00:00:00 15.59417 C 4.92 g/m*3 15.59 C 0 km/h
1880 21-05-2008 00:00:00 16.93833 C 4.74 g/m*3 16.94 C 0 km/h
1881 22-05-2008 00:00:00 18.32417 C 5.49 g/m*3 18.32 C 0 km/h
1882 23-05-2008 00:00:00 19.045 C 6.46 g/m*3 19.05 C 0 km/h
1883 24-05-2008 00:00:00 18.23 C 7.82 g/m*3 18.23 C 0 km/h
1884 25-05-2008 00:00:00 21.65462 C 9.39 g/m*3 21.65 C 0 km/h
1885 26-05-2008 00:00:00 21.2775 C 11.27 g/m*3 21.28 C 0 km/h
1886 27-05-2008 00:00:00 22.17167 C 12.27 g/m*3 22.17 C 0 km/h
1887 28-05-2008 00:00:00 23.79417 C 10.23 g/m*3 23.79 C 0 km/h
1888 29-05-2008 00:00:00 23.08917 C 11.47 g/m*3 23.09 C 0 km/h
1889 30-05-2008 00:00:00 20.37 C 13.32 g/m*3 20.37 C 0 km/h
1890 31-05-2008 00:00:00 17.68917 C 12.05 g/m*3 17.69 C 0 km/h
1891 01-06-2008 00:00:00 21.38917 C 11.64 g/m*3 21.39 C 0 km/h
1892 02-06-2008 00:00:00 23.66833 C 12.72 g/m*3 23.67 C 0 km/h
1893 03-06-2008 00:00:00 21.2825 C 11.09 g/m*3 21.28 C 0 km/h
1894 04-06-2008 00:00:00 19.19833 C 11.48 g/m*3 19.2 C 0 km/h
1895 05-06-2008 00:00:00 20.67731 C 12.57 g/m*3 20.68 C 0 km/h
1896 06-06-2008 00:00:00 21.07333 C 10.91 g/m*3 21.07 C 0 km/h
1897 07-06-2008 00:00:00 19.84417 C 10.51 g/m*3 19.84 C 0 km/h
1898 08-06-2008 00:00:00 20.63167 C 10.52 g/m*3 20.63 C 0 km/h
1899 09-06-2008 00:00:00 22.875 C 10.01 g/m*3 22.88 C 0 km/h
1900 10-06-2008 00:00:00 23.51583 C 9.23 g/m*3 23.52 C 0 km/h
Sensor: Nr:Datum:Temp:Abs-Feuchte:Windchill:Wind:
Aussen-T/F 1901 11-06-2008 00:00:00 18.4725 C 7.23 g/m*3 18.47 C 0 km/h
1902 12-06-2008 00:00:00 12.7425 C 7.69 g/m*3 12.74 C 0 km/h
1903 13-06-2008 00:00:00 13.67167 C 7.09 g/m*3 13.67 C 0 km/h
1904 14-06-2008 00:00:00 13.75917 C 7.2 g/m*3 13.76 C 0 km/h
1905 15-06-2008 00:00:00 13.75333 C 8.27 g/m*3 13.75 C 0 km/h
1906 16-06-2008 00:00:00 16.2275 C 7.7 g/m*3 16.23 C 0 km/h
1907 17-06-2008 00:00:00 17.34333 C 7.29 g/m*3 17.34 C 0 km/h
1908 18-06-2008 00:00:00 20.30583 C 7.89 g/m*3 20.31 C 0 km/h
1909 19-06-2008 00:00:00 20.67417 C 8.05 g/m*3 20.67 C 0 km/h
1910 20-06-2008 00:00:00 18.32 C 8.63 g/m*3 18.32 C 0 km/h
1911 21-06-2008 00:00:00 23.24706 C 9.11 g/m*3 23.25 C 0 km/h
1912 22-06-2008 00:00:00 24.30833 C 11.76 g/m*3 24.31 C 0 km/h
1913 23-06-2008 00:00:00 22.40417 C 8.41 g/m*3 22.4 C 0 km/h
1914 24-06-2008 00:00:00 23.6325 C 8.33 g/m*3 23.63 C 0 km/h
1915 25-06-2008 00:00:00 22.66833 C 12.11 g/m*3 22.67 C 0 km/h
1916 26-06-2008 00:00:00 20.39833 C 8.44 g/m*3 20.4 C 0 km/h
1917 27-06-2008 00:00:00 18.72167 C 8.67 g/m*3 18.72 C 0 km/h
1918 28-06-2008 00:00:00 21.21 C 9.93 g/m*3 21.21 C 0 km/h
1919 29-06-2008 00:00:00 22.68667 C 9.85 g/m*3 22.69 C 0 km/h
1920 30-06-2008 00:00:00 22.95083 C 8.73 g/m*3 22.95 C 0 km/h
1921 01-07-2008 00:00:00 24.35583 C 9.2 g/m*3 24.36 C 0 km/h
1922 02-07-2008 00:00:00 26.47583 C 10.39 g/m*3 26.48 C 0 km/h
1923 03-07-2008 00:00:00 20.18992 C 12.77 g/m*3 20.19 C 0 km/h
1924 04-07-2008 00:00:00 19.38083 C 9.22 g/m*3 19.38 C 0 km/h
1925 05-07-2008 00:00:00 21.0575 C 8.87 g/m*3 21.06 C 0 km/h
Sensor: Nr:Datum:Temp:Abs-Feuchte:Windchill:Wind:
Aussen-T/F 1926 06-07-2008 00:00:00 21.2225 C 8.99 g/m*3 21.22 C 0 km/h
1927 07-07-2008 00:00:00 18.24917 C 8.13 g/m*3 18.25 C 0 km/h
1928 08-07-2008 00:00:00 17.2125 C 8.69 g/m*3 17.21 C 0 km/h
1929 09-07-2008 00:00:00 17.0525 C 8.83 g/m*3 17.05 C 0 km/h
1930 10-07-2008 00:00:00 22.32833 C 10.77 g/m*3 22.33 C 0 km/h
1931 11-07-2008 00:00:00 20.48167 C 11.17 g/m*3 20.48 C 0 km/h
1932 12-07-2008 00:00:00 17.645 C 9.92 g/m*3 17.65 C 0 km/h
1933 13-07-2008 00:00:00 17.8375 C 8.02 g/m*3 17.84 C 0 km/h
1934 14-07-2008 00:00:00 18.38 C 7.76 g/m*3 18.38 C 0 km/h
1935 15-07-2008 00:00:00 19.61978 C 8.34 g/m*3 19.62 C 0 km/h
1936 16-07-2008 00:00:00 20.38298 C 10.82 g/m*3 20.38 C 0 km/h
1937 17-07-2008 00:00:00 17.22917 C 8.94 g/m*3 17.23 C 0 km/h
1938 18-07-2008 00:00:00 16.58125 C 9.74 g/m*3 16.58 C 0 km/h
1939 19-07-2008 00:00:00 19.61667 C 9.94 g/m*3 19.62 C 0 km/h
1940 20-07-2008 00:00:00 15.48542 C 9.13 g/m*3 15.49 C 0 km/h
1941 21-07-2008 00:00:00 12.62917 C 8.41 g/m*3 12.63 C 0 km/h
1942 22-07-2008 00:00:00 14.56042 C 9.4 g/m*3 14.56 C 0 km/h
1943 23-07-2008 00:00:00 18.94375 C 9.57 g/m*3 18.94 C 0 km/h
1944 24-07-2008 00:00:00 22.13958 C 9.31 g/m*3 22.14 C 0 km/h
1945 25-07-2008 00:00:00 24.55625 C 9.56 g/m*3 24.56 C 0 km/h
1946 26-07-2008 00:00:00 23.54792 C 12.42 g/m*3 23.55 C 0 km/h
1947 27-07-2008 00:00:00 23.20625 C 13.92 g/m*3 23.21 C 0 km/h
1948 28-07-2008 00:00:00 25.10833 C 12.45 g/m*3 25.11 C 0 km/h
1949 29-07-2008 00:00:00 24.49792 C 12.1 g/m*3 24.5 C 0 km/h
1950 30-07-2008 00:00:00 23.67292 C 12.74 g/m*3 23.67 C 0 km/h
Sensor: Nr:Datum:Temp:Abs-Feuchte:Windchill:Wind:
Aussen-T/F 1951 31-07-2008 00:00:00 24.69792 C 13.38 g/m*3 24.7 C 0 km/h
1952 01-08-2008 00:00:00 24.97917 C 10.83 g/m*3 24.98 C 0 km/h
1953 02-08-2008 00:00:00 21.29792 C 9.43 g/m*3 21.3 C 0 km/h
1954 03-08-2008 00:00:00 23.42561 C 10.97 g/m*3 23.43 C 0 km/h
1955 04-08-2008 00:00:00 21.85083 C 10.01 g/m*3 21.85 C 0 km/h
1956 05-08-2008 00:00:00 20.3125 C 8.72 g/m*3 20.31 C 0 km/h
1957 06-08-2008 00:00:00 24.05417 C 10.21 g/m*3 24.05 C 0 km/h
1958 07-08-2008 00:00:00 24.29583 C 11.12 g/m*3 24.3 C 0 km/h
1959 08-08-2008 00:00:00 18.50948 C 11.78 g/m*3 18.51 C 0 km/h
1960 09-08-2008 00:00:00 19.32 C 9.06 g/m*3 19.32 C 0 km/h
1961 10-08-2008 00:00:00 20.1 C 9.41 g/m*3 20.1 C 0 km/h
1962 11-08-2008 00:00:00 20.59748 C 9.44 g/m*3 20.6 C 0 km/h
1963 12-08-2008 00:00:00 18.91833 C 12.54 g/m*3 18.92 C 0 km/h
1964 13-08-2008 00:00:00 18.3525 C 8.74 g/m*3 18.35 C 0 km/h
1965 14-08-2008 00:00:00 19.14917 C 7.79 g/m*3 19.15 C 0 km/h
1966 15-08-2008 00:00:00 18.3625 C 8.19 g/m*3 18.36 C 0 km/h
1967 16-08-2008 00:00:00 18.89 C 8.44 g/m*3 18.89 C 0 km/h
1968 17-08-2008 00:00:00 19.10252 C 8.4 g/m*3 19.1 C 0 km/h
1969 18-08-2008 00:00:00 21.21 C 10.7 g/m*3 21.21 C 0 km/h
1970 19-08-2008 00:00:00 20.7925 C 9.67 g/m*3 20.79 C 0 km/h
1971 20-08-2008 00:00:00 18.82 C 9.37 g/m*3 18.82 C 0 km/h
1972 21-08-2008 00:00:00 19.6375 C 8.99 g/m*3 19.64 C 0 km/h
1973 22-08-2008 00:00:00 18.45333 C 11.1 g/m*3 18.45 C 0 km/h
1974 23-08-2008 00:00:00 14.95083 C 9.15 g/m*3 14.95 C 0 km/h
1975 24-08-2008 00:00:00 16.59333 C 8.67 g/m*3 16.59 C 0 km/h
Sensor: Nr:Datum:Temp:Abs-Feuchte:Windchill:Wind:
Aussen-T/F 1976 25-08-2008 00:00:00 17.43583 C 10.93 g/m*3 17.44 C 0 km/h
1977 26-08-2008 00:00:00 19.2725 C 10.13 g/m*3 19.27 C 0 km/h
1978 27-08-2008 00:00:00 19.89833 C 10.62 g/m*3 19.9 C 0 km/h
1979 28-08-2008 00:00:00 20.35417 C 9.37 g/m*3 20.35 C 0 km/h
1980 29-08-2008 00:00:00 20.84454 C 9.74 g/m*3 20.84 C 0 km/h
1981 30-08-2008 00:00:00 21.35167 C 10.94 g/m*3 21.35 C 0 km/h
1982 31-08-2008 00:00:00 22.25917 C 10.49 g/m*3 22.26 C 0 km/h
1983 01-09-2008 00:00:00 20.93917 C 10.36 g/m*3 20.94 C 0 km/h
1984 02-09-2008 00:00:00 19.11333 C 9.31 g/m*3 19.11 C 0 km/h
1985 03-09-2008 00:00:00 15.21083 C 10.42 g/m*3 15.21 C 0 km/h
1986 04-09-2008 00:00:00 13.7025 C 7.94 g/m*3 13.7 C 0 km/h
1987 05-09-2008 00:00:00 16.9775 C 10.5 g/m*3 16.98 C 0 km/h
1988 06-09-2008 00:00:00 17.5625 C 11.38 g/m*3 17.56 C 0 km/h
1989 07-09-2008 00:00:00 16.83583 C 9.34 g/m*3 16.84 C 0 km/h
1990 08-09-2008 00:00:00 17.9741 C 8.43 g/m*3 17.97 C 0 km/h
1991 09-09-2008 00:00:00 18.12014 C 9.04 g/m*3 18.12 C 0 km/h
1992 10-09-2008 00:00:00 21.10243 C 10.72 g/m*3 21.1 C 0 km/h
1993 11-09-2008 00:00:00 19.94479 C 12.52 g/m*3 19.94 C 0 km/h
1994 12-09-2008 00:00:00 16.69236 C 12.91 g/m*3 16.69 C 0 km/h
1995 13-09-2008 00:00:00 12.63937 C 10.07 g/m*3 12.64 C 0 km/h
1996 14-09-2008 00:00:00 11.66215 C 6.19 g/m*3 11.66 C 0 km/h
1997 15-09-2008 00:00:00 10.27153 C 7.08 g/m*3 10.27 C 0 km/h
1998 16-09-2008 00:00:00 11.32014 C 7.11 g/m*3 11.32 C 0 km/h
1999 17-09-2008 00:00:00 11.34948 C 5.77 g/m*3 11.35 C 0 km/h
2000 18-09-2008 00:00:00 10.63264 C 5.3 g/m*3 10.63 C 0 km/h
Sensor: Nr:Datum:Temp:Abs-Feuchte:Windchill:Wind:
Aussen-T/F 2001 19-09-2008 00:00:00 10.48333 C 6.14 g/m*3 10.48 C 0 km/h
2002 20-09-2008 00:00:00 11.00556 C 6.26 g/m*3 11.01 C 0 km/h
2003 21-09-2008 00:00:00 11.67222 C 6.89 g/m*3 11.67 C 0 km/h
2004 22-09-2008 00:00:00 12.57108 C 7.54 g/m*3 12.57 C 0 km/h
2005 23-09-2008 00:00:00 12.21111 C 8.35 g/m*3 12.21 C 0 km/h
2006 24-09-2008 00:00:00 13.30799 C 9.32 g/m*3 13.31 C 0 km/h
2007 25-09-2008 00:00:00 12.56736 C 7.77 g/m*3 12.57 C 0 km/h
2008 26-09-2008 00:00:00 12.00521 C 7.09 g/m*3 12.01 C 0 km/h
2009 27-09-2008 00:00:00 11.93693 C 7.15 g/m*3 11.94 C 0 km/h
2010 28-09-2008 00:00:00 11.96493 C 7.21 g/m*3 11.96 C 0 km/h
2011 29-09-2008 00:00:00 11.47396 C 7.33 g/m*3 11.47 C 0 km/h
2012 30-09-2008 00:00:00 10.38611 C 7.67 g/m*3 10.39 C 0 km/h
2013 01-10-2008 00:00:00 13.07222 C 8.43 g/m*3 13.07 C 0 km/h
2014 02-10-2008 00:00:00 10.70244 C 6.41 g/m*3 10.7 C 0 km/h
2015 03-10-2008 00:00:00 8.94063 C 6.04 g/m*3 8.94 C 0 km/h
2016 04-10-2008 00:00:00 9.76632 C 5.66 g/m*3 9.77 C 0 km/h
2017 05-10-2008 00:00:00 11.69062 C 6.1 g/m*3 11.69 C 0 km/h
2018 06-10-2008 00:00:00 14.79306 C 10.16 g/m*3 14.79 C 0 km/h
2019 07-10-2008 00:00:00 15.17875 C 10.24 g/m*3 15.18 C 0 km/h
2020 08-10-2008 00:00:00 13.26389 C 10.6 g/m*3 13.26 C 0 km/h
2021 09-10-2008 00:00:00 13.20937 C 8.82 g/m*3 13.21 C 0 km/h
2022 10-10-2008 00:00:00 13.01806 C 8.66 g/m*3 13.02 C 0 km/h
2023 11-10-2008 00:00:00 13.2125 C 9 g/m*3 13.21 C 0 km/h
2024 12-10-2008 00:00:00 15.40729 C 9.68 g/m*3 15.41 C 0 km/h
2025 13-10-2008 00:00:00 14.40976 C 9.47 g/m*3 14.41 C 0 km/h
Sensor: Nr:Datum:Temp:Abs-Feuchte:Windchill:Wind:
Aussen-T/F 2026 14-10-2008 00:00:00 15.63438 C 9.35 g/m*3 15.63 C 0 km/h
2027 15-10-2008 00:00:00 13.57361 C 8.88 g/m*3 13.57 C 0 km/h
2028 16-10-2008 00:00:00 11.59444 C 8.43 g/m*3 11.59 C 0 km/h
2029 17-10-2008 00:00:00 8.00313 C 6.15 g/m*3 8 C 0 km/h
2030 18-10-2008 00:00:00 7.10488 C 5.92 g/m*3 7.1 C 0 km/h
2031 19-10-2008 00:00:00 8.10521 C 6.25 g/m*3 8.11 C 0 km/h
2032 20-10-2008 00:00:00 9.83646 C 7.21 g/m*3 9.84 C 0 km/h
2033 21-10-2008 00:00:00 13.12986 C 9.32 g/m*3 13.13 C 0 km/h
2034 22-10-2008 00:00:00 9.36528 C 7.49 g/m*3 9.37 C 0 km/h
2035 23-10-2008 00:00:00 9.2115 C 6.5 g/m*3 9.21 C 0 km/h
2036 24-10-2008 00:00:00 7.4434 C 6.07 g/m*3 7.44 C 0 km/h
2037 25-10-2008 00:00:00 10.48151 C 7.39 g/m*3 10.48 C 0 km/h
2038 26-10-2008 00:00:00 10.725 C 6.55 g/m*3 10.73 C 0 km/h
2039 27-10-2008 00:00:00 10.21724 C 7.98 g/m*3 10.22 C 0 km/h
2040 28-10-2008 00:00:00 6.92456 C 6.29 g/m*3 6.92 C 0 km/h
2041 29-10-2008 00:00:00 5.45 C 5.63 g/m*3 5.45 C 0 km/h
2042 30-10-2008 00:00:00 4.78947 C 6 g/m*3 4.79 C 0 km/h
2043 31-10-2008 00:00:00 5.97414 C 6.34 g/m*3 5.97 C 0 km/h
2044 01-11-2008 00:00:00 7.97414 C 7.15 g/m*3 7.97 C 0 km/h
2045 02-11-2008 00:00:00 9.98772 C 7.86 g/m*3 9.99 C 0 km/h
2046 03-11-2008 00:00:00 9.82241 C 7.83 g/m*3 9.82 C 0 km/h
2047 04-11-2008 00:00:00 9.00351 C 7.82 g/m*3 9 C 0 km/h
2048 05-11-2008 00:00:00 9.79828 C 7.68 g/m*3 9.8 C 0 km/h
2049 06-11-2008 00:00:00 10.54483 C 7.37 g/m*3 10.54 C 0 km/h
2050 07-11-2008 00:00:00 10.79123 C 7.22 g/m*3 10.79 C 0 km/h
Sensor: Nr:Datum:Temp:Abs-Feuchte:Windchill:Wind:
Aussen-T/F 2051 08-11-2008 00:00:00 8.24828 C 6.77 g/m*3 8.25 C 0 km/h
2052 09-11-2008 00:00:00 8.89583 C 7.31 g/m*3 8.9 C 0 km/h
2053 10-11-2008 00:00:00 13.98833 C 7.91 g/m*3 13.99 C 0 km/h
2054 11-11-2008 00:00:00 12.73917 C 6.46 g/m*3 12.74 C 0 km/h
2055 12-11-2008 00:00:00 8.5175 C 6.56 g/m*3 8.52 C 0 km/h
2056 13-11-2008 00:00:00 6.40667 C 6.06 g/m*3 6.41 C 0 km/h
2057 14-11-2008 00:00:00 5.60833 C 5.47 g/m*3 5.61 C 0 km/h
2058 15-11-2008 00:00:00 9.82083 C 7.04 g/m*3 9.82 C 0 km/h
2059 16-11-2008 00:00:00 9.9375 C 7.83 g/m*3 9.94 C 0 km/h
2060 17-11-2008 00:00:00 4.03167 C 5.46 g/m*3 4.03 C 0 km/h
2061 18-11-2008 00:00:00 4.76417 C 5.59 g/m*3 4.76 C 0 km/h
2062 19-11-2008 00:00:00 7.7775 C 6.09 g/m*3 7.78 C 0 km/h
2063 20-11-2008 00:00:00 9.54 C 6.58 g/m*3 9.54 C 0 km/h
2064 21-11-2008 00:00:00 5.21083 C 5.22 g/m*3 5.21 C 0 km/h
2065 22-11-2008 00:00:00 1.08571 C 3.81 g/m*3 1.09 C 0 km/h
2066 23-11-2008 00:00:00 0.81333 C 4.11 g/m*3 0.81 C 0 km/h
2067 24-11-2008 00:00:00 1.92667 C 4.67 g/m*3 1.93 C 0 km/h
2068 25-11-2008 00:00:00 0.79667 C 4.51 g/m*3 0.8 C 0 km/h
2069 26-11-2008 00:00:00 2.38333 C 4.91 g/m*3 2.38 C 0 km/h
2070 27-11-2008 00:00:00 3.435 C 4.58 g/m*3 3.44 C 0 km/h
2071 28-11-2008 00:00:00 0.47667 C 3.78 g/m*3 0.48 C 0 km/h
2072 29-11-2008 00:00:00 0.98 C 4.13 g/m*3 0.98 C 0 km/h
2073 30-11-2008 00:00:00 1.12 C 4.72 g/m*3 1.12 C 0 km/h
2074 01-12-2008 00:00:00 0.30417 C 4.54 g/m*3 0.3 C 0 km/h
2075 02-12-2008 00:00:00 2.80917 C 4.97 g/m*3 2.81 C 0 km/h
Sensor: Nr:Datum:Temp:Abs-Feuchte:Windchill:Wind:
Aussen-T/F 2076 03-12-2008 00:00:00 1.785 C 4.91 g/m*3 1.79 C 0 km/h
2077 04-12-2008 00:00:00 1.92353 C 5.05 g/m*3 1.92 C 0 km/h
2078 05-12-2008 00:00:00 5.36 C 6.01 g/m*3 5.36 C 0 km/h
2079 06-12-2008 00:00:00 4.73 C 5.89 g/m*3 4.73 C 0 km/h
2080 07-12-2008 00:00:00 3.85333 C 5.78 g/m*3 3.85 C 0 km/h
2081 08-12-2008 00:00:00 0.26917 C 4.58 g/m*3 0.27 C 0 km/h
2082 09-12-2008 00:00:00 0.56667 C 4.36 g/m*3 0.57 C 0 km/h
2083 10-12-2008 00:00:00 1.97667 C 5.17 g/m*3 1.98 C 0 km/h
2084 11-12-2008 00:00:00 1.4775 C 4.54 g/m*3 1.48 C 0 km/h
2085 12-12-2008 00:00:00 -0.23583 C 3.8 g/m*3 -0.24 C 0 km/h
2086 13-12-2008 00:00:00 -0.26167 C 3.56 g/m*3 -0.26 C 0 km/h
2087 14-12-2008 00:00:00 0.28083 C 4.24 g/m*3 0.28 C 0 km/h
2088 15-12-2008 00:00:00 -0.1075 C 4.53 g/m*3 -0.11 C 0 km/h
2089 16-12-2008 00:00:00 0.42521 C 4.59 g/m*3 0.43 C 0 km/h
2090 17-12-2008 00:00:00 -0.0375 C 4.31 g/m*3 -0.04 C 0 km/h
2091 18-12-2008 00:00:00 2.15083 C 5.01 g/m*3 2.15 C 0 km/h
2092 19-12-2008 00:00:00 4.22333 C 5.23 g/m*3 4.22 C 0 km/h
2093 20-12-2008 00:00:00 6.45667 C 6.48 g/m*3 6.46 C 0 km/h
2094 21-12-2008 00:00:00 7.94917 C 6.81 g/m*3 7.95 C 0 km/h
2095 22-12-2008 00:00:00 8.47167 C 6.7 g/m*3 8.47 C 0 km/h
2096 23-12-2008 00:00:00 6.21417 C 5.86 g/m*3 6.21 C 0 km/h
2097 24-12-2008 00:00:00 4.55833 C 5.62 g/m*3 4.56 C 0 km/h
2098 25-12-2008 00:00:00 4.40252 C 4.56 g/m*3 4.4 C 0 km/h
2099 26-12-2008 00:00:00 -1.1875 C 2.6 g/m*3 -1.19 C 0 km/h
2100 27-12-2008 00:00:00 -1.85667 C 2.56 g/m*3 -1.86 C 0 km/h
Sensor: Nr:Datum:Temp:Abs-Feuchte:Windchill:Wind:
Aussen-T/F 2101 28-12-2008 00:00:00 -3.02917 C 2.53 g/m*3 -3.03 C 0 km/h
2102 29-12-2008 00:00:00 -5.49833 C 2.6 g/m*3 -5.5 C 0 km/h
2103 30-12-2008 00:00:00 -6.21833 C 2.53 g/m*3 -6.22 C 0 km/h
2104 31-12-2008 00:00:00 -4.32583 C 2.92 g/m*3 -4.33 C 0 km/h
2105 01-01-2009 00:00:00 -3.46417 C 2.96 g/m*3 -3.46 C 0 km/h
2106 02-01-2009 00:00:00 -2.03917 C 3.39 g/m*3 -2.04 C 0 km/h
2107 03-01-2009 00:00:00 -3.57 C 2.96 g/m*3 -3.57 C 0 km/h
2108 04-01-2009 00:00:00 -1.06833 C 2.96 g/m*3 -1.07 C 0 km/h
2109 05-01-2009 00:00:00 -1.23866 C 3.28 g/m*3 -1.24 C 0 km/h
2110 06-01-2009 00:00:00 -6.97 C 1.26 g/m*3 -6.97 C 0 km/h
2111 07-01-2009 00:00:00 -10.99167 C 1.39 g/m*3 -10.99 C 0 km/h
2112 08-01-2009 00:00:00 -6.02083 C 2.27 g/m*3 -6.02 C 0 km/h
2113 09-01-2009 00:00:00 -11.165 C 1.54 g/m*3 -11.17 C 0 km/h
2114 10-01-2009 00:00:00 -11.3175 C 1.53 g/m*3 -11.32 C 0 km/h
2115 11-01-2009 00:00:00 -8.9975 C 1.92 g/m*3 -9 C 0 km/h
2116 12-01-2009 00:00:00 -7.30417 C 2.15 g/m*3 -7.3 C 0 km/h
2117 13-01-2009 00:00:00 -0.17833 C 3.29 g/m*3 -0.18 C 0 km/h
2118 14-01-2009 00:00:00 -0.15917 C 4.05 g/m*3 -0.16 C 0 km/h
2119 15-01-2009 00:00:00 0.77417 C 4.28 g/m*3 0.77 C 0 km/h
2120 16-01-2009 00:00:00 0.69833 C 3.9 g/m*3 0.7 C 0 km/h
2121 17-01-2009 00:00:00 2.97833 C 4.9 g/m*3 2.98 C 0 km/h
2122 18-01-2009 00:00:00 4.50924 C 5.1 g/m*3 4.51 C 0 km/h
2123 19-01-2009 00:00:00 5.4575 C 5.21 g/m*3 5.46 C 0 km/h
2124 20-01-2009 00:00:00 3.6475 C 4.19 g/m*3 3.65 C 0 km/h
2125 21-01-2009 00:00:00 0.32 C 4.11 g/m*3 0.32 C 0 km/h
Sensor: Nr:Datum:Temp:Abs-Feuchte:Windchill:Wind:
Aussen-T/F 2126 22-01-2009 00:00:00 2.825 C 4.02 g/m*3 2.83 C 0 km/h
2127 23-01-2009 00:00:00 4.345 C 5.29 g/m*3 4.35 C 0 km/h
2128 24-01-2009 00:00:00 3.13 C 4.29 g/m*3 3.13 C 0 km/h
2129 25-01-2009 00:00:00 0.15167 C 4.08 g/m*3 0.15 C 0 km/h
2130 26-01-2009 00:00:00 -2.16917 C 3.69 g/m*3 -2.17 C 0 km/h
2131 27-01-2009 00:00:00 -0.93167 C 3.93 g/m*3 -0.93 C 0 km/h
2132 28-01-2009 00:00:00 0.50833 C 4.02 g/m*3 0.51 C 0 km/h
2133 29-01-2009 00:00:00 1.15667 C 3.12 g/m*3 1.16 C 0 km/h
2134 30-01-2009 00:00:00 -1.50917 C 3.06 g/m*3 -1.51 C 0 km/h
2135 31-01-2009 00:00:00 0.06303 C 2.59 g/m*3 0.06 C 0 km/h
2136 01-02-2009 00:00:00 -0.11167 C 2.24 g/m*3 -0.11 C 0 km/h
2137 02-02-2009 00:00:00 1.085 C 2.84 g/m*3 1.09 C 0 km/h
2138 03-02-2009 00:00:00 0.63833 C 3.81 g/m*3 0.64 C 0 km/h
2139 04-02-2009 00:00:00 3.0025 C 4.61 g/m*3 3 C 0 km/h
2140 05-02-2009 00:00:00 3.2325 C 4.69 g/m*3 3.23 C 0 km/h
2141 06-02-2009 00:00:00 4.3 C 5.03 g/m*3 4.3 C 0 km/h
2142 07-02-2009 00:00:00 4.03417 C 5.27 g/m*3 4.03 C 0 km/h
2143 08-02-2009 00:00:00 2.6525 C 3.3 g/m*3 2.65 C 0 km/h
2144 09-02-2009 00:00:00 2.3775 C 3.79 g/m*3 2.38 C 0 km/h
2145 10-02-2009 00:00:00 4.155 C 5.17 g/m*3 4.16 C 0 km/h
2146 11-02-2009 00:00:00 2.90333 C 3.62 g/m*3 2.9 C 0 km/h
2147 12-02-2009 00:00:00 0.68908 C 3.9 g/m*3 0.69 C 0 km/h
2148 13-02-2009 00:00:00 0.51333 C 4.05 g/m*3 0.51 C 0 km/h
2149 14-02-2009 00:00:00 0.46083 C 3.41 g/m*3 0.46 C 0 km/h
2150 15-02-2009 00:00:00 -1.63583 C 2.82 g/m*3 -1.64 C 0 km/h
Sensor: Nr:Datum:Temp:Abs-Feuchte:Windchill:Wind:
Aussen-T/F 2151 16-02-2009 00:00:00 1.96417 C 4.68 g/m*3 1.96 C 0 km/h
2152 17-02-2009 00:00:00 3.77167 C 5.13 g/m*3 3.77 C 0 km/h
2153 18-02-2009 00:00:00 -1.62667 C 2.39 g/m*3 -1.63 C 0 km/h
2154 19-02-2009 00:00:00 1.01417 C 2.7 g/m*3 1.01 C 0 km/h
2155 20-02-2009 00:00:00 3.41917 C 5.01 g/m*3 3.42 C 0 km/h
2156 21-02-2009 00:00:00 4.72083 C 4.87 g/m*3 4.72 C 0 km/h
2157 22-02-2009 00:00:00 5.24667 C 5.76 g/m*3 5.25 C 0 km/h
2158 23-02-2009 00:00:00 5.50083 C 4.72 g/m*3 5.5 C 0 km/h
2159 24-02-2009 00:00:00 4.8325 C 4.1 g/m*3 4.83 C 0 km/h
2160 25-02-2009 00:00:00 3.34286 C 4 g/m*3 3.34 C 0 km/h
2161 26-02-2009 00:00:00 6.7377 C 4.3 g/m*3 6.74 C 0 km/h
2162 27-02-2009 00:00:00 7.10417 C 5.5 g/m*3 7.1 C 0 km/h
2163 28-02-2009 00:00:00 10.0375 C 5.89 g/m*3 10.04 C 0 km/h
2164 01-03-2009 00:00:00 9.95 C 5.76 g/m*3 9.95 C 0 km/h
2165 02-03-2009 00:00:00 7.98 C 5.85 g/m*3 7.98 C 0 km/h
2166 03-03-2009 00:00:00 5.05583 C 3.94 g/m*3 5.06 C 0 km/h
2167 04-03-2009 00:00:00 7.27917 C 3.96 g/m*3 7.28 C 0 km/h
2168 05-03-2009 00:00:00 4.42917 C 5.35 g/m*3 4.43 C 0 km/h
2169 06-03-2009 00:00:00 3.82417 C 5.35 g/m*3 3.82 C 0 km/h
2170 07-03-2009 00:00:00 5.72167 C 3.85 g/m*3 5.72 C 0 km/h
2171 08-03-2009 00:00:00 7.50833 C 5.49 g/m*3 7.51 C 0 km/h
2172 09-03-2009 00:00:00 5.1521 C 4.17 g/m*3 5.15 C 0 km/h
2173 10-03-2009 00:00:00 5.4275 C 4.82 g/m*3 5.43 C 0 km/h
2174 11-03-2009 00:00:00 5.60417 C 4.35 g/m*3 5.6 C 0 km/h
2175 12-03-2009 00:00:00 5.67083 C 5.13 g/m*3 5.67 C 0 km/h
Sensor: Nr:Datum:Temp:Abs-Feuchte:Windchill:Wind:
Aussen-T/F 2176 13-03-2009 00:00:00 8.68167 C 5.63 g/m*3 8.68 C 0 km/h
2177 14-03-2009 00:00:00 8.925 C 5.68 g/m*3 8.93 C 0 km/h
2178 15-03-2009 00:00:00 9.41667 C 4.91 g/m*3 9.42 C 0 km/h
2179 16-03-2009 00:00:00 8.23417 C 5.83 g/m*3 8.23 C 0 km/h
2180 17-03-2009 00:00:00 7.73833 C 5.15 g/m*3 7.74 C 0 km/h
2181 18-03-2009 00:00:00 5.82417 C 3.93 g/m*3 5.82 C 0 km/h
2182 19-03-2009 00:00:00 5.41917 C 3.04 g/m*3 5.42 C 0 km/h
2183 20-03-2009 00:00:00 4.59917 C 2.69 g/m*3 4.6 C 0 km/h
2184 21-03-2009 00:00:00 5.07 C 2.81 g/m*3 5.07 C 0 km/h
2185 22-03-2009 00:00:00 5.16639 C 3.79 g/m*3 5.17 C 0 km/h
2186 23-03-2009 00:00:00 7.82917 C 4.91 g/m*3 7.83 C 0 km/h
2187 24-03-2009 00:00:00 3.67333 C 4.24 g/m*3 3.67 C 0 km/h
2188 25-03-2009 00:00:00 3.18417 C 4.69 g/m*3 3.18 C 0 km/h
2189 26-03-2009 00:00:00 6.40083 C 5.48 g/m*3 6.4 C 0 km/h
2190 27-03-2009 00:00:00 7.28333 C 5.31 g/m*3 7.28 C 0 km/h
2191 28-03-2009 00:00:00 6.97583 C 5.39 g/m*3 6.98 C 0 km/h
2192 29-03-2009 00:00:00 6.18435 C 4.96 g/m*3 6.18 C 0 km/h
2193 30-03-2009 00:00:00 6.41833 C 4.78 g/m*3 6.42 C 0 km/h
2194 31-03-2009 00:00:00 8.3325 C 4.49 g/m*3 8.33 C 0 km/h
2195 01-04-2009 00:00:00 10.89833 C 4.57 g/m*3 10.9 C 0 km/h
2196 02-04-2009 00:00:00 15.335 C 5.18 g/m*3 15.34 C 0 km/h
2197 03-04-2009 00:00:00 15.87143 C 6.71 g/m*3 15.87 C 0 km/h
2198 04-04-2009 00:00:00 16.68333 C 7.32 g/m*3 16.68 C 0 km/h
2199 05-04-2009 00:00:00 14.9675 C 6.93 g/m*3 14.97 C 0 km/h
2200 06-04-2009 00:00:00 14.72833 C 6.98 g/m*3 14.73 C 0 km/h
Sensor: Nr:Datum:Temp:Abs-Feuchte:Windchill:Wind:
Aussen-T/F 2201 07-04-2009 00:00:00 14.57333 C 7.41 g/m*3 14.57 C 0 km/h
2202 08-04-2009 00:00:00 14.20167 C 6.07 g/m*3 14.2 C 0 km/h
2203 09-04-2009 00:00:00 16.28067 C 7.49 g/m*3 16.28 C 0 km/h
2204 10-04-2009 00:00:00 18.55372 C 7.45 g/m*3 18.55 C 0 km/h
2205 11-04-2009 00:00:00 17.3525 C 7.29 g/m*3 17.35 C 0 km/h
2206 12-04-2009 00:00:00 16.79 C 8.39 g/m*3 16.79 C 0 km/h
2207 13-04-2009 00:00:00 15.65167 C 9.22 g/m*3 15.65 C 0 km/h
2208 14-04-2009 00:00:00 16.16167 C 8.27 g/m*3 16.16 C 0 km/h
2209 15-04-2009 00:00:00 16.94202 C 7.01 g/m*3 16.94 C 0 km/h
2210 16-04-2009 00:00:00 14.94583 C 6.79 g/m*3 14.95 C 0 km/h
2211 17-04-2009 00:00:00 10.0825 C 8.69 g/m*3 10.08 C 0 km/h
2212 18-04-2009 00:00:00 9.84 C 8.53 g/m*3 9.84 C 0 km/h
2213 19-04-2009 00:00:00 14.95667 C 7.61 g/m*3 14.96 C 0 km/h
2214 20-04-2009 00:00:00 15.16917 C 7.23 g/m*3 15.17 C 0 km/h
2215 21-04-2009 00:00:00 15.74583 C 6.35 g/m*3 15.75 C 0 km/h
2216 22-04-2009 00:00:00 13.68833 C 5.48 g/m*3 13.69 C 0 km/h
2217 23-04-2009 00:00:00 11.645 C 5.16 g/m*3 11.65 C 0 km/h
2218 24-04-2009 00:00:00 14.11333 C 5.96 g/m*3 14.11 C 0 km/h
2219 25-04-2009 00:00:00 14.64833 C 7.16 g/m*3 14.65 C 0 km/h
2220 26-04-2009 00:00:00 18.35 C 8.19 g/m*3 18.35 C 0 km/h
2221 27-04-2009 00:00:00 14.89496 C 7.27 g/m*3 14.89 C 0 km/h
2222 28-04-2009 00:00:00 11.07833 C 8.01 g/m*3 11.08 C 0 km/h
2223 29-04-2009 00:00:00 11.9025 C 7.14 g/m*3 11.9 C 0 km/h
2224 30-04-2009 00:00:00 12.85833 C 7.53 g/m*3 12.86 C 0 km/h
2225 01-05-2009 00:00:00 16.25583 C 8.09 g/m*3 16.26 C 0 km/h
Sensor: Nr:Datum:Temp:Abs-Feuchte:Windchill:Wind:
Aussen-T/F 2226 02-05-2009 00:00:00 17.60167 C 7.7 g/m*3 17.6 C 0 km/h
2227 03-05-2009 00:00:00 14.58333 C 7.12 g/m*3 14.58 C 0 km/h
2228 04-05-2009 00:00:00 11.88333 C 4.53 g/m*3 11.88 C 0 km/h
2229 05-05-2009 00:00:00 10.50917 C 6.68 g/m*3 10.51 C 0 km/h
2230 06-05-2009 00:00:00 13.85625 C 7.25 g/m*3 13.86 C 0 km/h
2231 07-05-2009 00:00:00 16.47708 C 7.43 g/m*3 16.48 C 0 km/h
2232 08-05-2009 00:00:00 16.58021 C 8.46 g/m*3 16.58 C 0 km/h
2233 09-05-2009 00:00:00 14.3875 C 8.01 g/m*3 14.39 C 0 km/h
2234 10-05-2009 00:00:00 17.72083 C 9.72 g/m*3 17.72 C 0 km/h
2235 11-05-2009 00:00:00 13.57188 C 11.06 g/m*3 13.57 C 0 km/h
2236 12-05-2009 00:00:00 11.83333 C 9.17 g/m*3 11.83 C 0 km/h
2237 13-05-2009 00:00:00 15.51771 C 8.96 g/m*3 15.52 C 0 km/h
2238 14-05-2009 00:00:00 16.00104 C 9.44 g/m*3 16 C 0 km/h
2239 15-05-2009 00:00:00 15.12255 C 10.34 g/m*3 15.12 C 0 km/h
2240 16-05-2009 00:00:00 13.80333 C 7.38 g/m*3 13.8 C 0 km/h
2241 17-05-2009 00:00:00 17.02083 C 7.92 g/m*3 17.02 C 0 km/h
2242 18-05-2009 00:00:00 16.95083 C 6.63 g/m*3 16.95 C 0 km/h
2243 19-05-2009 00:00:00 16.49333 C 7.85 g/m*3 16.49 C 0 km/h
2244 20-05-2009 00:00:00 18.70167 C 9.55 g/m*3 18.7 C 0 km/h
2245 21-05-2009 00:00:00 19.21167 C 10.72 g/m*3 19.21 C 0 km/h
2246 22-05-2009 00:00:00 17.97917 C 7.45 g/m*3 17.98 C 0 km/h
2247 23-05-2009 00:00:00 18.72083 C 7.4 g/m*3 18.72 C 0 km/h
2248 24-05-2009 00:00:00 22.53417 C 9.1 g/m*3 22.53 C 0 km/h
2249 25-05-2009 00:00:00 23.49833 C 10.6 g/m*3 23.5 C 0 km/h
2250 26-05-2009 00:00:00 19.86583 C 9.97 g/m*3 19.87 C 0 km/h
Sensor: Nr:Datum:Temp:Abs-Feuchte:Windchill:Wind:
Aussen-T/F 2251 27-05-2009 00:00:00 14.4425 C 6.18 g/m*3 14.44 C 0 km/h
2252 28-05-2009 00:00:00 15.5325 C 8.21 g/m*3 15.53 C 0 km/h
2253 29-05-2009 00:00:00 17.81765 C 6.76 g/m*3 17.82 C 0 km/h
2254 30-05-2009 00:00:00 18.43417 C 6.45 g/m*3 18.43 C 0 km/h
2255 31-05-2009 00:00:00 20.3075 C 7.55 g/m*3 20.31 C 0 km/h
2256 01-06-2009 00:00:00 19.42541 C 9.1 g/m*3 19.43 C 0 km/h
2257 02-06-2009 00:00:00 19.91917 C 8.16 g/m*3 19.92 C 0 km/h
2258 03-06-2009 00:00:00 16.3775 C 5.31 g/m*3 16.38 C 0 km/h
2259 04-06-2009 00:00:00 13.435 C 4.59 g/m*3 13.44 C 0 km/h
2260 05-06-2009 00:00:00 13.4075 C 5 g/m*3 13.41 C 0 km/h
2261 06-06-2009 00:00:00 9.18333 C 7.41 g/m*3 9.18 C 0 km/h
2262 07-06-2009 00:00:00 13.71083 C 8.43 g/m*3 13.71 C 0 km/h
2263 08-06-2009 00:00:00 16.58667 C 7.38 g/m*3 16.59 C 0 km/h
2264 09-06-2009 00:00:00 17.9275 C 9.37 g/m*3 17.93 C 0 km/h
2265 10-06-2009 00:00:00 17.24454 C 8.99 g/m*3 17.24 C 0 km/h
2266 11-06-2009 00:00:00 14.60417 C 9.26 g/m*3 14.6 C 0 km/h
2267 12-06-2009 00:00:00 15.915 C 7.28 g/m*3 15.92 C 0 km/h
2268 13-06-2009 00:00:00 18.29417 C 7.64 g/m*3 18.29 C 0 km/h
2269 14-06-2009 00:00:00 20.3875 C 10.19 g/m*3 20.39 C 0 km/h
2270 15-06-2009 00:00:00 16.76083 C 12.71 g/m*3 16.76 C 0 km/h
2271 16-06-2009 00:00:00 16.58083 C 9.69 g/m*3 16.58 C 0 km/h
2272 17-06-2009 00:00:00 19.89 C 9.38 g/m*3 19.89 C 0 km/h
2273 18-06-2009 00:00:00 19.45417 C 10.3 g/m*3 19.45 C 0 km/h
2274 19-06-2009 00:00:00 18.45583 C 7.96 g/m*3 18.46 C 0 km/h
2275 20-06-2009 00:00:00 13.84583 C 7.89 g/m*3 13.85 C 0 km/h
Sensor: Nr:Datum:Temp:Abs-Feuchte:Windchill:Wind:
Aussen-T/F 2276 21-06-2009 00:00:00 13.40167 C 8.61 g/m*3 13.4 C 0 km/h
2277 22-06-2009 00:00:00 15.23697 C 7.62 g/m*3 15.24 C 0 km/h
2278 23-06-2009 00:00:00 18.58583 C 7.92 g/m*3 18.59 C 0 km/h
2279 24-06-2009 00:00:00 22.29167 C 7.85 g/m*3 22.29 C 0 km/h
2280 25-06-2009 00:00:00 24.10583 C 9.67 g/m*3 24.11 C 0 km/h
2281 26-06-2009 00:00:00 24.31083 C 10.7 g/m*3 24.31 C 0 km/h
2282 27-06-2009 00:00:00 22.1625 C 12.54 g/m*3 22.16 C 0 km/h
2283 28-06-2009 00:00:00 25.04417 C 11.78 g/m*3 25.04 C 0 km/h
2284 29-06-2009 00:00:00 24.71583 C 12 g/m*3 24.72 C 0 km/h
2285 30-06-2009 00:00:00 22.55083 C 13.98 g/m*3 22.55 C 0 km/h
2286 01-07-2009 00:00:00 23.6175 C 13.73 g/m*3 23.62 C 0 km/h
2287 02-07-2009 00:00:00 25.95917 C 12.87 g/m*3 25.96 C 0 km/h
2288 03-07-2009 00:00:00 23.36083 C 13.72 g/m*3 23.36 C 0 km/h
2289 04-07-2009 00:00:00 24.17479 C 11.83 g/m*3 24.17 C 0 km/h
2290 05-07-2009 00:00:00 23.89917 C 11.07 g/m*3 23.9 C 0 km/h
2291 06-07-2009 00:00:00 21.82333 C 11.98 g/m*3 21.82 C 0 km/h
2292 07-07-2009 00:00:00 18.7625 C 10.11 g/m*3 18.76 C 0 km/h
2293 08-07-2009 00:00:00 16.39 C 9.61 g/m*3 16.39 C 0 km/h
2294 09-07-2009 00:00:00 16.38583 C 8.58 g/m*3 16.39 C 0 km/h
2295 10-07-2009 00:00:00 15.17083 C 7.78 g/m*3 15.17 C 0 km/h
2296 11-07-2009 00:00:00 17.55667 C 8.2 g/m*3 17.56 C 0 km/h
2297 12-07-2009 00:00:00 19.3525 C 10.57 g/m*3 19.35 C 0 km/h
2298 13-07-2009 00:00:00 21.76917 C 12.23 g/m*3 21.77 C 0 km/h
2299 14-07-2009 00:00:00 23.4 C 13.46 g/m*3 23.4 C 0 km/h
2300 15-07-2009 00:00:00 24.0475 C 10.2 g/m*3 24.05 C 0 km/h
Sensor: Nr:Datum:Temp:Abs-Feuchte:Windchill:Wind:
Aussen-T/F 2301 16-07-2009 00:00:00 23.37479 C 9.98 g/m*3 23.37 C 0 km/h
2302 17-07-2009 00:00:00 20.90917 C 9.78 g/m*3 20.91 C 0 km/h
2303 18-07-2009 00:00:00 17.575 C 8.46 g/m*3 17.58 C 0 km/h
2304 19-07-2009 00:00:00 17.92167 C 8.71 g/m*3 17.92 C 0 km/h
2305 20-07-2009 00:00:00 19.82583 C 7.87 g/m*3 19.83 C 0 km/h
2306 21-07-2009 00:00:00 23.22833 C 11.03 g/m*3 23.23 C 0 km/h
2307 22-07-2009 00:00:00 25.10583 C 12 g/m*3 25.11 C 0 km/h
2308 23-07-2009 00:00:00 22.65417 C 12.31 g/m*3 22.65 C 0 km/h
2309 24-07-2009 00:00:00 20.33167 C 9.89 g/m*3 20.33 C 0 km/h
2310 25-07-2009 00:00:00 18.03083 C 9.21 g/m*3 18.03 C 0 km/h
2311 26-07-2009 00:00:00 19.94833 C 9.75 g/m*3 19.95 C 0 km/h
2312 27-07-2009 00:00:00 20.60667 C 10.4 g/m*3 20.61 C 0 km/h
2313 28-07-2009 00:00:00 20.41513 C 8.48 g/m*3 20.42 C 0 km/h
2314 29-07-2009 00:00:00 21.77833 C 9.2 g/m*3 21.78 C 0 km/h
2315 30-07-2009 00:00:00 21.10583 C 8.72 g/m*3 21.11 C 0 km/h
2316 31-07-2009 00:00:00 20.32583 C 7.51 g/m*3 20.33 C 0 km/h
2317 01-08-2009 00:00:00 22.455 C 8.67 g/m*3 22.46 C 0 km/h
2318 02-08-2009 00:00:00 20.47167 C 10.91 g/m*3 20.47 C 0 km/h
2319 03-08-2009 00:00:00 19.3075 C 9.46 g/m*3 19.31 C 0 km/h
2320 04-08-2009 00:00:00 20.48917 C 8.95 g/m*3 20.49 C 0 km/h
2321 05-08-2009 00:00:00 22.0275 C 8.17 g/m*3 22.03 C 0 km/h
2322 06-08-2009 00:00:00 24.19667 C 9.51 g/m*3 24.2 C 0 km/h
2323 07-08-2009 00:00:00 25.2075 C 10.12 g/m*3 25.21 C 0 km/h
2324 08-08-2009 00:00:00 21.22583 C 12.28 g/m*3 21.23 C 0 km/h
2325 09-08-2009 00:00:00 22.82101 C 12.15 g/m*3 22.82 C 0 km/h
Sensor: Nr:Datum:Temp:Abs-Feuchte:Windchill:Wind:
Aussen-T/F 2326 10-08-2009 00:00:00 21.7025 C 11.79 g/m*3 21.7 C 0 km/h
2327 11-08-2009 00:00:00 20.44 C 11.61 g/m*3 20.44 C 0 km/h
2328 12-08-2009 00:00:00 20.9725 C 11.23 g/m*3 20.97 C 0 km/h
2329 13-08-2009 00:00:00 18.55917 C 12.82 g/m*3 18.56 C 0 km/h
2330 14-08-2009 00:00:00 19.44083 C 10.85 g/m*3 19.44 C 0 km/h
2331 15-08-2009 00:00:00 21.37917 C 10.5 g/m*3 21.38 C 0 km/h
2332 16-08-2009 00:00:00 23.84583 C 11 g/m*3 23.85 C 0 km/h
2333 17-08-2009 00:00:00 23.615 C 11.27 g/m*3 23.62 C 0 km/h
2334 18-08-2009 00:00:00 22.105 C 9.45 g/m*3 22.11 C 0 km/h
2335 19-08-2009 00:00:00 23.76 C 10.14 g/m*3 23.76 C 0 km/h
2336 20-08-2009 00:00:00 26.03167 C 11.39 g/m*3 26.03 C 0 km/h
2337 21-08-2009 00:00:00 20.32185 C 10.69 g/m*3 20.32 C 0 km/h
2338 22-08-2009 00:00:00 19.745 C 9.13 g/m*3 19.75 C 0 km/h
2339 23-08-2009 00:00:00 20.0375 C 8.31 g/m*3 20.04 C 0 km/h
2340 24-08-2009 00:00:00 22.19667 C 9.27 g/m*3 22.2 C 0 km/h
2341 25-08-2009 00:00:00 23.11917 C 10.67 g/m*3 23.12 C 0 km/h
2342 26-08-2009 00:00:00 21.68417 C 9.77 g/m*3 21.68 C 0 km/h
2343 27-08-2009 00:00:00 23.10167 C 10.48 g/m*3 23.1 C 0 km/h
2344 28-08-2009 00:00:00 21.60583 C 8.45 g/m*3 21.61 C 0 km/h
2345 29-08-2009 00:00:00 16.21167 C 6.62 g/m*3 16.21 C 0 km/h
2346 30-08-2009 00:00:00 16.655 C 6.94 g/m*3 16.66 C 0 km/h
2347 31-08-2009 00:00:00 19.54667 C 7.6 g/m*3 19.55 C 0 km/h
2348 01-09-2009 00:00:00 19.93167 C 10.19 g/m*3 19.93 C 0 km/h
2349 02-09-2009 00:00:00 18.765 C 9.38 g/m*3 18.77 C 0 km/h
2350 03-09-2009 00:00:00 17.39328 C 8.67 g/m*3 17.39 C 0 km/h
Sensor: Nr:Datum:Temp:Abs-Feuchte:Windchill:Wind:
Aussen-T/F 2351 04-09-2009 00:00:00 14.56333 C 8.22 g/m*3 14.56 C 0 km/h
2352 05-09-2009 00:00:00 15.10833 C 7.6 g/m*3 15.11 C 0 km/h
2353 06-09-2009 00:00:00 14.74583 C 8.27 g/m*3 14.75 C 0 km/h
2354 07-09-2009 00:00:00 17.63417 C 8.91 g/m*3 17.63 C 0 km/h
2355 08-09-2009 00:00:00 19.88167 C 9.54 g/m*3 19.88 C 0 km/h
2356 09-09-2009 00:00:00 19.7475 C 9.47 g/m*3 19.75 C 0 km/h
2357 10-09-2009 00:00:00 18.43917 C 10.33 g/m*3 18.44 C 0 km/h
2358 11-09-2009 00:00:00 17.6725 C 7.37 g/m*3 17.67 C 0 km/h
2359 12-09-2009 00:00:00 16.99083 C 7.3 g/m*3 16.99 C 0 km/h
2360 13-09-2009 00:00:00 14.23 C 8.62 g/m*3 14.23 C 0 km/h
2361 14-09-2009 00:00:00 12.17417 C 10.1 g/m*3 12.17 C 0 km/h
2362 15-09-2009 00:00:00 13.7563 C 10.75 g/m*3 13.76 C 0 km/h
2363 16-09-2009 00:00:00 16.725 C 11.49 g/m*3 16.73 C 0 km/h
2364 17-09-2009 00:00:00 18.47583 C 9.96 g/m*3 18.48 C 0 km/h
2365 18-09-2009 00:00:00 18.26083 C 9.85 g/m*3 18.26 C 0 km/h
2366 19-09-2009 00:00:00 20.78583 C 11.08 g/m*3 20.79 C 0 km/h
2367 20-09-2009 00:00:00 19.92833 C 11.89 g/m*3 19.93 C 0 km/h
2368 21-09-2009 00:00:00 18.85833 C 10.75 g/m*3 18.86 C 0 km/h
2369 22-09-2009 00:00:00 17.215 C 9.52 g/m*3 17.22 C 0 km/h
2370 23-09-2009 00:00:00 17.4225 C 9.72 g/m*3 17.42 C 0 km/h
2371 24-09-2009 00:00:00 17.19 C 10.45 g/m*3 17.19 C 0 km/h
2372 25-09-2009 00:00:00 15.16083 C 8.71 g/m*3 15.16 C 0 km/h
2373 26-09-2009 00:00:00 14.56333 C 8.19 g/m*3 14.56 C 0 km/h
2374 27-09-2009 00:00:00 14.64 C 8.22 g/m*3 14.64 C 0 km/h
2375 28-09-2009 00:00:00 14.21583 C 8.47 g/m*3 14.22 C 0 km/h
Sensor: Nr:Datum:Temp:Abs-Feuchte:Windchill:Wind:
Aussen-T/F 2376 29-09-2009 00:00:00 15.88319 C 8.68 g/m*3 15.88 C 0 km/h
2377 30-09-2009 00:00:00 16.535 C 9.98 g/m*3 16.54 C 0 km/h
2378 01-10-2009 00:00:00 14.71583 C 8.88 g/m*3 14.72 C 0 km/h
2379 02-10-2009 00:00:00 11.32167 C 6.59 g/m*3 11.32 C 0 km/h
2380 03-10-2009 00:00:00 11.72333 C 6.76 g/m*3 11.72 C 0 km/h
2381 04-10-2009 00:00:00 13.54167 C 7.94 g/m*3 13.54 C 0 km/h
2382 05-10-2009 00:00:00 12.4075 C 9.99 g/m*3 12.41 C 0 km/h
2383 06-10-2009 00:00:00 16.13417 C 12.08 g/m*3 16.13 C 0 km/h
2384 07-10-2009 00:00:00 19.57083 C 12.9 g/m*3 19.57 C 0 km/h
2385 08-10-2009 00:00:00 16.41167 C 9.99 g/m*3 16.41 C 0 km/h
2386 09-10-2009 00:00:00 11.88417 C 7.56 g/m*3 11.88 C 0 km/h
2387 10-10-2009 00:00:00 13.34667 C 9.66 g/m*3 13.35 C 0 km/h
2388 11-10-2009 00:00:00 12.35042 C 8.83 g/m*3 12.35 C 0 km/h
2389 12-10-2009 00:00:00 10.9275 C 6.43 g/m*3 10.93 C 0 km/h
2390 13-10-2009 00:00:00 9.24333 C 6.35 g/m*3 9.24 C 0 km/h
2391 14-10-2009 00:00:00 4.27333 C 4.38 g/m*3 4.27 C 0 km/h
2392 15-10-2009 00:00:00 3.45583 C 4.18 g/m*3 3.46 C 0 km/h
2393 16-10-2009 00:00:00 6.41083 C 5.8 g/m*3 6.41 C 0 km/h
2394 17-10-2009 00:00:00 8.52083 C 5.63 g/m*3 8.52 C 0 km/h
2395 18-10-2009 00:00:00 7.3775 C 5.38 g/m*3 7.38 C 0 km/h
2396 19-10-2009 00:00:00 4.59 C 4.71 g/m*3 4.59 C 0 km/h
2397 20-10-2009 00:00:00 5.17083 C 4.82 g/m*3 5.17 C 0 km/h
2398 21-10-2009 00:00:00 8.07333 C 5.02 g/m*3 8.07 C 0 km/h
2399 22-10-2009 00:00:00 9.4 C 5.91 g/m*3 9.4 C 0 km/h
2400 23-10-2009 00:00:00 8.34 C 7.02 g/m*3 8.34 C 0 km/h
Sensor: Nr:Datum:Temp:Abs-Feuchte:Windchill:Wind:
Aussen-T/F 2401 24-10-2009 00:00:00 10.5084 C 7.81 g/m*3 10.51 C 0 km/h
2402 25-10-2009 00:00:00 12.6096 C 8.4 g/m*3 12.61 C 0 km/h
2403 26-10-2009 00:00:00 11.8875 C 7.56 g/m*3 11.89 C 0 km/h
2404 27-10-2009 00:00:00 11.82417 C 7.63 g/m*3 11.82 C 0 km/h
2405 28-10-2009 00:00:00 8.37917 C 7.06 g/m*3 8.38 C 0 km/h
2406 29-10-2009 00:00:00 8.69333 C 7.48 g/m*3 8.69 C 0 km/h
2407 30-10-2009 00:00:00 10.54083 C 7.59 g/m*3 10.54 C 0 km/h
2408 31-10-2009 00:00:00 7.03083 C 5.82 g/m*3 7.03 C 0 km/h
2409 01-11-2009 00:00:00 9.17333 C 6.74 g/m*3 9.17 C 0 km/h
2410 02-11-2009 00:00:00 10.32333 C 8.29 g/m*3 10.32 C 0 km/h
2411 03-11-2009 00:00:00 8.06167 C 6.19 g/m*3 8.06 C 0 km/h
2412 04-11-2009 00:00:00 8.75 C 7.01 g/m*3 8.75 C 0 km/h
2413 05-11-2009 00:00:00 9.29748 C 6.2 g/m*3 9.3 C 0 km/h
2414 06-11-2009 00:00:00 9.43333 C 6.28 g/m*3 9.43 C 0 km/h
2415 07-11-2009 00:00:00 8.11583 C 5.94 g/m*3 8.12 C 0 km/h
2416 08-11-2009 00:00:00 6.9 C 6.33 g/m*3 6.9 C 0 km/h
2417 09-11-2009 00:00:00 6.21167 C 6.26 g/m*3 6.21 C 0 km/h
2418 10-11-2009 00:00:00 6.03 C 6.79 g/m*3 6.03 C 0 km/h
2419 11-11-2009 00:00:00 6.2525 C 6.18 g/m*3 6.25 C 0 km/h
2420 12-11-2009 00:00:00 4.66 C 6.06 g/m*3 4.66 C 0 km/h
2421 13-11-2009 00:00:00 11.27583 C 8.27 g/m*3 11.28 C 0 km/h
2422 14-11-2009 00:00:00 11.7125 C 7.87 g/m*3 11.71 C 0 km/h
2423 15-11-2009 00:00:00 11.2125 C 6.89 g/m*3 11.21 C 0 km/h
2424 16-11-2009 00:00:00 10.92667 C 8.53 g/m*3 10.93 C 0 km/h
2425 17-11-2009 00:00:00 10.88235 C 8.48 g/m*3 10.88 C 0 km/h
Sensor: Nr:Datum:Temp:Abs-Feuchte:Windchill:Wind:
Aussen-T/F 2426 18-11-2009 00:00:00 10.245 C 6.24 g/m*3 10.25 C 0 km/h
2427 19-11-2009 00:00:00 9.77667 C 6.57 g/m*3 9.78 C 0 km/h
2428 20-11-2009 00:00:00 7.87917 C 6.83 g/m*3 7.88 C 0 km/h
2429 21-11-2009 00:00:00 11.67333 C 7.8 g/m*3 11.67 C 0 km/h
2430 22-11-2009 00:00:00 11.84167 C 6.48 g/m*3 11.84 C 0 km/h
2431 23-11-2009 00:00:00 10.33417 C 6.93 g/m*3 10.33 C 0 km/h
2432 24-11-2009 00:00:00 11.89833 C 7.31 g/m*3 11.9 C 0 km/h
2433 25-11-2009 00:00:00 12.0875 C 6.36 g/m*3 12.09 C 0 km/h
2434 26-11-2009 00:00:00 9.98917 C 5.73 g/m*3 9.99 C 0 km/h
2435 27-11-2009 00:00:00 9.0425 C 5.58 g/m*3 9.04 C 0 km/h
2436 28-11-2009 00:00:00 8.79 C 5.95 g/m*3 8.79 C 0 km/h
2437 29-11-2009 00:00:00 9.41597 C 6.1 g/m*3 9.42 C 0 km/h
2438 30-11-2009 00:00:00 6.46 C 6.32 g/m*3 6.46 C 0 km/h
2439 01-12-2009 00:00:00 5.65583 C 5.93 g/m*3 5.66 C 0 km/h
2440 02-12-2009 00:00:00 5.96 C 5.22 g/m*3 5.96 C 0 km/h
2441 03-12-2009 00:00:00 8.53667 C 6.07 g/m*3 8.54 C 0 km/h
2442 04-12-2009 00:00:00 4.73917 C 4.37 g/m*3 4.74 C 0 km/h
2443 05-12-2009 00:00:00 5.3975 C 5.13 g/m*3 5.4 C 0 km/h
2444 06-12-2009 00:00:00 9.83 C 7.53 g/m*3 9.83 C 0 km/h
2445 07-12-2009 00:00:00 5.59917 C 6.01 g/m*3 5.6 C 0 km/h
2446 08-12-2009 00:00:00 6.95833 C 6.27 g/m*3 6.96 C 0 km/h
2447 09-12-2009 00:00:00 7.2525 C 6.19 g/m*3 7.25 C 0 km/h
2448 10-12-2009 00:00:00 8.78583 C 6.99 g/m*3 8.79 C 0 km/h
2449 11-12-2009 00:00:00 6.665 C 6.16 g/m*3 6.67 C 0 km/h
2450 12-12-2009 00:00:00 3.47833 C 5.29 g/m*3 3.48 C 0 km/h
Sensor: Nr:Datum:Temp:Abs-Feuchte:Windchill:Wind:
Aussen-T/F 2451 13-12-2009 00:00:00 1.50924 C 3.54 g/m*3 1.51 C 0 km/h
2452 14-12-2009 00:00:00 -0.80667 C 2.67 g/m*3 -0.81 C 0 km/h
2453 15-12-2009 00:00:00 -0.50083 C 2.88 g/m*3 -0.5 C 0 km/h
2454 16-12-2009 00:00:00 -1.19917 C 2.79 g/m*3 -1.2 C 0 km/h
2455 17-12-2009 00:00:00 -4.445 C 2.62 g/m*3 -4.45 C 0 km/h
2456 18-12-2009 00:00:00 -5.04417 C 2.34 g/m*3 -5.04 C 0 km/h
2457 19-12-2009 00:00:00 -12.79 C 1.12 g/m*3 -12.79 C 0 km/h
2458 20-12-2009 00:00:00 -8.03917 C 1.87 g/m*3 -8.04 C 0 km/h
2459 21-12-2009 00:00:00 -2.18417 C 3.25 g/m*3 -2.18 C 0 km/h
2460 22-12-2009 00:00:00 2.7175 C 5.09 g/m*3 2.72 C 0 km/h
2461 23-12-2009 00:00:00 0.49333 C 4.68 g/m*3 0.49 C 0 km/h
2462 24-12-2009 00:00:00 2.31333 C 5.15 g/m*3 2.31 C 0 km/h
2463 25-12-2009 00:00:00 4.38824 C 5.08 g/m*3 4.39 C 0 km/h
2464 26-12-2009 00:00:00 2.04583 C 4.45 g/m*3 2.05 C 0 km/h
2465 27-12-2009 00:00:00 0.5475 C 4.38 g/m*3 0.55 C 0 km/h
2466 28-12-2009 00:00:00 3.1425 C 4.49 g/m*3 3.14 C 0 km/h
2467 29-12-2009 00:00:00 0.4625 C 4.61 g/m*3 0.46 C 0 km/h
2468 30-12-2009 00:00:00 7.05667 C 7.27 g/m*3 7.06 C 0 km/h
2469 31-12-2009 00:00:00 5.32667 C 6.59 g/m*3 5.33 C 0 km/h
2470 01-01-2010 00:00:00 -0.1725 C 4.38 g/m*3 -0.17 C 0 km/h
2471 02-01-2010 00:00:00 -1.51083 C 3.34 g/m*3 -1.51 C 0 km/h
2472 03-01-2010 00:00:00 -1.79667 C 3.45 g/m*3 -1.8 C 0 km/h
2473 04-01-2010 00:00:00 -5.24083 C 2.41 g/m*3 -5.24 C 0 km/h
2474 05-01-2010 00:00:00 -8.00083 C 2.22 g/m*3 -8 C 0 km/h
2475 06-01-2010 00:00:00 -6.88917 C 2.25 g/m*3 -6.89 C 0 km/h
Sensor: Nr:Datum:Temp:Abs-Feuchte:Windchill:Wind:
Aussen-T/F 2476 07-01-2010 00:00:00 -3.75966 C 2.79 g/m*3 -3.76 C 0 km/h
2477 08-01-2010 00:00:00 -4.82167 C 2.54 g/m*3 -4.82 C 0 km/h
2478 09-01-2010 00:00:00 -2.655 C 3.05 g/m*3 -2.66 C 0 km/h
2479 10-01-2010 00:00:00 -1.87083 C 3.27 g/m*3 -1.87 C 0 km/h
2480 11-01-2010 00:00:00 -1.42833 C 3.62 g/m*3 -1.43 C 0 km/h
2481 12-01-2010 00:00:00 -1.65833 C 3.4 g/m*3 -1.66 C 0 km/h
2482 13-01-2010 00:00:00 -2.2325 C 2.99 g/m*3 -2.23 C 0 km/h
2483 14-01-2010 00:00:00 0.35417 C 3.98 g/m*3 0.35 C 0 km/h
2484 15-01-2010 00:00:00 0.87333 C 4.07 g/m*3 0.87 C 0 km/h
2485 16-01-2010 00:00:00 -0.11833 C 3.75 g/m*3 -0.12 C 0 km/h
2486 17-01-2010 00:00:00 2.09667 C 5.1 g/m*3 2.1 C 0 km/h
2487 18-01-2010 00:00:00 3.38333 C 5.07 g/m*3 3.38 C 0 km/h
2488 19-01-2010 00:00:00 2.24583 C 5.1 g/m*3 2.25 C 0 km/h
2489 20-01-2010 00:00:00 1.97417 C 4.66 g/m*3 1.97 C 0 km/h
2490 21-01-2010 00:00:00 2.45126 C 4.02 g/m*3 2.45 C 0 km/h
2491 22-01-2010 00:00:00 2.93667 C 4.24 g/m*3 2.94 C 0 km/h
2492 23-01-2010 00:00:00 -0.41333 C 3.36 g/m*3 -0.41 C 0 km/h
2493 24-01-2010 00:00:00 0.27167 C 4.06 g/m*3 0.27 C 0 km/h
2494 25-01-2010 00:00:00 0.01667 C 4.19 g/m*3 0.02 C 0 km/h
2495 26-01-2010 00:00:00 -3.325 C 2.8 g/m*3 -3.33 C 0 km/h
2496 27-01-2010 00:00:00 -5.54083 C 2.18 g/m*3 -5.54 C 0 km/h
2497 28-01-2010 00:00:00 1.20667 C 4.04 g/m*3 1.21 C 0 km/h
2498 29-01-2010 00:00:00 1.39083 C 4.5 g/m*3 1.39 C 0 km/h
2499 30-01-2010 00:00:00 -1.54583 C 3.39 g/m*3 -1.55 C 0 km/h
2500 31-01-2010 00:00:00 -1.62333 C 3.2 g/m*3 -1.62 C 0 km/h
Sensor: Nr:Datum:Temp:Abs-Feuchte:Windchill:Wind:
Aussen-T/F 2501 01-02-2010 00:00:00 0.20167 C 3.69 g/m*3 0.2 C 0 km/h
2502 02-02-2010 00:00:00 0.69916 C 4 g/m*3 0.7 C 0 km/h
2503 03-02-2010 00:00:00 2.28899 C 5.05 g/m*3 2.29 C 0 km/h
2504 04-02-2010 00:00:00 4.17018 C 5.55 g/m*3 4.17 C 0 km/h
2505 05-02-2010 00:00:00 3.29649 C 4.9 g/m*3 3.3 C 0 km/h
2506 06-02-2010 00:00:00 4.55172 C 5.47 g/m*3 4.55 C 0 km/h
2507 07-02-2010 00:00:00 4.17018 C 5.02 g/m*3 4.17 C 0 km/h
2508 08-02-2010 00:00:00 -0.75 C 2.85 g/m*3 -0.75 C 0 km/h
2509 09-02-2010 00:00:00 -3.74483 C 2.17 g/m*3 -3.74 C 0 km/h
2510 10-02-2010 00:00:00 -4.8 C 2.32 g/m*3 -4.8 C 0 km/h
2511 11-02-2010 00:00:00 -3.79828 C 2.62 g/m*3 -3.8 C 0 km/h
2512 12-02-2010 00:00:00 -2.14737 C 2.95 g/m*3 -2.15 C 0 km/h
2513 13-02-2010 00:00:00 -2.57414 C 2.82 g/m*3 -2.57 C 0 km/h
2514 14-02-2010 00:00:00 -2.13621 C 3.1 g/m*3 -2.14 C 0 km/h
2515 15-02-2010 00:00:00 -1.12632 C 3.21 g/m*3 -1.13 C 0 km/h
2516 16-02-2010 00:00:00 -1.16379 C 3.02 g/m*3 -1.16 C 0 km/h
2517 17-02-2010 00:00:00 -1.61754 C 3.18 g/m*3 -1.62 C 0 km/h
2518 18-02-2010 00:00:00 3.2569 C 4.56 g/m*3 3.26 C 0 km/h
2519 19-02-2010 00:00:00 3.59375 C 4.12 g/m*3 3.59 C 0 km/h
2520 20-02-2010 00:00:00 1.69333 C 3.53 g/m*3 1.69 C 0 km/h
2521 21-02-2010 00:00:00 2.87833 C 4.25 g/m*3 2.88 C 0 km/h
2522 22-02-2010 00:00:00 6.76417 C 5.24 g/m*3 6.76 C 0 km/h
2523 23-02-2010 00:00:00 9.7875 C 7.07 g/m*3 9.79 C 0 km/h
2524 24-02-2010 00:00:00 9.55 C 6.5 g/m*3 9.55 C 0 km/h
2525 25-02-2010 00:00:00 9.58 C 5.92 g/m*3 9.58 C 0 km/h
Sensor: Nr:Datum:Temp:Abs-Feuchte:Windchill:Wind:
Aussen-T/F 2526 26-02-2010 00:00:00 8.62667 C 5.33 g/m*3 8.63 C 0 km/h
2527 27-02-2010 00:00:00 8.4025 C 4.07 g/m*3 8.4 C 0 km/h
2528 28-02-2010 00:00:00 8.30667 C 5.5 g/m*3 8.31 C 0 km/h
2529 01-03-2010 00:00:00 5.40917 C 3.85 g/m*3 5.41 C 0 km/h
2530 02-03-2010 00:00:00 3.135 C 3.87 g/m*3 3.14 C 0 km/h
2531 03-03-2010 00:00:00 2.9925 C 3.33 g/m*3 2.99 C 0 km/h
2532 04-03-2010 00:00:00 2.47395 C 2.67 g/m*3 2.47 C 0 km/h
2533 05-03-2010 00:00:00 0.77667 C 2.41 g/m*3 0.78 C 0 km/h
2534 06-03-2010 00:00:00 -0.47083 C 3.38 g/m*3 -0.47 C 0 km/h
2535 07-03-2010 00:00:00 -1.6825 C 2.27 g/m*3 -1.68 C 0 km/h
2536 08-03-2010 00:00:00 -1.21083 C 1.92 g/m*3 -1.21 C 0 km/h
2537 09-03-2010 00:00:00 -0.87167 C 1.76 g/m*3 -0.87 C 0 km/h
2538 10-03-2010 00:00:00 1.41667 C 1.75 g/m*3 1.42 C 0 km/h
2539 11-03-2010 00:00:00 0.40167 C 2.56 g/m*3 0.4 C 0 km/h
2540 12-03-2010 00:00:00 1.61167 C 3.86 g/m*3 1.61 C 0 km/h
2541 13-03-2010 00:00:00 4.36583 C 4.23 g/m*3 4.37 C 0 km/h
2542 14-03-2010 00:00:00 5.79833 C 4.06 g/m*3 5.8 C 0 km/h
2543 15-03-2010 00:00:00 6.445 C 5.04 g/m*3 6.45 C 0 km/h
2544 16-03-2010 00:00:00 6.08067 C 5.63 g/m*3 6.08 C 0 km/h
2545 17-03-2010 00:00:00 6.69417 C 4.48 g/m*3 6.69 C 0 km/h
2546 18-03-2010 00:00:00 10.12333 C 4.54 g/m*3 10.12 C 0 km/h
2547 19-03-2010 00:00:00 15.0225 C 4.66 g/m*3 15.02 C 0 km/h
2548 20-03-2010 00:00:00 14.37667 C 8.46 g/m*3 14.38 C 0 km/h
2549 21-03-2010 00:00:00 11.23667 C 8.65 g/m*3 11.24 C 0 km/h
2550 22-03-2010 00:00:00 9.7575 C 7.03 g/m*3 9.76 C 0 km/h
Sensor: Nr:Datum:Temp:Abs-Feuchte:Windchill:Wind:
Aussen-T/F 2551 23-03-2010 00:00:00 8.94 C 6.12 g/m*3 8.94 C 0 km/h
2552 24-03-2010 00:00:00 11.9975 C 6.24 g/m*3 12 C 0 km/h
2553 25-03-2010 00:00:00 14.27083 C 6.52 g/m*3 14.27 C 0 km/h
2554 26-03-2010 00:00:00 10.0325 C 7.02 g/m*3 10.03 C 0 km/h
2555 27-03-2010 00:00:00 9.34333 C 5.7 g/m*3 9.34 C 0 km/h
2556 28-03-2010 00:00:00 9.93478 C 6.19 g/m*3 9.93 C 0 km/h
2557 29-03-2010 00:00:00 11.88167 C 8.04 g/m*3 11.88 C 0 km/h
2558 30-03-2010 00:00:00 12.70672 C 6.43 g/m*3 12.71 C 0 km/h
2559 31-03-2010 00:00:00 8.18667 C 4.45 g/m*3 8.19 C 0 km/h
2560 01-04-2010 00:00:00 5.84333 C 3.76 g/m*3 5.84 C 0 km/h
2561 02-04-2010 00:00:00 6.48583 C 4.37 g/m*3 6.49 C 0 km/h
2562 03-04-2010 00:00:00 9.73667 C 5.47 g/m*3 9.74 C 0 km/h
2563 04-04-2010 00:00:00 8.98833 C 5.25 g/m*3 8.99 C 0 km/h
2564 05-04-2010 00:00:00 9.15083 C 4.56 g/m*3 9.15 C 0 km/h
2565 06-04-2010 00:00:00 10.38167 C 4.41 g/m*3 10.38 C 0 km/h
2566 07-04-2010 00:00:00 13.61167 C 5.07 g/m*3 13.61 C 0 km/h
2567 08-04-2010 00:00:00 12.375 C 6.96 g/m*3 12.38 C 0 km/h
2568 09-04-2010 00:00:00 11.49917 C 5.91 g/m*3 11.5 C 0 km/h
2569 10-04-2010 00:00:00 11.3575 C 4.66 g/m*3 11.36 C 0 km/h
2570 11-04-2010 00:00:00 7.86667 C 4.35 g/m*3 7.87 C 0 km/h
2571 12-04-2010 00:00:00 7.44958 C 5.35 g/m*3 7.45 C 0 km/h
2572 13-04-2010 00:00:00 11.85583 C 6.16 g/m*3 11.86 C 0 km/h
2573 14-04-2010 00:00:00 11.76417 C 4.66 g/m*3 11.76 C 0 km/h
2574 15-04-2010 00:00:00 11.8575 C 5 g/m*3 11.86 C 0 km/h
2575 16-04-2010 00:00:00 9.71583 C 4.32 g/m*3 9.72 C 0 km/h
Sensor: Nr:Datum:Temp:Abs-Feuchte:Windchill:Wind:
Aussen-T/F 2576 17-04-2010 00:00:00 11.1225 C 4.54 g/m*3 11.12 C 0 km/h
2577 18-04-2010 00:00:00 13.27917 C 4.52 g/m*3 13.28 C 0 km/h
2578 19-04-2010 00:00:00 11.18333 C 5.12 g/m*3 11.18 C 0 km/h
2579 20-04-2010 00:00:00 11.13833 C 5.11 g/m*3 11.14 C 0 km/h
2580 21-04-2010 00:00:00 7.34417 C 3.84 g/m*3 7.34 C 0 km/h
2581 22-04-2010 00:00:00 8.35333 C 3.82 g/m*3 8.35 C 0 km/h
2582 23-04-2010 00:00:00 11.44917 C 4.09 g/m*3 11.45 C 0 km/h
2583 24-04-2010 00:00:00 14.91167 C 4.56 g/m*3 14.91 C 0 km/h
2584 25-04-2010 00:00:00 17.1075 C 5.25 g/m*3 17.11 C 0 km/h
2585 26-04-2010 00:00:00 15.72269 C 7.07 g/m*3 15.72 C 0 km/h
2586 27-04-2010 00:00:00 15.50417 C 6.31 g/m*3 15.5 C 0 km/h
2587 28-04-2010 00:00:00 16.8925 C 6.33 g/m*3 16.89 C 0 km/h
2588 29-04-2010 00:00:00 19.21417 C 6.68 g/m*3 19.21 C 0 km/h
2589 30-04-2010 00:00:00 18.69583 C 7.11 g/m*3 18.7 C 0 km/h
2590 01-05-2010 00:00:00 15.09917 C 6.78 g/m*3 15.1 C 0 km/h
2591 02-05-2010 00:00:00 13.48583 C 7.64 g/m*3 13.49 C 0 km/h
2592 03-05-2010 00:00:00 10.01667 C 6.94 g/m*3 10.02 C 0 km/h
2593 04-05-2010 00:00:00 9.78833 C 5.53 g/m*3 9.79 C 0 km/h
2594 05-05-2010 00:00:00 10.09083 C 3.78 g/m*3 10.09 C 0 km/h
2595 06-05-2010 00:00:00 6.68167 C 6.78 g/m*3 6.68 C 0 km/h
2596 07-05-2010 00:00:00 6.49417 C 6.66 g/m*3 6.49 C 0 km/h
2597 08-05-2010 00:00:00 11.06218 C 6.38 g/m*3 11.06 C 0 km/h
2598 09-05-2010 00:00:00 12.575 C 6.93 g/m*3 12.58 C 0 km/h
2599 10-05-2010 00:00:00 11.99917 C 6.67 g/m*3 12 C 0 km/h
2600 11-05-2010 00:00:00 11.53167 C 6.84 g/m*3 11.53 C 0 km/h
Sensor: Nr:Datum:Temp:Abs-Feuchte:Windchill:Wind:
Aussen-T/F 2601 12-05-2010 00:00:00 8.62333 C 6.33 g/m*3 8.62 C 0 km/h
2602 13-05-2010 00:00:00 8.07667 C 6.31 g/m*3 8.08 C 0 km/h
2603 14-05-2010 00:00:00 8.97333 C 7.22 g/m*3 8.97 C 0 km/h
2604 15-05-2010 00:00:00 10.6825 C 5.92 g/m*3 10.68 C 0 km/h
2605 16-05-2010 00:00:00 13.32917 C 5.32 g/m*3 13.33 C 0 km/h
2606 17-05-2010 00:00:00 10.56917 C 7.13 g/m*3 10.57 C 0 km/h
2607 18-05-2010 00:00:00 11.44333 C 6.07 g/m*3 11.44 C 0 km/h
2608 19-05-2010 00:00:00 10.30583 C 6.32 g/m*3 10.31 C 0 km/h
2609 20-05-2010 00:00:00 12.64034 C 6.31 g/m*3 12.64 C 0 km/h
2610 21-05-2010 00:00:00 16.54333 C 7.66 g/m*3 16.54 C 0 km/h
2611 22-05-2010 00:00:00 18.32583 C 7.75 g/m*3 18.33 C 0 km/h
2612 23-05-2010 00:00:00 20.32083 C 8.65 g/m*3 20.32 C 0 km/h
2613 24-05-2010 00:00:00 21.23 C 8.94 g/m*3 21.23 C 0 km/h
2614 25-05-2010 00:00:00 20.64583 C 7.99 g/m*3 20.65 C 0 km/h
2615 26-05-2010 00:00:00 15.41917 C 9.07 g/m*3 15.42 C 0 km/h
2616 27-05-2010 00:00:00 15.6175 C 8.18 g/m*3 15.62 C 0 km/h
2617 28-05-2010 00:00:00 17.3075 C 7.94 g/m*3 17.31 C 0 km/h
2618 29-05-2010 00:00:00 16.34 C 7.23 g/m*3 16.34 C 0 km/h
2619 30-05-2010 00:00:00 14.5975 C 8.93 g/m*3 14.6 C 0 km/h
2620 31-05-2010 00:00:00 11.56667 C 8.16 g/m*3 11.57 C 0 km/h
2621 01-06-2010 00:00:00 16.01833 C 8.41 g/m*3 16.02 C 0 km/h
2622 02-06-2010 00:00:00 17.66471 C 7.79 g/m*3 17.66 C 0 km/h
2623 03-06-2010 00:00:00 20.49083 C 7.88 g/m*3 20.49 C 0 km/h
2624 04-06-2010 00:00:00 21.43 C 7.91 g/m*3 21.43 C 0 km/h
2625 05-06-2010 00:00:00 22.97667 C 8.82 g/m*3 22.98 C 0 km/h
Sensor: Nr:Datum:Temp:Abs-Feuchte:Windchill:Wind:
Aussen-T/F 2626 06-06-2010 00:00:00 20.91333 C 11.1 g/m*3 20.91 C 0 km/h
2627 07-06-2010 00:00:00 19.58833 C 9.05 g/m*3 19.59 C 0 km/h
2628 08-06-2010 00:00:00 19.76833 C 9.52 g/m*3 19.77 C 0 km/h
2629 09-06-2010 00:00:00 22.5625 C 11.34 g/m*3 22.56 C 0 km/h
2630 10-06-2010 00:00:00 22.76417 C 13.55 g/m*3 22.76 C 0 km/h
2631 11-06-2010 00:00:00 22.89167 C 11.59 g/m*3 22.89 C 0 km/h
2632 12-06-2010 00:00:00 18.84917 C 10.25 g/m*3 18.85 C 0 km/h
2633 13-06-2010 00:00:00 18.25083 C 7.8 g/m*3 18.25 C 0 km/h
2634 14-06-2010 00:00:00 19.76667 C 7.8 g/m*3 19.77 C 0 km/h
2635 15-06-2010 00:00:00 18.9 C 8.06 g/m*3 18.9 C 0 km/h
2636 16-06-2010 00:00:00 18.82833 C 6.18 g/m*3 18.83 C 0 km/h
2637 17-06-2010 00:00:00 15.08583 C 9.23 g/m*3 15.09 C 0 km/h
2638 18-06-2010 00:00:00 15.2325 C 9.35 g/m*3 15.23 C 0 km/h
2639 19-06-2010 00:00:00 14.2725 C 6.27 g/m*3 14.27 C 0 km/h
2640 20-06-2010 00:00:00 13.20333 C 6.8 g/m*3 13.2 C 0 km/h
2641 21-06-2010 00:00:00 14.11083 C 6.37 g/m*3 14.11 C 0 km/h
2642 22-06-2010 00:00:00 17.38667 C 7.03 g/m*3 17.39 C 0 km/h
2643 23-06-2010 00:00:00 19.75917 C 8.12 g/m*3 19.76 C 0 km/h
2644 24-06-2010 00:00:00 22.54833 C 8.68 g/m*3 22.55 C 0 km/h
2645 25-06-2010 00:00:00 23.37 C 8.65 g/m*3 23.37 C 0 km/h
2646 26-06-2010 00:00:00 23.635 C 8.77 g/m*3 23.64 C 0 km/h
2647 27-06-2010 00:00:00 24.49417 C 9.01 g/m*3 24.49 C 0 km/h
2648 28-06-2010 00:00:00 25.25546 C 9.1 g/m*3 25.26 C 0 km/h
2649 29-06-2010 00:00:00 24.86167 C 9.83 g/m*3 24.86 C 0 km/h
2650 30-06-2010 00:00:00 24.6175 C 10.06 g/m*3 24.62 C 0 km/h
Sensor: Nr:Datum:Temp:Abs-Feuchte:Windchill:Wind:
Aussen-T/F 2651 01-07-2010 00:00:00 25.8425 C 9.72 g/m*3 25.84 C 0 km/h
2652 02-07-2010 00:00:00 26.96667 C 9.63 g/m*3 26.97 C 0 km/h
2653 03-07-2010 00:00:00 26.33 C 11.31 g/m*3 26.33 C 0 km/h
2654 04-07-2010 00:00:00 26.44833 C 12.05 g/m*3 26.45 C 0 km/h
2655 05-07-2010 00:00:00 22.02083 C 9.04 g/m*3 22.02 C 0 km/h
2656 06-07-2010 00:00:00 20.17833 C 8.34 g/m*3 20.18 C 0 km/h
2657 07-07-2010 00:00:00 22.53417 C 8.16 g/m*3 22.53 C 0 km/h
2658 08-07-2010 00:00:00 26.43417 C 8.69 g/m*3 26.43 C 0 km/h
2659 09-07-2010 00:00:00 27.51333 C 9.42 g/m*3 27.51 C 0 km/h
2660 10-07-2010 00:00:00 29.25667 C 10.76 g/m*3 29.26 C 0 km/h
2661 11-07-2010 00:00:00 28.48319 C 12.85 g/m*3 28.48 C 0 km/h
2662 12-07-2010 00:00:00 27.1175 C 11.1 g/m*3 27.12 C 0 km/h
2663 13-07-2010 00:00:00 25.36083 C 10.39 g/m*3 25.36 C 0 km/h
2664 14-07-2010 00:00:00 25.98917 C 11.73 g/m*3 25.99 C 0 km/h
2665 15-07-2010 00:00:00 22.6525 C 8.81 g/m*3 22.65 C 0 km/h
2666 16-07-2010 00:00:00 23.97667 C 8.47 g/m*3 23.98 C 0 km/h
2667 17-07-2010 00:00:00 21.99167 C 10.18 g/m*3 21.99 C 0 km/h
2668 18-07-2010 00:00:00 21.73833 C 7.35 g/m*3 21.74 C 0 km/h
2669 19-07-2010 00:00:00 23.63167 C 8.01 g/m*3 23.63 C 0 km/h
2670 20-07-2010 00:00:00 25.03833 C 8.46 g/m*3 25.04 C 0 km/h
2671 21-07-2010 00:00:00 24.73833 C 9.31 g/m*3 24.74 C 0 km/h
2672 22-07-2010 00:00:00 21.34917 C 11.61 g/m*3 21.35 C 0 km/h
2673 23-07-2010 00:00:00 20.17059 C 11.52 g/m*3 20.17 C 0 km/h
2674 24-07-2010 00:00:00 19.00667 C 9.15 g/m*3 19.01 C 0 km/h
2675 25-07-2010 00:00:00 17.26833 C 7.8 g/m*3 17.27 C 0 km/h
Sensor: Nr:Datum:Temp:Abs-Feuchte:Windchill:Wind:
Aussen-T/F 2676 26-07-2010 00:00:00 17.2925 C 11.46 g/m*3 17.29 C 0 km/h
2677 27-07-2010 00:00:00 19.815 C 10.06 g/m*3 19.82 C 0 km/h
2678 28-07-2010 00:00:00 20.5075 C 11.17 g/m*3 20.51 C 0 km/h
2679 29-07-2010 00:00:00 16.32417 C 11.42 g/m*3 16.32 C 0 km/h
2680 30-07-2010 00:00:00 19.665 C 9.34 g/m*3 19.67 C 0 km/h
2681 31-07-2010 00:00:00 20.62417 C 9.08 g/m*3 20.62 C 0 km/h
2682 01-08-2010 00:00:00 22.90833 C 11.98 g/m*3 22.91 C 0 km/h
2683 02-08-2010 00:00:00 19.60917 C 11.25 g/m*3 19.61 C 0 km/h
2684 03-08-2010 00:00:00 18.94167 C 10.12 g/m*3 18.94 C 0 km/h
2685 04-08-2010 00:00:00 19.62269 C 9.16 g/m*3 19.62 C 0 km/h
2686 05-08-2010 00:00:00 18.49417 C 10 g/m*3 18.49 C 0 km/h
2687 06-08-2010 00:00:00 19.04667 C 8.08 g/m*3 19.05 C 0 km/h
2688 07-08-2010 00:00:00 19.46583 C 7.91 g/m*3 19.47 C 0 km/h
2689 08-08-2010 00:00:00 18.485 C 11.68 g/m*3 18.49 C 0 km/h
2690 09-08-2010 00:00:00 19.515 C 10.42 g/m*3 19.52 C 0 km/h
2691 10-08-2010 00:00:00 22.13583 C 9.74 g/m*3 22.14 C 0 km/h
2692 11-08-2010 00:00:00 20.32833 C 12.64 g/m*3 20.33 C 0 km/h
2693 12-08-2010 00:00:00 19.10917 C 11.28 g/m*3 19.11 C 0 km/h
2694 13-08-2010 00:00:00 18.77833 C 9.07 g/m*3 18.78 C 0 km/h
2695 14-08-2010 00:00:00 19.9675 C 9.59 g/m*3 19.97 C 0 km/h
2696 15-08-2010 00:00:00 16.88667 C 11.8 g/m*3 16.89 C 0 km/h
2697 16-08-2010 00:00:00 17.07479 C 11.15 g/m*3 17.07 C 0 km/h
2698 17-08-2010 00:00:00 16.06667 C 10.71 g/m*3 16.07 C 0 km/h
2699 18-08-2010 00:00:00 18.40917 C 9.91 g/m*3 18.41 C 0 km/h
2700 19-08-2010 00:00:00 18.88917 C 8.2 g/m*3 18.89 C 0 km/h
Sensor: Nr:Datum:Temp:Abs-Feuchte:Windchill:Wind:
Aussen-T/F 2701 20-08-2010 00:00:00 20.42605 C 9.9 g/m*3 20.43 C 0 km/h
2702 21-08-2010 00:00:00 23.76417 C 11.32 g/m*3 23.76 C 0 km/h
2703 22-08-2010 00:00:00 23.01667 C 12.14 g/m*3 23.02 C 0 km/h
2704 23-08-2010 00:00:00 21.205 C 13.12 g/m*3 21.21 C 0 km/h
2705 24-08-2010 00:00:00 19.27083 C 7.86 g/m*3 19.27 C 0 km/h
2706 25-08-2010 00:00:00 17.61917 C 7.68 g/m*3 17.62 C 0 km/h
2707 26-08-2010 00:00:00 20.68083 C 11.52 g/m*3 20.68 C 0 km/h
2708 27-08-2010 00:00:00 18.37667 C 13.18 g/m*3 18.38 C 0 km/h
2709 28-08-2010 00:00:00 14.0675 C 8.89 g/m*3 14.07 C 0 km/h
2710 29-08-2010 00:00:00 13.03167 C 8.58 g/m*3 13.03 C 0 km/h
2711 30-08-2010 00:00:00 12.5675 C 8.53 g/m*3 12.57 C 0 km/h
2712 31-08-2010 00:00:00 15.42917 C 8.4 g/m*3 15.43 C 0 km/h
2713 01-09-2010 00:00:00 14.82437 C 8.4 g/m*3 14.82 C 0 km/h
2714 02-09-2010 00:00:00 14.95333 C 8.79 g/m*3 14.95 C 0 km/h
2715 03-09-2010 00:00:00 15.91417 C 9.06 g/m*3 15.91 C 0 km/h
2716 04-09-2010 00:00:00 16.71417 C 8.43 g/m*3 16.71 C 0 km/h
2717 05-09-2010 00:00:00 15.205 C 7.52 g/m*3 15.21 C 0 km/h
2718 06-09-2010 00:00:00 15.675 C 6.76 g/m*3 15.68 C 0 km/h
2719 07-09-2010 00:00:00 13.36083 C 8.36 g/m*3 13.36 C 0 km/h
2720 08-09-2010 00:00:00 15.545 C 10.94 g/m*3 15.55 C 0 km/h
2721 09-09-2010 00:00:00 16.20583 C 9.61 g/m*3 16.21 C 0 km/h
2722 10-09-2010 00:00:00 16.18 C 10.13 g/m*3 16.18 C 0 km/h
2723 11-09-2010 00:00:00 18.13417 C 10.44 g/m*3 18.13 C 0 km/h
2724 12-09-2010 00:00:00 16.21667 C 10.52 g/m*3 16.22 C 0 km/h
2725 13-09-2010 00:00:00 15.67583 C 9.31 g/m*3 15.68 C 0 km/h
Sensor: Nr:Datum:Temp:Abs-Feuchte:Windchill:Wind:
Aussen-T/F 2726 14-09-2010 00:00:00 16.63697 C 8.96 g/m*3 16.64 C 0 km/h
2727 15-09-2010 00:00:00 16.3175 C 7.82 g/m*3 16.32 C 0 km/h
2728 16-09-2010 00:00:00 14.07 C 8.33 g/m*3 14.07 C 0 km/h
2729 17-09-2010 00:00:00 13.76667 C 7.53 g/m*3 13.77 C 0 km/h
2730 18-09-2010 00:00:00 11.45083 C 6.84 g/m*3 11.45 C 0 km/h
2731 19-09-2010 00:00:00 11.7425 C 6.69 g/m*3 11.74 C 0 km/h
2732 20-09-2010 00:00:00 14.01 C 7.27 g/m*3 14.01 C 0 km/h
2733 21-09-2010 00:00:00 14.27 C 8.52 g/m*3 14.27 C 0 km/h
2734 22-09-2010 00:00:00 15.86667 C 9.22 g/m*3 15.87 C 0 km/h
2735 23-09-2010 00:00:00 16.56167 C 9.98 g/m*3 16.56 C 0 km/h
2736 24-09-2010 00:00:00 14.165 C 11.47 g/m*3 14.17 C 0 km/h
2737 25-09-2010 00:00:00 12.41833 C 7.9 g/m*3 12.42 C 0 km/h
2738 26-09-2010 00:00:00 11.2425 C 7.29 g/m*3 11.24 C 0 km/h
2739 27-09-2010 00:00:00 9.86807 C 7.48 g/m*3 9.87 C 0 km/h
2740 28-09-2010 00:00:00 10.93083 C 9.4 g/m*3 10.93 C 0 km/h
2741 29-09-2010 00:00:00 13.39417 C 8.9 g/m*3 13.39 C 0 km/h
2742 30-09-2010 00:00:00 11.89667 C 8.83 g/m*3 11.9 C 0 km/h
2743 01-10-2010 00:00:00 12.33667 C 9.1 g/m*3 12.34 C 0 km/h
2744 02-10-2010 00:00:00 13.4525 C 10.36 g/m*3 13.45 C 0 km/h
2745 03-10-2010 00:00:00 17.83583 C 10.56 g/m*3 17.84 C 0 km/h
2746 04-10-2010 00:00:00 16.905 C 9.67 g/m*3 16.91 C 0 km/h
2747 05-10-2010 00:00:00 15.64833 C 10.9 g/m*3 15.65 C 0 km/h
2748 06-10-2010 00:00:00 17.22333 C 9.99 g/m*3 17.22 C 0 km/h
2749 07-10-2010 00:00:00 16.31167 C 10.3 g/m*3 16.31 C 0 km/h
2750 08-10-2010 00:00:00 16.02917 C 9.37 g/m*3 16.03 C 0 km/h
Sensor: Nr:Datum:Temp:Abs-Feuchte:Windchill:Wind:
Aussen-T/F 2751 09-10-2010 00:00:00 13.1475 C 8.13 g/m*3 13.15 C 0 km/h
2752 10-10-2010 00:00:00 11.6125 C 6.4 g/m*3 11.61 C 0 km/h
2753 11-10-2010 00:00:00 10.90084 C 5.45 g/m*3 10.9 C 0 km/h
2754 12-10-2010 00:00:00 8.71917 C 5.9 g/m*3 8.72 C 0 km/h
2755 13-10-2010 00:00:00 7.475 C 5.54 g/m*3 7.48 C 0 km/h
2756 14-10-2010 00:00:00 7.55583 C 5.99 g/m*3 7.56 C 0 km/h

Maximal/Minimal-Werte vom 09.03.2003 - 14.10.2010

Sensor Min Max Avg
Temp
(Aussen-T/F)
-16.4 °C
20-12-2009  01:30:01
36.2 °C
08-08-2003  16:43:01
11.94 °C
Abs-Feuchte
(Aussen-T/F)
1.12 g/m*3
19-12-2009  00:00:00
14.99 g/m*3
11-08-2004  00:00:00
7.27 g/m*3
Windchill
(Aussen-T/F)
-12.79 C
19-12-2009  00:00:00
29.26 C
10-07-2010  00:00:00
11.9 C

Die Daten stammen von einer Davis Vantage Pro 2 Wetter-Station und werden unter Linux mit der Software wview2wettercgi und aufbereitet. Alle Angaben erfolgen ohne Gewähr für ihre Vollständigkeit oder Richtigkeit.
Kontakt: Rainer Krienke krienke@uni-koblenz.de . Meine Webseiten an der Uni Koblenz oder privat.
Version: $Revision: 0.78 $